GFSSE_250_rhum_000.txt.gz
RH
36 38 40 37 35 31 28 26 24 24 25 25 23 23 24 20 21 22 19 20 19 18 20 20 16 12 11 14 19 22 23 26 26 26 23 23 20 22 23 21 21 21 20
52 40 42 38 33 29 31 33 34 31 36 34 33 34 30 28 27 26 22 21 23 24 21 21 17 10 11 18 22 34 34 36 40 33 28 32 32 28 27 24 24 25 31
78 51 41 38 38 37 32 31 31 29 30 32 31 30 29 29 30 28 29 26 26 23 22 21 16 11 15 25 40 71 100 98 72 55 47 47 46 47 34 30 34 37 40
84 56 84 68 37 29 30 28 27 28 28 24 25 25 21 17 20 26 25 25 24 21 19 18 12 12 22 33 71 100 100 100 63 45 85 79 58 48 40 36 40 42 43
88 71 48 33 29 26 22 21 22 24 28 25 23 24 26 27 18 16 18 22 23 19 20 15 10 15 30 49 100 100 100 86 74 100 70 56 60 54 52 50 53 50 45
100 88 61 42 35 22 20 19 21 22 24 24 26 24 23 24 20 15 17 19 20 22 18 10 10 19 39 62 100 100 92 57 74 88 74 51 51 58 56 57 53 53 49
100 99 63 38 31 29 32 23 22 23 25 23 21 26 29 26 21 15 18 20 22 20 14 9 9 22 78 100 96 74 85 98 100 100 64 62 65 49 42 52 55 56 46
100 100 63 35 33 24 26 22 25 26 24 18 20 25 24 24 19 18 22 25 25 17 11 9 10 22 97 92 51 96 100 100 97 71 55 84 70 42 38 45 55 58 63
100 85 46 38 30 26 25 25 26 26 20 28 32 30 15 15 15 20 28 33 24 14 10 9 14 31 89 75 96 100 100 100 89 84 100 86 60 41 53 66 61 59 51
77 52 42 39 34 25 26 24 25 29 33 35 34 18 12 16 23 35 40 31 16 11 10 11 16 55 84 100 100 100 100 100 95 100 100 88 57 41 56 68 60 47 42
54 36 38 48 37 30 27 22 33 40 30 22 17 13 18 22 30 49 38 20 13 11 14 14 15 55 82 98 98 100 100 100 100 100 79 62 66 41 67 69 62 42 33
46 34 35 36 34 34 39 48 44 30 18 15 14 17 29 40 50 45 24 18 12 11 16 16 16 33 95 94 100 100 100 100 100 85 98 91 60 36 63 69 62 57 34
45 40 46 38 51 60 54 39 27 19 16 17 19 26 50 53 48 27 21 18 10 12 17 20 21 22 62 100 100 100 100 100 100 100 97 72 43 41 67 62 68 64 45
58 51 60 52 51 53 34 26 20 16 17 19 29 52 57 46 29 21 21 13 10 12 17 22 27 32 75 98 100 100 100 100 100 100 90 68 42 56 66 56 72 72 64
67 67 44 41 43 33 23 18 16 16 18 30 45 57 47 35 25 22 18 12 10 13 17 22 31 50 98 100 100 100 100 100 99 79 77 74 49 64 66 55 68 79 71
68 55 46 39 30 21 18 18 17 20 27 54 64 52 41 32 32 29 20 14 12 14 18 21 27 43 89 99 100 100 100 100 100 81 85 68 64 68 56 67 72 72 65
62 55 39 25 20 19 19 22 23 36 57 70 57 39 36 31 32 28 21 18 15 16 19 25 32 53 60 67 75 84 88 81 81 71 58 58 72 57 75 92 74 60 51
48 27 19 19 19 19 25 27 74 78 85 66 48 30 30 33 33 30 24 23 20 17 19 26 33 52 89 100 89 79 69 56 55 52 67 64 53 79 100 83 63 52 50
19 17 17 17 18 21 31 68 90 87 73 63 34 27 27 29 31 34 31 31 29 22 21 24 30 49 58 55 59 49 51 52 55 57 60 72 94 96 83 61 64 72 84
18 17 17 18 27 34 58 95 92 83 83 41 31 29 25 29 30 27 32 37 37 35 30 28 30 33 34 35 39 44 53 60 60 72 89 99 94 81 52 51 58 64 71
18 16 19 22 34 66 78 88 93 99 79 46 42 38 30 30 29 28 30 32 37 44 46 44 44 46 47 50 54 64 75 87 96 98 100 87 78 67 65 78 85 80 75
17 17 19 28 64 89 78 94 99 87 70 68 63 56 41 36 35 36 35 32 31 35 39 48 59 68 72 73 81 83 89 95 75 68 66 64 63 73 80 74 64 61 64
20 21 26 27 59 72 82 82 81 75 70 71 80 76 63 53 53 49 48 48 45 42 39 38 40 43 48 48 47 48 51 52 52 62 66 73 69 70 77 77 72 69 69
25 23 23 25 27 30 31 31 36 50 62 66 68 62 60 49 51 58 58 59 62 67 69 67 65 64 69 70 68 69 68 64 61 61 70 80 86 94 89 77 79 84 78
24 23 21 22 20 19 18 17 15 15 15 14 14 15 16 16 17 17 19 18 19 19 22 24 26 26 26 26 28 46 65 67 64 58 68 86 84 74 56 66 74 74 71
22 19 20 20 19 21 23 22 19 16 15 16 15 14 14 14 14 14 14 15 16 16 16 17 17 19 23 25 25 28 35 36 39 46 50 53 59 67 71 68 61 57 47

GFSSE_250_rhum_003.txt.gz
RH
62 41 44 44 40 36 30 26 25 22 19 21 22 20 20 20 22 23 24 24 21 21 20 19 19 19 23 21 22 20 14 12 16 20 23 22 21 21 21 21 20 19 18
76 59 64 61 63 45 34 31 25 25 22 20 21 23 25 26 28 27 26 22 24 24 23 26 26 24 26 24 22 20 14 12 15 23 30 32 27 26 23 24 27 33 27
83 77 83 84 80 55 50 46 35 26 23 24 24 26 25 24 24 24 24 21 20 19 24 27 26 25 25 24 22 18 13 18 22 53 79 64 55 35 38 50 56 42 39
100 96 100 99 79 73 56 43 32 25 22 19 19 21 22 22 24 24 23 22 22 25 18 17 19 22 23 21 20 15 15 22 44 100 100 100 61 74 93 56 48 42 41
100 100 100 100 94 83 65 52 35 25 18 16 16 15 16 20 22 23 21 22 21 23 21 15 15 17 18 20 17 12 20 30 66 100 100 100 67 98 78 60 50 38 38
100 100 100 100 95 86 81 57 33 21 16 16 22 19 20 28 26 23 21 22 22 22 22 17 15 16 19 18 12 10 21 45 100 100 100 85 54 96 92 58 52 45 42
100 84 63 62 100 100 99 70 40 20 22 20 19 21 28 28 24 21 21 24 21 18 19 16 18 23 22 14 9 12 34 64 100 100 97 74 96 99 74 60 52 51 37
72 60 84 100 100 100 90 51 26 21 22 20 18 16 18 21 23 27 22 24 14 13 16 20 30 27 16 10 8 16 58 100 100 84 89 97 100 94 85 82 73 50 42
96 93 100 96 100 89 70 39 28 25 26 22 20 18 17 34 28 16 17 14 13 22 27 37 31 19 12 9 8 23 91 100 89 97 100 100 100 96 73 92 86 53 44
100 100 100 100 100 88 73 44 28 24 25 24 26 22 29 27 18 14 12 16 22 38 45 44 24 14 10 9 11 27 95 100 100 100 100 100 100 97 79 99 84 60 51
92 76 90 96 78 42 37 31 25 29 30 30 32 32 27 21 14 14 20 25 45 50 53 29 18 12 11 10 12 28 97 100 100 79 100 100 100 100 88 86 63 78 39
90 86 73 64 49 43 42 33 37 38 39 36 40 29 23 16 15 17 29 54 61 56 31 20 15 10 13 12 10 29 85 100 98 82 100 100 98 100 94 99 91 67 41
73 59 54 49 44 55 45 45 46 40 38 39 33 24 18 14 18 28 56 63 50 30 23 19 12 11 16 15 10 15 76 98 84 95 94 100 100 100 100 100 95 72 49
63 54 44 42 50 63 67 48 50 42 36 31 22 17 16 15 23 52 65 48 30 26 24 16 11 12 16 19 16 12 31 89 100 100 100 100 100 100 100 97 87 65 57
85 61 59 65 57 60 63 52 49 42 28 19 17 19 20 24 52 75 52 35 25 23 24 17 12 12 16 21 24 30 31 51 82 100 100 100 100 100 97 75 82 76 82
81 57 66 58 48 54 59 56 49 28 20 18 22 24 35 58 81 53 35 30 23 29 24 19 16 12 14 19 26 35 45 81 92 100 100 100 100 97 83 83 65 62 59
66 59 67 58 68 70 61 50 30 18 18 24 34 58 78 83 58 35 24 26 28 31 25 24 21 17 16 16 19 22 35 63 87 92 100 100 100 100 89 74 69 55 57
76 73 60 60 70 65 44 20 15 17 22 30 71 91 96 70 39 25 26 28 30 32 31 31 30 27 20 20 20 19 24 35 46 67 72 64 50 52 62 55 57 63 55
88 70 65 70 64 32 17 14 18 25 32 66 97 98 85 53 37 34 26 26 27 28 30 31 33 36 33 26 24 25 25 28 37 42 43 46 47 46 44 49 56 62 74
89 88 68 40 21 15 14 22 27 34 74 92 97 97 90 62 55 51 36 33 31 35 34 31 30 32 37 44 44 42 39 36 34 35 38 40 46 55 66 73 81 93 99
53 38 23 18 15 15 23 21 37 74 100 100 98 95 84 76 71 62 54 45 43 41 39 41 41 38 34 35 39 46 56 63 70 70 74 75 81 86 89 84 82 84 85
27 22 18 17 17 22 24 34 76 99 85 85 86 84 70 69 65 62 59 55 50 51 51 55 58 60 56 52 49 50 54 56 56 59 61 63 64 67 69 70 72 73 73
25 22 20 20 28 31 26 36 52 52 46 38 44 47 46 42 33 28 23 20 16 17 21 21 20 23 24 24 27 37 51 56 60 74 75 74 76 80 79 82 87 85 82
25 25 30 37 36 31 28 25 24 23 18 15 14 13 12 12 12 13 12 13 13 13 12 13 13 13 14 14 14 13 14 15 18 23 33 40 51 64 72 92 99 97 85
28 28 31 32 30 26 24 22 21 20 19 17 16 16 18 19 18 18 18 18 18 16 16 14 13 13 13 14 14 13 13 12 11 10 11 15 18 25 40 56 67 72 72
29 31 29 25 23 22 22 21 21 20 20 21 22 23 23 22 20 19 18 18 17 16 16 13 12 12 13 13 12 12 13 16 21 21 21 29 36 41 45 51 56 56 47

GFSSE_250_rhum_006.txt.gz
RH
51 71 94 74 49 42 46 40 37 32 23 21 18 17 18 19 18 17 18 18 19 18 16 18 21 22 22 20 20 19 19 21 23 24 21 20 18 14 15 15 16 16 21
63 64 94 78 60 58 59 65 66 52 33 26 22 22 20 21 21 20 20 20 19 19 20 20 20 18 18 20 21 20 23 24 23 25 23 20 17 16 14 20 21 25 28
66 57 100 96 82 72 79 76 81 67 52 44 36 29 23 20 19 18 19 18 18 21 23 24 23 24 28 26 20 18 19 21 21 22 20 19 17 19 41 50 47 43 46
88 78 100 98 80 85 96 99 89 72 59 44 32 25 20 17 15 14 15 17 20 22 23 25 23 23 22 23 26 19 17 20 23 23 22 18 21 43 86 78 79 73 82
100 94 91 100 100 100 100 100 96 96 71 62 57 47 20 17 19 17 18 24 26 30 27 24 22 22 25 25 26 21 21 24 26 22 18 16 31 89 100 81 76 66 70
100 100 94 100 100 100 100 100 97 90 97 97 63 28 18 17 18 18 18 16 22 26 26 22 22 20 23 18 18 20 25 26 25 18 17 15 46 100 100 79 81 70 90
100 100 100 100 100 100 100 91 89 77 73 88 52 27 20 19 19 17 17 17 17 21 24 22 16 17 16 15 16 22 29 30 20 15 16 20 68 100 100 70 86 100 100
100 100 100 100 100 100 96 90 100 90 78 78 51 32 24 22 21 19 19 20 19 19 20 15 13 13 16 24 31 35 36 25 14 11 13 35 74 100 97 92 100 100 100
93 97 85 86 92 98 99 96 72 64 75 83 54 40 24 20 21 22 23 23 23 22 16 13 15 19 36 43 54 43 26 14 11 11 16 55 99 100 100 96 100 100 100
100 100 91 75 95 100 100 85 88 100 91 48 34 29 25 25 29 25 28 30 24 16 14 18 22 43 54 55 51 29 17 12 10 10 31 90 100 100 100 100 99 100 100
73 92 95 95 100 91 59 69 96 92 63 44 32 32 33 36 34 33 29 21 18 16 20 28 50 64 59 52 30 19 14 12 10 12 38 97 100 100 100 100 100 100 100
73 67 65 51 97 100 100 91 76 62 50 40 34 37 48 43 39 34 20 17 16 18 35 58 62 60 41 28 22 17 12 13 12 13 28 84 100 100 100 98 100 100 100
99 99 83 52 42 57 73 66 59 52 46 44 37 47 50 40 39 23 17 16 18 26 56 64 51 33 26 25 19 14 11 14 16 12 20 56 100 98 88 74 98 100 100
100 100 96 89 72 60 61 66 64 55 50 49 46 47 44 40 26 19 18 22 25 48 62 49 35 27 25 23 17 13 12 14 17 15 12 44 91 84 98 100 100 100 100
72 95 100 92 85 85 78 63 54 53 51 49 58 45 47 33 19 21 29 44 67 60 46 34 30 24 27 23 19 15 11 14 16 20 14 13 45 77 95 97 99 100 100
81 86 80 97 100 100 87 61 61 53 55 65 59 55 29 18 21 28 44 77 69 44 27 23 23 26 31 26 26 22 16 13 14 18 21 21 18 32 71 88 90 100 100
92 100 80 98 97 84 74 56 54 53 66 64 55 32 17 20 27 47 81 77 51 28 25 25 25 28 30 30 32 32 28 20 18 17 17 20 26 29 44 80 75 87 73
100 100 85 85 86 87 60 54 62 68 64 54 29 16 23 38 54 76 80 74 52 47 34 29 28 27 28 27 28 31 35 38 33 24 22 22 19 22 36 62 74 81 84
100 100 100 92 82 83 76 65 72 69 53 22 18 24 37 72 83 94 88 80 77 65 53 43 39 38 38 36 34 31 29 33 38 44 44 39 34 30 28 30 36 42 47
100 100 99 87 83 93 90 78 72 39 16 18 21 37 74 89 99 100 90 80 72 68 63 56 50 45 48 49 48 48 47 45 40 36 37 43 50 57 59 59 59 57 56
74 92 87 78 88 100 84 60 26 16 19 20 27 74 89 89 82 87 83 65 59 55 47 42 39 33 29 33 38 41 40 42 47 51 50 49 45 44 43 44 45 48 53
56 71 70 76 79 54 33 20 18 19 22 22 49 82 65 44 45 42 41 35 24 14 11 12 13 12 12 13 13 14 14 14 14 16 16 16 17 20 23 29 41 48 49
52 66 78 57 35 24 21 20 23 28 26 42 40 32 22 18 16 16 16 19 21 19 18 18 18 19 19 16 16 15 14 15 16 16 15 15 14 15 15 16 16 17 18
73 76 47 30 26 24 25 33 42 36 31 25 21 20 18 19 18 19 21 20 21 20 18 18 17 17 17 16 15 14 14 14 14 19 25 23 21 22 25 31 33 33 31
75 51 34 29 29 37 38 36 32 27 23 23 23 22 21 20 20 23 23 22 20 19 18 17 17 15 14 14 14 14 13 12 10 9 10 16 21 25 29 30 32 36 39
60 38 34 31 32 32 32 30 26 24 24 24 24 24 28 27 24 24 23 21 20 18 18 16 14 13 14 12 12 12 12 11 11 12 13 13 14 20 21 32 43 45 45

GFSSE_250_rhum_009.txt.gz
RH
62 58 73 76 62 73 80 72 47 45 42 48 48 29 21 20 19 18 17 17 17 17 16 16 17 17 18 17 17 18 18 18 19 20 21 20 21 23 23 23 22 21 20
59 61 58 54 52 70 93 76 60 57 52 63 60 59 40 28 28 25 22 22 19 17 16 15 15 15 16 17 21 22 23 23 26 26 22 19 19 22 24 25 24 22 21
56 60 56 48 47 59 100 93 76 62 66 68 72 55 49 39 32 30 30 20 17 16 16 16 17 18 20 25 26 25 25 25 24 23 25 24 19 19 23 25 25 23 20
85 69 57 55 52 52 88 100 86 79 92 92 88 73 73 66 63 58 37 20 16 16 16 16 15 16 20 26 29 28 25 22 22 24 24 25 22 20 23 24 23 21 20
100 92 71 60 58 58 65 100 100 99 100 92 81 97 92 69 73 47 28 18 18 17 17 17 15 16 16 17 22 22 22 17 19 22 19 20 22 25 24 24 22 21 50
100 100 99 73 62 70 77 74 100 100 100 72 91 98 79 75 77 53 38 27 24 19 18 16 16 16 18 17 17 18 16 15 15 18 20 21 26 27 26 22 21 34 93
93 100 100 100 81 89 95 87 98 100 100 100 100 97 89 83 73 59 51 38 26 20 20 20 18 19 22 22 18 14 12 12 16 19 26 35 36 33 24 19 25 82 100
100 100 100 100 100 99 100 96 91 88 100 100 99 95 85 72 69 57 35 28 25 22 22 26 25 20 18 18 15 14 16 18 23 31 39 46 36 26 18 24 30 87 100
100 100 100 100 96 100 100 100 100 99 100 100 100 67 57 77 86 60 36 29 27 23 27 28 26 17 16 15 17 22 27 32 37 52 50 40 23 15 13 18 33 86 99
96 100 100 100 98 85 83 86 86 83 99 100 94 63 82 83 55 41 37 34 28 31 26 31 23 15 15 17 25 44 48 53 51 51 37 21 16 13 16 22 45 78 99
95 90 80 91 100 100 100 100 100 96 91 99 82 63 66 57 54 46 41 38 37 25 30 27 17 15 17 29 50 59 61 52 36 27 22 18 14 12 13 16 61 97 100
89 81 81 79 78 78 81 81 71 60 55 89 93 77 63 52 54 47 44 42 40 36 32 21 18 19 24 50 58 47 33 28 25 22 17 14 10 12 12 19 66 100 100
97 82 92 91 89 69 62 66 65 58 54 48 48 43 56 48 45 47 48 52 42 40 26 17 27 39 53 57 43 35 31 26 25 21 15 12 12 15 15 14 40 94 100
100 100 100 100 91 84 74 75 72 76 64 55 53 57 57 61 44 51 59 58 40 31 18 27 45 61 53 35 25 24 29 30 23 21 20 15 12 16 18 15 19 42 90
92 90 100 98 88 78 80 87 85 85 87 79 73 72 69 59 49 46 56 54 38 19 27 46 60 53 31 30 26 28 31 32 30 31 28 21 15 15 18 19 17 18 48
99 95 96 99 95 96 84 77 90 94 82 80 76 77 66 70 52 50 51 33 18 29 45 62 64 48 35 28 27 26 28 28 30 31 33 34 28 20 18 18 20 20 16
100 100 100 88 88 82 77 72 63 68 69 59 68 64 78 70 49 58 38 20 31 60 74 76 66 61 51 45 36 35 37 36 33 29 28 31 36 38 31 23 22 22 22
77 100 100 100 100 100 100 91 70 88 85 69 78 88 88 65 61 29 19 34 61 84 88 86 75 78 72 65 58 48 43 39 39 39 40 42 41 35 36 43 44 38 31
42 60 93 95 100 100 100 99 93 83 86 89 96 96 85 71 37 17 25 65 87 100 100 97 83 67 59 50 44 41 36 31 28 31 36 37 37 41 45 46 44 40 40
35 30 34 43 68 100 100 100 100 100 96 85 83 84 77 41 16 21 53 77 70 69 77 56 38 25 18 15 14 13 13 14 13 13 13 13 13 14 15 17 22 29 36
34 31 31 43 67 86 94 100 100 100 94 91 90 57 26 18 22 30 64 45 39 34 27 23 21 21 22 22 21 20 20 20 19 19 18 18 16 15 15 14 14 13 14
34 32 28 46 77 96 100 100 100 100 93 58 37 19 20 24 31 44 30 21 20 20 22 23 22 20 20 19 18 18 18 16 15 16 16 16 15 15 14 14 14 14 15
31 29 27 30 50 92 99 99 87 54 32 24 19 25 34 35 29 26 23 19 20 22 24 24 22 22 19 19 21 22 20 23 23 23 19 17 15 15 15 16 16 15 14
30 30 27 24 42 76 93 68 34 27 22 23 38 42 35 26 23 23 23 25 24 24 24 23 22 22 21 21 21 19 17 16 18 19 27 27 25 24 23 22 22 22 23
30 33 28 30 52 83 69 35 30 32 37 43 37 31 26 23 26 26 25 26 26 25 23 23 23 22 22 22 22 21 17 14 13 13 13 17 21 24 24 24 24 24 25
30 37 29 30 69 74 43 34 35 42 39 35 33 27 26 28 29 29 29 31 30 26 24 23 21 21 21 23 24 19 16 15 14 12 10 10 12 20 22 26 28 28 29

GFSSE_250_rhum_012.txt.gz
RH
53 53 55 49 53 72 72 77 66 76 69 68 50 49 56 58 58 42 27 28 28 27 24 23 20 18 16 15 14 13 12 13 13 14 15 15 16 20 19 21 21 20 19
51 55 54 54 53 58 74 68 53 71 93 76 62 56 50 61 66 59 52 39 32 28 26 26 24 17 15 14 14 15 14 13 13 14 18 22 24 24 24 22 23 22 22
64 54 57 58 58 53 48 45 50 47 91 98 76 65 53 70 86 57 50 40 36 34 32 25 20 18 18 17 15 16 16 15 15 15 17 22 24 23 22 21 23 23 26
84 68 56 62 61 57 56 53 50 52 60 100 95 64 92 90 82 71 71 51 49 49 40 37 32 29 26 22 20 19 17 16 16 16 16 16 18 19 18 21 22 25 26
94 83 73 63 60 63 65 53 46 48 52 80 96 80 100 78 71 89 74 52 53 52 54 40 37 28 23 20 18 21 22 20 18 17 20 17 14 15 16 19 26 29 31
100 96 85 79 76 69 64 63 56 50 47 69 72 73 100 99 92 86 100 86 75 58 43 41 37 26 23 23 21 21 22 19 15 15 16 14 13 14 21 26 33 37 37
100 100 95 92 95 94 88 78 74 62 49 63 58 56 89 100 100 100 98 85 54 45 50 57 38 29 28 23 19 22 21 16 13 14 14 16 20 26 26 34 38 40 40
100 100 100 100 96 92 98 91 89 86 78 79 77 66 73 94 99 100 87 66 55 56 48 40 38 34 25 23 24 24 18 13 14 15 21 26 29 40 41 49 52 45 35
100 100 100 100 100 100 100 100 100 92 88 91 96 98 99 100 100 100 91 80 63 54 47 40 30 29 32 32 34 26 13 15 16 29 43 52 55 53 56 53 43 29 19
100 100 100 100 100 100 100 100 99 95 81 78 77 86 93 100 99 99 91 71 64 47 41 36 32 33 37 30 32 17 19 20 30 50 56 49 39 31 29 25 22 18 15
100 100 100 100 98 100 100 100 100 100 94 78 92 87 88 88 60 57 66 49 39 40 40 38 33 36 41 36 21 19 25 39 52 49 38 32 25 25 24 19 15 13 12
100 100 100 98 94 100 100 100 100 93 88 91 94 100 87 72 56 55 46 40 40 46 47 36 35 34 42 24 20 34 46 50 39 27 24 26 27 24 21 17 14 12 14
100 100 100 100 98 94 97 100 100 99 83 85 92 79 75 68 66 48 54 60 62 54 49 39 40 39 26 22 42 51 44 31 29 24 24 28 28 28 26 24 17 13 14
80 100 100 100 99 94 92 100 98 90 94 94 79 69 63 70 62 66 83 74 62 58 60 42 48 33 23 44 55 51 38 32 30 28 26 26 28 28 29 31 28 19 16
25 51 97 100 100 100 100 100 100 92 84 96 90 82 85 82 82 83 83 68 54 58 54 53 35 22 42 61 65 62 56 58 57 49 40 38 38 35 32 30 31 32 28
28 24 45 81 96 93 86 96 97 95 81 84 89 88 82 86 81 87 68 50 52 67 70 46 20 29 59 68 67 66 64 60 60 59 55 51 47 43 42 42 41 40 37
24 28 22 26 44 85 88 79 77 86 78 91 93 95 81 77 68 83 68 61 63 76 56 23 32 68 71 71 69 66 58 50 39 32 29 26 21 17 16 16 20 30 38
22 22 27 27 27 51 80 86 82 62 62 73 83 88 79 97 100 79 76 79 69 65 30 21 52 63 72 77 55 32 22 18 17 16 17 17 17 17 16 15 15 14 13
24 24 26 32 28 45 79 85 99 84 90 84 99 100 100 100 100 84 93 79 73 34 20 43 43 44 47 32 26 22 20 20 19 18 18 18 18 18 17 16 17 17 17
25 26 27 30 26 22 29 65 92 99 99 100 100 100 100 100 100 97 88 80 32 21 38 36 21 23 25 23 20 22 22 21 20 21 23 23 23 22 21 20 18 16 16
26 26 28 32 30 27 23 23 22 29 41 71 100 100 100 100 100 78 73 29 20 32 33 23 21 23 25 25 25 24 25 24 24 25 26 27 26 26 23 20 19 18 16
30 30 30 32 32 32 26 27 30 52 97 100 100 100 100 96 84 57 23 23 34 32 25 24 24 24 26 27 27 25 24 23 23 24 23 24 24 23 22 19 18 17 16
33 34 32 33 32 35 28 28 42 74 100 100 100 100 86 63 35 23 30 37 28 24 26 25 27 26 28 26 25 24 24 27 29 30 27 26 24 20 17 17 15 14 14
30 35 36 35 32 36 31 31 42 56 92 93 84 52 38 25 37 44 40 28 24 25 28 29 30 30 30 29 26 25 27 27 27 27 30 29 28 23 20 19 17 16 16
32 34 37 38 33 34 31 31 30 59 74 81 48 30 28 46 47 37 29 26 26 28 31 33 36 37 34 31 30 29 26 25 22 19 21 25 23 20 19 18 22 24 27
36 40 40 35 33 33 30 30 37 60 79 57 34 36 46 40 35 32 29 30 31 32 32 36 40 39 35 33 32 29 28 26 25 24 23 19 16 19 19 25 32 34 35

GFSSE_250_rhum_015.txt.gz
RH
60 63 54 48 34 38 40 45 53 58 58 66 67 73 74 69 52 56 58 56 70 60 50 37 31 30 26 26 22 22 21 23 21 18 18 18 17 15 15 14 14 15 17
49 60 68 56 53 39 45 48 54 69 66 80 59 57 62 66 68 61 64 72 74 54 42 40 38 30 29 26 28 25 26 23 21 18 17 16 18 16 15 14 18 18 18
64 52 67 71 62 53 42 47 54 58 56 49 45 48 86 89 90 65 82 89 74 65 50 40 38 33 29 32 30 28 26 23 22 19 17 19 20 19 18 16 16 18 17
93 75 71 76 82 65 56 50 52 54 54 50 51 49 47 52 76 71 97 94 75 67 63 62 52 48 53 35 35 29 33 25 22 19 17 19 19 17 13 14 16 18 17
100 99 95 90 93 89 70 58 53 48 49 51 44 46 52 53 60 55 82 100 100 80 82 88 80 66 37 35 30 33 27 21 21 22 25 24 20 12 12 13 14 14 14
100 100 100 100 98 95 92 81 66 53 44 40 42 42 40 43 59 55 61 63 100 100 100 98 80 53 48 42 34 29 29 24 23 24 27 22 14 12 14 15 17 20 24
100 100 100 100 100 100 97 95 92 81 65 50 43 44 48 38 44 52 52 66 78 85 100 99 75 71 60 39 30 35 27 29 26 31 25 15 17 15 17 30 32 33 40
100 100 100 100 100 100 100 100 100 95 81 71 63 56 49 51 41 47 56 62 64 80 100 100 93 66 44 33 34 36 27 26 34 27 17 18 20 28 42 50 63 59 60
96 100 100 100 100 100 100 100 100 100 100 98 88 86 77 68 54 49 57 87 100 99 68 74 65 49 36 35 42 43 34 25 31 17 22 33 40 55 53 41 34 30 31
88 100 100 100 100 100 100 100 100 100 100 100 98 99 93 88 82 70 77 98 90 71 52 54 54 41 37 44 51 46 33 32 23 18 37 50 50 44 33 27 26 25 25
75 96 100 100 99 96 100 100 100 100 100 100 100 100 100 100 100 98 100 99 84 79 70 60 48 43 52 54 52 44 38 34 20 31 49 34 29 26 24 25 27 25 22
31 70 76 81 100 100 98 99 100 100 100 100 100 100 100 100 90 82 89 91 89 78 74 67 53 51 62 52 48 46 38 24 26 48 37 32 29 27 28 28 29 29 29
18 44 93 85 94 95 89 93 100 100 100 100 100 100 100 100 95 86 84 77 74 71 75 73 60 63 48 48 53 43 26 23 48 60 56 55 58 55 47 42 41 37 35
19 15 24 49 84 79 80 83 79 87 93 90 84 93 88 98 99 91 93 96 92 91 92 70 65 52 55 52 57 35 20 46 61 63 57 56 57 55 54 52 50 48 47
23 20 16 15 40 96 100 92 77 80 78 81 80 78 83 90 99 93 87 96 100 91 81 69 56 59 70 57 53 20 29 58 58 58 57 49 40 32 29 27 24 19 16
18 21 20 18 18 25 56 79 93 94 88 81 77 74 77 92 98 98 86 81 90 97 83 67 62 68 74 62 38 23 49 58 51 43 30 20 17 16 15 16 16 17 17
16 17 19 21 21 21 22 26 37 48 69 72 69 68 81 84 96 90 84 86 90 92 89 76 82 85 80 61 24 32 40 47 31 23 18 19 19 18 18 18 18 19 19
16 16 17 19 23 24 21 22 21 22 28 44 53 55 60 60 55 62 79 86 83 94 94 90 100 84 70 35 24 21 18 20 18 18 21 22 22 22 22 23 23 23 22
23 18 18 18 20 23 26 22 24 25 26 29 48 63 48 48 74 62 93 98 96 100 100 100 100 84 42 28 24 18 16 21 21 23 24 25 25 24 24 23 23 23 23
24 21 18 20 22 23 24 23 26 35 28 26 42 77 97 100 100 99 100 100 100 100 100 100 89 47 28 28 23 19 20 25 24 26 27 26 25 24 24 24 23 23 24
29 24 24 20 20 26 25 24 25 36 37 28 20 27 24 40 73 90 100 100 100 100 100 89 50 28 35 26 22 21 24 24 25 28 28 26 25 26 26 27 27 24 22
29 28 26 26 24 24 26 31 31 31 47 39 23 24 26 67 98 100 100 100 100 100 78 33 29 37 27 24 23 26 26 29 31 34 33 30 28 27 28 29 28 26 22
29 33 29 27 29 27 38 43 31 31 40 37 28 28 53 94 100 100 100 92 69 43 30 34 35 28 25 26 27 29 34 41 42 42 36 33 32 31 27 25 26 25 22
28 32 36 31 32 30 34 46 33 29 35 36 33 33 50 79 100 95 65 40 32 36 40 40 30 27 25 27 29 34 36 42 46 42 43 40 35 35 33 29 29 27 25
31 33 39 35 34 39 35 34 35 33 35 33 33 32 37 73 94 69 36 44 47 50 39 31 29 29 29 32 34 34 32 39 41 38 37 34 36 33 29 28 28 27 24
39 40 41 43 37 39 44 42 37 34 32 34 31 33 49 73 82 43 42 53 47 38 36 34 33 33 37 38 36 34 36 39 38 34 30 32 29 28 28 29 29 26 26

GFSSE_250_rhum_018.txt.gz
RH
65 56 39 44 41 35 38 48 41 32 34 40 47 39 44 49 52 61 63 61 57 60 69 74 58 52 46 40 38 33 30 30 31 23 22 26 26 21 20 16 15 16 17
56 53 51 44 44 46 44 43 49 44 40 45 43 52 48 53 55 44 43 48 56 64 87 82 69 54 44 39 36 41 40 40 29 27 27 23 22 16 16 17 17 18 18
62 53 62 62 53 52 58 57 48 55 52 43 48 48 48 53 45 41 47 63 66 76 79 81 75 63 52 46 52 54 58 49 35 34 25 24 21 19 18 20 23 21 18
66 58 62 68 73 59 65 65 71 62 64 59 56 56 53 48 50 53 51 52 52 58 82 100 89 78 57 65 86 78 61 46 43 26 25 27 22 22 24 24 20 16 14
57 67 63 66 74 74 65 76 80 76 72 74 67 64 60 56 49 49 53 50 48 48 53 72 86 96 100 97 81 66 62 53 34 27 27 32 32 20 23 19 15 15 14
52 65 66 86 84 81 80 88 94 90 82 77 74 71 69 59 53 44 41 41 46 48 50 54 52 56 60 60 91 90 63 41 35 33 36 34 27 25 23 16 16 18 18
45 48 60 71 93 100 98 95 100 98 96 88 75 74 68 67 58 48 43 40 47 46 50 54 56 56 85 98 80 50 52 44 39 37 39 34 32 29 20 17 23 32 51
38 50 70 89 100 100 100 100 100 100 100 98 93 82 70 68 72 66 62 52 52 54 50 49 76 100 86 75 60 52 47 43 44 47 37 32 34 29 18 27 44 52 55
22 34 49 75 100 100 100 100 100 100 100 100 100 94 91 78 75 74 74 67 68 68 73 85 99 100 88 67 66 66 55 48 52 43 38 39 29 22 24 41 42 36 32
20 22 35 45 96 100 100 100 100 100 100 100 100 100 100 100 93 89 79 90 93 99 100 100 100 100 98 76 73 67 55 58 48 41 39 33 24 19 37 35 33 29 24
17 16 17 23 30 88 100 100 100 100 98 99 100 100 100 100 100 100 100 100 100 95 94 89 100 86 76 76 67 66 70 62 46 43 38 31 23 31 43 44 42 37 33
17 16 16 18 21 31 45 78 100 100 100 100 100 100 91 87 96 100 100 100 100 100 100 88 77 83 81 73 79 71 67 57 51 44 40 29 27 46 58 54 47 52 48
15 15 15 15 15 18 30 52 93 100 100 100 100 95 100 100 96 94 100 100 100 100 100 100 94 85 96 97 88 77 69 59 61 51 42 26 40 62 62 53 48 45 43
13 14 14 14 16 15 17 27 79 89 96 98 100 100 98 99 100 100 100 96 90 76 82 84 91 100 87 89 82 82 72 71 65 58 38 27 50 55 46 40 29 20 16
14 14 13 13 14 16 18 21 45 74 73 64 65 84 87 79 80 79 76 78 79 76 77 80 95 96 84 78 82 78 86 80 72 64 31 33 54 44 24 18 17 17 17
18 16 14 14 12 14 17 18 17 30 63 75 74 70 66 64 61 65 70 79 86 78 77 83 83 88 85 87 79 75 97 88 79 53 23 26 38 18 18 21 22 21 22
24 23 20 15 13 13 16 19 20 18 18 19 43 73 86 76 86 84 83 89 84 69 67 74 82 88 89 78 80 90 99 98 78 35 24 18 16 17 21 22 21 22 22
23 25 24 21 16 16 15 17 21 23 20 20 20 21 32 42 40 39 36 38 47 49 50 51 69 81 92 100 100 100 100 99 57 31 21 17 18 18 20 22 22 22 23
23 24 25 23 20 16 16 18 19 20 21 23 22 21 19 20 18 20 35 54 73 88 85 93 92 98 96 100 100 100 100 74 35 27 21 19 19 21 24 24 25 26 26
27 27 22 23 23 21 17 17 18 21 21 22 23 23 22 23 20 21 25 45 72 90 100 100 100 100 100 100 100 100 77 49 31 25 23 21 22 25 27 28 28 31 31
33 30 24 21 24 24 22 18 17 20 30 36 26 24 22 24 26 25 22 22 24 37 71 88 100 100 100 100 100 79 45 35 30 25 25 24 27 29 28 30 34 34 34
34 34 29 25 21 21 24 21 22 35 45 42 31 27 25 27 29 31 27 28 54 93 100 100 100 100 99 88 62 34 32 33 26 29 28 27 28 30 32 32 35 35 33
33 33 30 27 23 20 22 24 26 30 45 49 47 35 30 28 37 33 30 35 71 99 100 100 86 75 52 36 35 42 36 27 27 27 27 27 29 30 29 32 35 34 32
36 34 28 28 25 22 22 27 28 38 32 46 53 46 34 32 39 32 34 33 52 78 98 80 58 38 34 49 49 38 29 29 30 34 38 36 36 32 35 37 37 34 32
40 39 34 31 28 23 23 26 38 64 64 38 61 61 40 36 39 36 34 35 35 59 88 61 40 46 58 48 37 35 34 34 35 36 42 48 41 43 37 36 36 34 32
53 47 45 40 32 28 26 27 36 38 46 46 50 54 44 37 42 36 36 33 37 57 70 48 46 51 45 42 40 38 40 40 39 40 39 39 39 39 40 42 43 39 36

GFSSE_250_rhum_024.txt.gz
RH
12 16 28 30 31 30 28 26 25 24 22 21 22 24 31 31 31 24 23 26 36 37 37 41 41 41 39 37 40 40 59 57 54 40 39 39 43 53 64 49 62 50 35
21 16 13 21 29 33 29 30 30 22 20 23 26 22 20 26 33 36 35 31 27 27 31 34 49 42 30 32 33 40 43 61 75 56 49 48 62 76 43 77 60 42 37
25 23 19 20 27 20 19 24 28 35 35 26 20 20 21 20 19 28 41 42 41 36 40 38 39 35 36 40 41 43 36 37 46 64 56 67 54 46 55 76 54 46 41
26 26 26 27 24 32 37 35 30 35 42 37 34 33 33 30 25 27 29 37 50 51 44 45 44 43 44 43 44 44 39 39 44 46 50 51 51 58 58 60 57 46 39
33 31 34 29 30 30 34 43 42 34 34 40 50 47 49 56 54 43 42 40 53 60 61 55 48 45 47 44 44 41 39 40 41 46 47 48 77 77 72 67 60 52 44
34 33 32 37 36 34 27 32 39 38 45 52 60 69 67 57 70 74 67 71 68 71 72 69 62 56 53 49 43 39 42 41 46 48 57 67 100 100 90 62 51 45 44
32 36 39 37 35 32 30 33 32 39 40 52 69 74 84 86 88 94 92 89 92 89 88 79 79 68 68 63 61 57 55 54 58 57 85 100 100 97 74 53 53 53 51
34 32 28 28 35 37 34 35 33 34 45 57 74 88 94 99 98 99 98 95 90 96 97 95 87 90 80 71 70 68 69 67 74 100 86 62 88 75 67 64 62 57 52
40 40 35 32 30 27 28 35 32 34 39 46 67 100 100 100 100 100 100 100 100 100 100 100 100 99 97 90 79 88 79 80 99 100 99 82 84 85 81 76 67 56 50
34 33 31 26 25 26 28 32 32 34 39 44 49 79 100 100 100 100 100 100 100 100 100 100 100 100 100 100 83 81 88 93 100 100 100 100 100 91 91 78 67 61 53
28 26 26 25 24 24 25 28 33 35 36 41 49 57 76 95 100 100 100 100 100 100 100 100 100 100 100 100 100 100 100 97 100 100 100 97 81 80 76 78 79 61 59
27 22 20 26 27 28 28 29 29 29 31 34 35 40 43 45 73 100 100 100 100 100 100 100 100 100 100 100 100 100 100 100 100 100 97 74 63 64 67 66 73 70 66
28 21 18 18 19 19 20 19 19 20 22 23 24 23 23 24 29 39 97 100 100 100 100 100 86 90 100 100 100 100 100 100 96 82 81 70 61 53 56 72 82 75 77
25 18 16 17 16 15 14 14 13 13 14 15 18 18 17 16 19 20 23 41 49 85 89 82 100 100 99 100 100 100 100 94 72 64 63 60 64 67 64 79 82 87 89
19 15 17 16 15 13 14 15 17 15 15 13 14 18 18 16 15 15 16 18 20 21 41 52 89 100 100 100 98 86 74 64 57 59 56 68 69 70 75 86 98 96 95
16 17 17 16 15 14 13 14 18 25 22 19 14 14 19 19 17 16 16 16 16 17 20 26 35 67 82 83 83 68 56 54 44 36 52 62 53 80 78 90 100 100 100
20 20 18 17 15 15 15 17 16 17 18 20 19 16 16 16 16 17 18 19 19 18 20 23 37 43 42 44 47 46 43 47 37 30 38 62 81 99 99 100 100 100 100
25 22 24 21 20 18 17 18 20 22 20 22 19 15 14 15 14 15 16 19 22 20 20 20 19 19 20 20 20 18 16 18 37 71 89 100 100 100 100 100 100 100 100
36 31 27 26 27 24 22 17 22 29 22 18 20 22 26 18 15 15 15 16 19 19 21 23 22 21 21 20 24 20 16 19 23 43 56 84 91 94 98 99 97 98 87
55 48 38 32 31 27 26 20 22 20 24 26 20 19 22 26 30 20 15 16 18 19 20 21 21 21 20 20 21 18 20 21 22 32 59 72 81 85 95 92 84 70 60
77 66 52 43 41 32 28 28 24 33 30 28 26 22 22 25 30 26 26 22 22 23 20 19 20 20 19 21 20 20 24 23 25 43 62 75 75 70 60 47 38 43 57
98 87 74 61 52 51 32 30 34 32 27 27 31 30 24 23 26 32 29 26 26 26 22 21 20 23 24 20 21 22 20 23 22 24 44 48 51 49 39 42 46 50 51
86 100 93 76 65 50 51 38 41 46 38 30 28 28 30 29 28 32 37 32 31 34 32 28 29 34 31 27 25 27 22 25 26 27 28 40 47 43 42 50 52 44 40
62 100 100 93 68 56 64 51 49 41 43 37 31 33 35 31 27 25 27 31 34 39 43 47 41 45 45 37 31 35 27 25 25 28 30 38 48 44 39 42 43 42 40
52 86 100 100 98 77 79 60 71 58 48 56 41 32 34 40 32 28 28 30 30 33 43 54 48 52 58 55 44 41 35 28 29 31 34 39 50 51 47 41 38 38 38
58 48 90 100 100 100 87 78 83 76 69 63 50 41 38 39 29 28 27 28 30 35 40 57 67 74 73 66 56 49 49 44 34 34 35 46 57 59 53 53 52 52 51

GFSSE_250_rhum_027.txt.gz
RH
18 18 20 20 17 20 24 20 19 18 19 22 25 24 26 26 25 26 30 30 27 24 23 24 27 30 33 32 38 37 32 29 28 28 27 34 42 40 35 35 34 38 42
17 16 16 18 21 17 15 22 21 22 22 21 18 20 23 21 27 29 26 26 28 30 35 31 30 29 28 26 28 36 30 30 29 27 30 32 32 32 39 43 36 39 49
24 20 18 16 16 16 17 16 22 27 25 25 32 25 25 26 22 19 21 28 33 32 33 31 37 38 37 34 30 28 32 37 37 36 36 33 33 33 34 42 42 56 73
22 22 22 21 19 18 17 18 16 17 21 22 23 27 30 38 42 40 31 27 28 33 46 50 47 46 48 48 45 44 40 38 42 41 42 36 37 37 41 49 58 100 97
28 26 25 25 24 25 25 21 21 24 24 26 25 24 30 34 33 39 54 54 47 54 55 52 52 51 66 66 61 57 53 48 44 44 44 44 45 43 48 57 98 79 83
32 31 31 32 35 34 32 31 29 26 27 29 29 27 30 34 38 50 54 70 79 81 83 87 80 80 77 77 83 79 70 68 64 58 53 57 58 60 69 100 73 66 84
40 38 36 38 40 38 32 30 37 34 30 27 25 31 33 33 39 47 54 78 93 98 95 90 85 89 79 86 83 79 89 77 66 68 58 63 73 76 98 93 69 79 77
41 42 41 40 38 36 34 29 34 30 26 25 26 25 25 29 38 47 66 83 95 100 99 98 100 95 95 96 95 94 91 91 91 84 70 72 75 74 100 98 96 93 92
37 38 39 37 36 36 36 34 34 32 31 32 31 30 31 31 34 47 71 95 99 98 99 100 100 100 100 100 99 100 100 100 100 98 90 79 82 100 94 100 100 100 87
29 31 40 40 38 36 38 37 36 34 31 29 29 30 32 38 40 45 47 67 85 100 100 100 100 100 100 100 100 100 100 100 100 100 90 100 100 100 100 100 100 100 87
28 29 37 39 40 38 37 35 31 28 26 24 24 26 30 41 44 44 47 54 56 77 99 100 100 100 100 100 100 100 100 100 100 86 100 100 100 100 95 100 100 78 69
32 33 33 33 31 28 26 26 24 22 21 19 22 31 32 34 33 39 44 45 45 51 56 75 83 100 100 100 99 100 98 100 100 86 89 84 84 100 100 92 71 63 63
41 38 35 34 35 35 34 30 25 21 18 18 18 22 24 26 27 27 27 28 31 29 29 35 43 69 100 100 93 100 100 100 100 98 87 100 100 99 88 75 57 55 64
49 47 52 46 40 36 32 28 26 21 16 14 15 16 16 15 15 16 17 19 18 19 19 18 21 22 27 50 96 98 81 88 84 87 90 99 92 82 65 54 49 48 67
46 47 42 41 36 31 28 26 23 20 15 14 13 14 14 14 13 13 12 11 11 12 16 16 16 16 18 20 22 26 24 39 68 66 72 87 81 59 48 50 45 47 45
39 38 36 34 28 24 21 19 17 15 14 14 13 14 14 18 21 20 17 14 13 14 16 17 16 15 15 14 16 17 20 29 38 50 48 46 42 37 30 27 29 71 75
32 32 31 28 27 24 22 19 17 15 16 16 17 15 17 17 20 19 20 18 15 14 15 18 17 17 17 16 17 16 16 16 18 18 20 20 18 19 23 43 66 80 89
39 33 34 32 29 28 25 24 23 21 20 23 25 26 24 28 26 25 27 22 18 17 17 19 18 19 20 20 20 20 20 19 20 20 22 24 18 19 18 24 33 61 87
47 47 37 36 33 33 28 27 34 31 27 24 36 37 31 30 28 24 19 20 22 20 19 18 18 18 19 21 21 23 24 22 21 20 22 21 20 20 20 29 43 72 79
54 54 54 43 40 45 40 34 36 44 38 39 56 44 37 40 34 28 26 21 18 22 29 25 20 21 19 19 20 22 22 21 21 21 20 22 24 24 25 26 32 60 68
61 61 58 59 52 54 61 54 58 48 49 46 41 46 43 35 36 35 32 25 20 20 21 25 33 32 26 22 24 27 21 20 21 22 21 22 23 21 20 26 28 34 37
80 83 69 54 56 60 67 72 54 60 75 73 68 49 71 56 39 30 30 30 28 23 22 24 28 31 37 34 32 30 26 24 24 30 29 24 27 25 24 25 23 26 36
71 75 85 68 53 52 57 60 75 65 50 70 66 48 49 50 49 36 29 28 30 30 27 25 26 38 39 34 34 33 31 29 30 43 38 30 32 34 31 31 28 28 37
79 75 71 74 64 55 52 54 65 81 69 58 65 75 87 72 63 46 38 35 32 28 28 27 26 27 30 34 41 50 48 46 48 53 52 45 42 43 38 37 35 39 45
78 72 71 70 69 61 56 61 60 70 84 75 65 74 91 70 53 62 45 37 34 30 32 32 30 29 31 33 36 42 52 60 60 53 66 64 57 58 60 49 36 36 43
75 72 66 68 71 66 64 58 75 94 92 80 84 68 69 65 60 71 61 48 44 38 34 38 34 33 32 32 34 41 58 71 71 70 79 86 71 61 53 50 48 38 37

GFSSE_250_rhum_030.txt.gz
RH
17 16 18 21 20 19 16 16 18 20 19 19 22 23 22 25 28 30 32 33 30 29 29 30 29 28 27 26 26 29 30 28 26 32 39 32 27 27 24 24 26 28 26
26 25 25 24 19 15 15 16 16 15 17 18 20 22 21 21 23 22 23 26 36 41 37 34 37 39 38 34 36 36 36 34 32 34 36 30 32 34 32 31 32 30 31
24 24 25 22 18 17 18 18 20 21 19 20 19 19 18 18 20 24 28 26 24 21 23 35 41 42 37 46 51 45 44 46 48 46 44 42 38 37 36 37 36 35 36
23 21 21 21 21 20 19 19 20 20 21 21 20 20 20 20 22 27 29 31 34 32 30 25 25 32 35 45 51 61 64 56 55 59 58 63 54 47 43 44 42 44 44
36 29 21 20 21 20 20 21 21 19 19 21 21 20 21 22 23 23 27 33 39 42 39 44 47 54 63 57 50 62 63 65 70 68 72 70 69 56 54 50 49 50 55
29 31 31 28 26 24 22 23 22 23 22 25 26 24 23 23 24 22 20 23 28 29 39 41 54 71 68 60 69 84 76 66 61 60 68 58 67 64 54 55 50 53 67
34 34 35 33 34 31 28 29 30 27 27 31 29 25 24 27 26 25 23 24 25 29 32 42 49 48 68 83 85 84 84 88 88 89 86 80 72 80 77 82 77 80 76
34 33 31 33 29 30 33 36 34 34 37 34 32 32 32 32 30 29 30 30 32 34 37 40 46 60 76 86 94 96 100 100 94 96 100 100 97 94 87 80 89 86 92
29 30 28 29 35 35 30 33 37 38 38 38 38 35 33 34 31 31 30 29 30 32 37 38 43 50 61 81 92 100 100 100 99 98 95 96 97 100 100 93 97 98 100
26 27 25 30 35 34 35 37 44 43 40 40 38 34 34 34 32 31 29 24 23 25 27 36 46 47 51 65 78 95 94 85 99 100 99 99 100 87 82 82 66 73 81
26 24 22 26 28 26 27 26 26 32 39 36 31 34 34 32 28 25 21 18 18 20 29 35 41 48 50 50 52 67 89 99 100 97 99 100 96 96 93 100 98 84 60
27 24 29 28 24 24 27 26 24 28 30 32 31 25 22 23 20 21 20 19 20 20 27 30 33 35 38 37 38 47 56 68 79 83 86 87 99 97 100 100 94 92 91
34 34 31 28 30 34 34 34 34 32 31 30 25 27 24 26 27 24 21 18 17 17 19 22 23 25 26 25 24 24 23 23 28 40 62 85 100 100 95 86 75 56 54
54 54 45 41 44 44 44 38 31 31 31 29 28 28 30 28 26 25 19 16 15 15 15 16 16 15 16 18 17 18 17 17 18 16 16 18 21 36 41 29 30 42 51
54 48 42 38 36 41 41 39 36 33 36 37 34 31 28 26 23 21 19 15 14 15 15 15 14 14 13 13 13 15 17 16 15 14 14 14 16 17 21 29 35 34 35
46 48 44 43 43 43 43 41 37 35 33 32 30 25 24 20 18 17 15 14 13 14 14 18 21 20 20 17 15 14 15 18 17 16 15 17 17 15 17 19 19 20 19
47 43 50 43 41 43 39 35 31 30 26 25 25 22 21 19 17 16 16 16 16 15 15 16 19 22 22 20 18 17 17 18 17 17 17 18 18 17 19 20 20 23 23
47 47 42 43 58 45 42 39 33 32 29 28 28 32 30 23 19 20 21 24 24 24 23 23 20 20 21 23 22 21 22 22 21 20 20 21 20 20 21 21 20 22 21
56 51 46 49 50 59 55 41 43 43 49 42 40 40 42 42 34 29 27 30 35 32 30 28 25 20 18 22 29 32 27 23 22 22 21 22 22 22 23 22 22 20 20
71 63 61 63 59 52 59 69 70 70 67 69 69 66 53 52 51 44 44 46 42 35 32 30 29 26 22 19 20 25 32 34 31 30 28 24 24 25 24 23 22 21 22
78 79 78 67 54 59 63 63 66 67 73 69 48 74 89 79 51 69 68 56 59 47 34 33 33 33 29 26 23 21 24 28 37 45 39 32 34 37 32 27 26 27 24
86 84 86 67 60 64 67 71 66 65 72 75 77 76 59 57 95 100 98 73 56 54 48 43 33 28 28 32 30 25 24 27 33 39 46 46 43 38 34 32 31 36 38
100 99 79 66 52 67 80 76 76 64 71 82 86 82 78 80 81 89 86 93 82 66 54 40 30 30 31 31 31 31 30 28 27 35 41 44 50 55 47 41 39 44 52
97 84 76 70 62 66 78 85 82 70 57 52 56 65 72 87 100 100 98 100 87 78 60 41 34 39 34 31 30 31 34 34 32 34 39 53 62 69 69 62 60 60 60
76 73 72 73 74 77 75 71 79 82 71 72 63 61 70 80 90 100 100 91 81 70 69 55 48 47 43 36 35 34 34 33 32 38 45 46 49 53 63 67 70 73 68
72 70 76 75 73 70 68 69 78 82 85 80 70 67 64 79 91 92 94 94 69 63 75 85 72 59 50 48 49 44 37 38 39 35 38 45 48 48 50 59 80 92 94

GFSSE_250_rhum_033.txt.gz
RH
33 33 33 30 27 22 22 19 19 20 21 21 19 19 22 26 25 28 29 30 35 37 41 40 36 33 31 34 34 34 36 36 36 37 38 37 36 34 31 31 30 32 34
22 23 25 26 22 20 23 23 22 19 16 16 15 15 14 16 18 20 21 23 27 28 32 33 32 32 30 33 38 39 35 39 44 47 47 47 48 45 45 48 46 43 39
18 19 20 21 22 24 28 25 20 18 16 16 18 18 17 16 16 18 18 17 17 16 19 20 21 20 18 20 23 31 35 40 35 39 48 51 50 51 46 47 51 55 53
23 22 23 25 25 25 24 24 22 20 18 17 17 18 19 18 19 19 19 18 18 18 21 20 20 22 26 28 27 26 28 29 29 30 37 53 55 55 54 52 39 49 56
28 25 24 22 23 25 26 23 20 19 18 18 19 19 20 20 21 23 24 24 24 24 23 22 23 25 27 31 39 46 46 41 47 61 65 53 46 43 47 54 60 51 52
36 30 26 24 23 23 20 19 19 19 20 21 21 21 21 22 23 28 27 26 26 26 26 28 29 29 31 34 34 40 53 47 62 68 58 69 66 79 90 90 82 81 78
44 39 34 33 31 27 24 24 25 26 24 25 27 26 27 25 25 30 31 29 29 32 31 31 27 27 28 29 33 34 30 34 44 58 67 90 95 92 81 84 88 94 100
53 48 44 40 36 35 34 31 28 27 28 27 28 30 31 31 31 33 28 28 30 30 29 27 29 30 30 29 29 31 37 38 42 54 75 75 77 92 96 100 95 92 88
61 56 49 44 39 36 33 30 29 27 24 24 25 25 30 32 35 35 30 29 26 23 27 27 25 27 26 27 26 35 40 42 44 50 62 66 65 82 91 96 96 74 62
67 62 56 47 34 28 24 24 27 28 28 30 24 22 24 30 32 29 29 28 25 22 24 27 25 20 18 19 21 25 32 32 44 39 43 50 56 54 76 85 100 84 79
67 64 60 52 35 27 23 20 20 22 22 23 23 20 20 20 21 21 25 28 22 21 19 18 18 21 20 20 18 18 20 22 29 32 33 37 39 38 49 53 53 61 96
67 57 53 49 43 36 29 27 24 21 22 21 22 20 20 21 21 22 22 23 21 18 20 21 23 23 22 19 17 16 16 20 21 22 25 27 26 24 24 24 32 35 61
61 57 50 46 42 39 36 34 29 26 27 28 25 29 30 30 29 28 25 26 28 27 27 28 25 23 22 19 18 15 15 15 15 16 15 18 18 18 17 17 16 15 16
61 59 55 51 48 46 42 37 34 37 37 34 34 32 35 36 34 31 26 25 26 26 27 25 23 23 21 18 15 15 15 14 14 13 13 13 14 16 17 17 15 15 15
69 66 58 50 49 50 50 48 45 44 41 35 37 35 33 34 37 34 30 28 29 26 25 23 20 18 18 15 14 13 14 16 17 17 18 16 15 15 17 17 17 16 17
70 81 74 63 57 54 50 47 47 41 39 40 39 36 33 32 29 31 28 25 25 23 21 19 18 16 15 15 15 14 16 17 17 16 17 18 18 18 19 20 19 18 19
80 82 80 68 60 61 55 52 47 44 51 49 38 36 31 29 27 26 24 24 23 25 24 22 18 17 16 16 20 21 21 22 19 19 18 19 19 20 22 24 23 22 22
89 92 87 74 75 70 64 56 51 56 52 70 59 59 50 39 38 36 35 34 34 35 33 30 26 24 21 23 24 26 28 27 23 19 18 18 19 23 24 23 23 24 23
78 94 98 89 77 69 63 56 53 50 46 59 83 68 66 57 58 56 51 59 61 54 55 49 43 47 42 40 37 35 35 32 28 25 24 20 17 18 24 31 33 33 33
99 88 80 86 82 67 64 59 66 71 61 61 69 74 76 84 92 80 70 50 64 72 63 57 50 49 44 42 39 36 34 31 30 31 29 27 23 21 22 27 36 44 43
98 88 74 76 88 94 93 83 78 79 81 66 57 66 77 85 70 72 63 72 74 66 73 84 82 76 56 49 53 45 36 33 30 29 29 31 31 28 26 30 36 44 50
100 94 80 86 87 86 86 87 86 96 97 79 66 55 63 75 78 81 92 97 99 95 99 97 81 78 67 60 58 51 41 29 28 29 29 29 31 32 32 30 30 41 50
100 100 100 91 82 92 95 100 98 97 97 84 78 82 67 64 76 81 92 100 100 100 99 89 91 82 83 71 62 53 46 36 36 31 32 32 32 34 35 36 36 33 35
100 100 100 100 92 83 84 90 100 100 92 81 67 59 62 63 67 92 99 100 100 100 98 86 88 82 78 71 63 58 58 51 45 42 36 39 38 36 38 40 40 42 44
100 97 95 96 97 92 85 84 84 84 82 76 67 65 54 65 73 79 83 100 100 100 100 86 86 86 75 66 76 87 73 64 55 55 55 55 53 51 51 44 42 42 45
94 92 96 97 94 90 84 78 74 74 80 77 75 70 68 68 74 77 88 88 99 96 95 93 89 92 80 84 94 87 84 74 68 68 60 65 55 56 59 57 60 57 52

GFSSE_250_rhum_036.txt.gz
RH
38 40 41 43 38 39 34 34 28 24 24 26 25 26 27 27 27 25 26 30 30 28 27 26 27 28 32 33 33 35 34 30 28 31 29 28 29 33 37 38 39 39 37
29 26 33 38 35 36 35 30 25 23 21 19 19 18 19 17 16 17 17 18 20 25 28 28 26 26 25 27 26 26 22 20 20 21 22 24 25 26 29 30 33 39 39
23 22 21 32 32 32 32 27 24 24 26 24 23 20 17 16 20 20 20 20 17 17 18 19 18 18 18 20 21 20 20 20 25 27 25 25 26 27 30 32 36 42 46
23 23 21 21 24 24 24 24 24 23 24 23 22 18 16 17 18 19 21 20 20 20 22 23 23 23 23 23 23 21 22 25 25 24 27 28 31 33 38 38 42 42 44
22 25 28 25 21 21 22 22 22 22 24 23 21 20 19 19 20 21 22 22 22 22 23 27 26 27 27 25 23 24 25 24 25 26 26 27 28 34 46 48 47 54 60
35 26 26 27 29 27 24 24 26 25 24 24 23 22 22 21 21 22 22 22 24 25 24 27 28 25 26 27 27 26 23 23 24 23 21 22 22 25 31 34 38 47 60
56 47 44 43 38 33 28 27 28 27 25 26 26 23 22 23 25 25 26 26 26 27 27 27 26 27 27 26 23 23 25 23 22 23 20 20 19 22 30 29 39 50 52
61 60 53 50 48 49 46 42 36 29 30 31 30 28 28 27 26 24 23 24 22 25 24 24 26 24 25 22 20 20 23 22 21 19 21 20 18 20 22 28 34 40 42
66 63 57 53 54 57 51 48 44 40 38 34 32 29 28 28 27 25 26 24 20 19 19 18 20 21 22 23 19 19 20 19 20 20 21 21 19 19 20 23 26 32 32
78 74 70 72 74 69 63 58 52 49 43 38 30 24 21 22 24 21 18 17 17 16 18 19 18 18 20 17 18 18 18 21 21 21 21 20 19 18 17 18 24 24 26
84 81 76 74 72 70 66 63 60 56 50 38 28 23 20 20 17 17 18 19 18 19 20 20 21 21 22 21 21 23 24 22 24 22 20 19 19 17 15 16 17 18 20
52 54 61 64 60 70 70 61 58 55 50 46 40 34 32 30 27 26 28 29 27 24 23 23 23 23 23 22 22 22 24 22 21 21 20 20 16 14 14 14 14 14 16
42 47 48 64 68 71 73 69 60 56 49 46 44 41 39 36 34 33 32 31 30 27 24 23 22 23 23 24 24 23 22 22 20 20 18 16 14 13 14 14 14 15 14
45 32 34 33 39 48 54 56 54 53 49 41 38 38 38 39 38 38 35 31 29 27 26 24 23 22 23 23 20 21 22 21 19 18 17 15 13 13 15 18 19 20 19
41 45 42 37 35 37 40 41 41 43 45 41 41 38 43 41 41 38 36 36 36 32 29 29 27 24 23 22 23 22 22 20 20 18 17 17 17 17 19 20 20 21 21
65 56 44 46 47 38 41 46 53 58 58 57 53 56 52 49 45 43 42 42 40 37 33 30 30 28 27 27 28 29 28 24 20 19 18 21 21 22 26 23 20 18 19
78 60 52 45 52 60 60 61 71 66 62 61 60 58 57 52 49 51 48 48 46 45 43 37 38 40 44 44 44 43 44 37 33 31 28 34 31 29 31 28 24 22 20
76 66 55 64 73 73 81 84 86 73 67 72 69 70 64 59 52 51 46 52 55 51 47 49 51 53 50 54 55 45 43 42 43 40 36 36 32 30 28 27 27 28 26
83 83 79 78 84 82 85 92 86 74 76 78 78 77 70 66 66 61 58 61 52 51 55 64 63 68 63 57 50 60 57 57 53 47 46 43 38 33 29 27 26 27 27
100 100 100 99 94 89 91 98 96 86 85 80 70 75 73 71 58 60 57 49 50 46 58 76 71 77 82 81 86 86 71 61 59 59 56 48 44 40 32 26 25 27 28
100 100 100 100 100 100 100 100 100 100 92 83 81 71 79 77 73 68 60 63 68 58 63 66 68 63 82 72 76 70 75 66 54 54 58 59 47 45 41 32 29 28 29
100 100 100 100 100 100 100 100 100 100 100 99 88 87 85 75 74 75 84 82 76 80 73 84 94 92 90 78 75 63 65 64 65 68 72 68 58 60 51 44 38 36 36
100 100 100 100 99 98 100 100 100 100 100 100 94 89 84 64 66 70 76 79 91 99 88 92 98 98 82 79 71 74 69 64 58 72 75 69 70 68 64 55 48 43 42
100 100 100 100 100 100 100 100 100 100 97 95 84 82 80 85 72 69 80 82 95 88 94 100 100 100 97 96 92 78 74 76 67 72 83 79 70 72 76 63 59 54 55
88 91 97 100 100 100 88 83 83 82 97 100 94 94 93 99 100 93 86 85 97 91 95 100 100 100 100 100 99 88 82 75 70 77 80 81 78 74 71 71 70 56 54
93 96 100 100 99 96 96 91 87 82 89 96 100 100 100 94 90 95 96 98 89 92 99 99 100 95 100 100 100 100 94 89 86 90 95 79 90 93 84 79 79 64 52

GFSSE_250_rhum_039.txt.gz
RH
57 50 49 55 62 52 42 31 24 30 33 31 29 26 25 26 27 27 27 27 24 18 16 19 25 27 27 26 26 26 27 29 29 28 24 21 23 22 24 24 25 25 25
48 45 42 37 39 48 49 41 35 34 35 31 28 25 26 22 20 20 19 18 18 18 19 20 19 18 19 20 19 18 19 22 23 23 22 21 23 25 24 22 24 24 24
28 29 34 33 33 37 37 36 36 35 31 27 26 27 27 25 25 23 22 20 21 22 21 20 19 18 17 18 19 21 22 22 21 20 18 20 20 20 20 21 18 20 19
25 24 24 26 27 29 33 34 33 34 31 28 29 30 32 31 29 26 23 20 19 20 22 22 20 21 22 23 24 23 19 19 20 23 22 22 21 22 23 22 21 20 21
25 24 25 24 23 24 25 28 29 28 27 25 23 23 23 24 24 22 21 20 21 23 24 24 24 25 26 26 26 27 24 25 28 27 22 22 20 21 22 17 19 20 20
31 33 31 26 23 22 22 23 25 24 23 23 22 20 20 21 20 21 22 24 24 25 26 26 25 25 27 28 28 28 28 24 20 19 19 18 16 16 15 19 20 18 18
47 48 47 45 38 30 25 23 23 24 25 26 25 26 26 27 28 29 30 29 26 26 25 25 24 23 23 22 21 20 16 17 16 18 15 15 17 19 21 21 21 20 20
51 47 49 50 50 48 45 42 38 39 36 37 36 36 34 33 30 30 29 26 26 26 27 26 25 23 17 16 16 15 15 15 15 16 17 19 20 20 20 22 22 22 21
69 63 61 58 54 53 56 57 54 51 49 47 48 48 44 40 39 38 35 30 25 21 22 22 19 16 16 16 16 17 17 20 19 19 20 20 19 20 21 20 20 19 19
59 61 74 82 85 84 69 64 61 58 56 58 56 52 53 50 47 42 37 28 22 20 20 18 21 25 26 26 23 20 18 18 20 21 18 18 19 17 20 21 21 20 18
65 74 83 94 93 86 82 78 70 68 62 58 56 52 52 50 48 50 44 40 34 33 31 30 29 29 27 24 20 20 20 20 20 17 18 19 18 20 23 20 19 19 17
73 87 100 99 100 97 91 77 70 65 56 51 49 48 52 50 49 47 45 42 39 36 35 32 29 27 25 24 23 24 22 22 23 22 21 21 21 20 20 20 19 18 16
93 94 89 82 75 68 56 41 39 37 32 32 34 37 47 47 47 44 35 28 28 28 28 26 27 26 26 28 26 23 24 24 24 24 24 24 23 23 22 21 20 19 18
85 74 69 62 52 42 35 33 31 28 27 26 24 29 31 34 35 32 29 29 29 35 34 36 34 33 31 32 33 34 33 29 27 25 26 26 25 27 25 22 19 21 20
70 59 51 46 38 33 35 41 36 38 39 38 34 31 31 32 39 40 38 37 41 41 42 41 41 42 42 39 41 34 31 30 31 34 37 39 40 37 33 30 28 30 31
71 62 49 40 35 32 32 33 34 40 35 43 49 46 46 47 47 46 51 52 49 52 49 51 51 47 42 41 38 28 31 36 42 42 42 43 43 39 38 39 35 34 33
56 60 52 44 43 49 50 45 40 43 37 35 43 56 58 60 61 71 62 62 60 61 56 51 51 46 48 42 38 35 49 58 58 53 49 42 44 48 50 46 45 45 39
54 59 62 60 58 64 62 59 56 56 54 56 67 68 74 73 70 76 68 72 68 60 49 45 52 53 50 44 44 44 50 66 65 66 59 54 54 57 54 50 51 48 38
76 74 84 76 80 80 74 75 68 67 72 80 97 88 85 80 81 86 86 85 68 56 51 52 49 52 47 52 53 56 58 67 58 55 62 52 47 50 43 56 65 52 44
99 98 99 87 76 83 78 79 90 88 82 81 86 100 100 100 100 98 92 85 76 74 65 60 52 53 60 62 55 65 58 52 62 60 60 60 50 51 53 49 54 49 48
100 100 100 100 100 100 100 98 95 100 99 96 96 98 100 100 100 98 92 81 84 75 69 77 75 70 73 76 72 66 56 62 64 60 61 58 60 58 62 60 60 55 56
100 100 100 100 100 100 100 96 96 97 100 100 93 92 89 98 96 96 100 100 97 91 87 81 80 89 100 95 88 90 78 88 68 72 62 64 61 63 64 66 67 67 68
100 100 100 100 100 100 100 98 100 100 100 100 100 100 100 95 100 98 89 90 98 94 87 89 100 100 100 98 86 100 100 98 86 80 75 73 76 75 75 73 75 77 75
98 100 100 100 100 100 100 100 100 100 100 100 100 100 100 100 94 86 93 99 99 100 100 100 91 99 100 100 100 100 100 100 100 97 87 82 88 88 88 94 94 87 81
95 99 100 100 100 98 94 94 88 92 100 100 100 100 93 90 93 94 97 100 100 100 100 100 100 92 94 100 100 100 100 100 100 100 100 90 94 100 100 98 97 88 80
90 86 87 85 90 91 95 98 92 80 81 94 99 97 100 100 96 99 100 100 100 100 98 95 100 100 100 100 100 100 100 100 100 100 100 100 100 100 96 88 71 71 82

GFSSE_250_rhum_042.txt.gz
RH
46 51 59 68 66 56 46 42 37 32 30 26 22 23 25 24 25 28 31 30 27 28 26 21 17 16 17 18 19 19 20 21 21 22 22 24 24 25 25 25 25 24 25
65 62 60 56 60 67 65 55 46 39 34 25 31 37 36 31 25 25 25 24 22 19 17 15 15 16 18 19 20 20 20 21 21 19 19 20 21 20 19 21 23 24 23
55 57 53 48 46 45 46 52 52 47 44 38 36 37 33 28 26 25 23 23 22 22 22 19 19 20 22 23 24 23 22 23 24 23 24 21 20 22 21 20 18 19 17
33 36 36 38 41 39 36 34 33 38 40 39 39 35 32 28 27 28 27 28 27 25 23 22 20 22 24 27 26 26 27 28 28 28 27 25 23 20 19 19 16 14 13
27 27 29 28 27 27 28 30 29 28 29 33 34 35 34 31 28 27 26 24 24 24 22 22 22 23 26 26 27 28 27 25 23 26 26 23 19 17 15 15 14 16 18
27 25 25 22 22 22 21 22 22 23 24 25 29 27 26 25 24 22 22 22 22 24 26 28 30 30 27 27 26 25 24 24 21 18 17 15 15 15 17 17 17 20 20
30 32 29 26 24 25 24 23 21 21 22 22 22 23 22 22 24 27 30 33 35 34 34 33 34 31 28 26 26 25 24 19 16 16 16 16 16 17 16 18 18 20 19
31 32 39 40 40 42 45 47 46 46 46 44 38 35 31 38 44 43 43 44 44 41 40 40 37 31 25 22 19 18 17 21 23 24 22 20 19 18 18 18 18 17 20
45 40 50 46 49 49 50 53 50 49 49 49 51 50 50 47 42 47 45 48 49 47 46 43 41 35 28 26 25 24 23 24 23 23 21 19 18 19 18 18 19 19 18
59 73 78 69 60 66 64 52 55 66 62 63 61 62 57 56 54 46 45 43 44 40 40 42 45 43 40 39 37 34 30 28 25 24 22 21 22 23 22 21 20 20 21
44 46 52 60 62 59 55 51 51 60 67 64 62 65 63 56 53 50 45 40 37 38 43 44 44 42 37 28 24 24 23 22 23 24 25 25 22 23 25 21 23 22 23
48 50 56 57 57 59 60 60 54 55 67 86 79 75 59 44 38 32 31 29 28 28 33 30 26 24 25 22 23 23 25 26 28 27 28 32 30 28 25 22 22 24 28
44 46 53 58 59 58 77 91 100 100 100 88 66 48 33 30 28 26 25 22 21 22 25 26 29 28 29 28 29 30 30 35 37 35 36 33 29 24 24 27 30 36 38
67 66 74 77 88 90 93 89 86 74 65 51 38 32 33 33 27 27 29 30 33 32 32 34 34 32 34 34 32 38 38 39 44 41 37 35 25 27 32 38 39 38 40
94 95 96 94 89 80 71 64 55 48 43 35 31 30 27 27 26 29 31 32 35 48 47 43 41 41 42 39 41 45 40 39 39 37 33 30 31 41 45 44 47 50 53
96 92 89 87 80 74 67 60 54 50 44 38 37 35 39 40 34 33 33 33 38 48 56 52 59 56 54 56 52 43 42 43 40 39 37 34 37 39 44 47 44 52 54
77 75 71 66 64 61 55 50 44 40 40 42 44 48 52 58 52 45 43 46 52 58 61 63 62 69 74 75 60 50 51 51 47 46 46 43 41 40 43 48 50 46 48
62 58 58 61 58 56 49 47 48 48 49 51 50 54 60 66 64 62 62 79 86 86 84 90 90 84 87 79 63 56 51 47 50 52 50 46 41 49 48 48 54 51 48
78 73 77 73 71 65 59 57 58 65 66 66 64 62 62 74 79 84 76 88 93 89 92 84 80 88 90 78 68 63 60 66 60 52 50 46 46 61 56 57 55 55 57
89 80 73 74 74 74 77 74 75 85 84 74 94 97 98 86 79 92 94 90 88 90 94 99 98 94 82 80 79 79 76 82 73 63 60 64 74 79 67 63 61 62 62
89 93 86 74 87 72 72 94 86 75 95 100 100 97 97 100 97 86 79 93 100 100 100 100 100 100 100 92 87 84 80 84 92 80 85 92 95 98 100 74 74 74 68
98 86 81 94 95 85 81 83 88 94 100 100 100 100 98 89 91 79 90 100 100 100 90 89 92 96 86 87 85 79 83 99 96 100 100 100 100 100 97 81 78 85 85
100 100 100 100 99 89 100 100 100 89 99 99 100 100 100 89 95 93 97 97 100 96 83 81 90 91 92 96 100 92 93 90 90 99 100 100 100 100 100 92 95 94 97
99 88 100 97 84 87 91 92 100 100 100 100 99 100 94 95 98 100 99 100 100 100 100 100 92 88 91 98 96 93 95 96 100 96 98 100 100 100 100 100 99 99 100
82 72 72 90 100 99 97 90 88 91 90 98 94 96 97 100 100 100 100 100 97 100 100 100 100 100 95 95 94 100 100 100 100 100 100 99 100 100 98 100 100 100 100
65 61 64 64 75 89 92 86 91 99 97 88 93 98 96 88 89 94 98 99 100 99 100 100 100 100 100 100 100 100 100 100 100 100 100 100 100 100 100 100 100 100 100

GFSSE_250_rhum_045.txt.gz
RH
31 43 36 34 34 35 39 41 41 41 40 37 35 30 24 21 23 22 23 26 30 29 22 20 20 18 17 16 15 16 18 20 22 23 22 22 23 23 22 22 20 20 20
37 43 44 41 40 43 43 44 44 43 40 35 30 28 25 28 31 31 29 23 21 20 20 20 20 20 21 20 19 19 19 19 20 21 22 23 23 24 24 25 25 23 22
43 50 55 49 50 52 54 53 52 52 52 46 42 34 26 24 28 29 25 21 21 21 24 25 25 24 23 21 20 20 20 22 23 25 24 24 24 22 22 23 24 22 18
49 68 66 68 62 54 46 41 39 40 38 36 36 36 36 33 32 34 31 26 24 24 24 22 22 21 20 21 24 24 26 27 27 28 28 26 24 23 20 18 17 16 15
37 41 47 54 51 42 35 38 34 31 31 30 29 28 30 32 33 32 31 28 25 23 22 21 25 30 31 31 34 34 33 31 28 27 26 25 24 18 18 17 16 15 15
30 31 30 32 34 34 30 29 30 29 28 27 25 24 24 24 25 27 26 25 25 23 26 35 40 39 40 39 39 39 36 30 24 22 19 18 19 22 22 25 24 21 19
29 27 26 26 26 26 27 26 25 24 23 22 22 22 21 21 23 24 23 25 26 36 42 44 42 40 40 38 42 42 39 34 27 25 26 27 26 25 24 24 24 21 20
29 27 24 25 26 28 29 27 28 28 31 38 42 43 45 48 49 50 52 53 52 50 51 47 43 39 42 36 38 40 43 43 40 38 36 34 31 29 26 24 23 23 24
29 28 26 27 29 30 31 36 39 42 43 45 51 61 62 63 59 62 64 59 61 56 53 48 42 38 37 37 37 40 42 42 39 32 24 23 21 21 21 22 24 26 26
29 29 30 31 32 30 33 41 48 52 55 62 55 45 42 48 54 52 42 50 59 57 46 39 33 31 30 30 32 32 29 23 22 22 21 24 24 21 25 22 27 29 30
29 29 31 34 49 66 73 73 72 62 62 54 50 44 42 45 44 45 58 64 62 44 35 29 27 25 23 21 21 22 24 27 26 27 27 25 24 25 28 32 34 31 30
32 34 38 46 49 47 43 44 46 45 48 48 49 47 52 68 81 85 78 62 44 30 27 27 25 24 27 30 27 26 29 29 28 30 28 28 30 30 30 31 30 27 24
53 42 39 39 39 39 40 42 43 44 46 45 46 68 92 96 88 75 61 40 28 27 27 26 26 27 30 29 28 30 32 34 36 37 39 37 36 39 31 33 32 27 26
60 48 43 41 44 45 43 46 48 57 59 69 89 93 82 71 56 45 37 31 28 25 24 29 28 28 26 26 29 32 36 39 44 48 51 49 45 39 33 33 32 31 30
64 60 54 49 50 50 66 67 74 86 93 93 86 75 64 54 50 44 40 35 31 30 35 37 37 34 36 40 39 47 50 60 62 66 65 57 51 44 38 38 40 36 34
55 51 52 59 74 77 92 94 95 96 92 86 72 64 56 49 43 36 34 38 36 40 38 44 42 40 45 45 51 65 80 74 76 79 70 63 57 49 44 39 36 39 40
94 89 78 85 92 98 93 89 80 75 71 62 53 46 42 39 39 41 41 49 49 46 50 50 48 51 49 58 65 77 88 89 78 76 74 61 56 54 48 49 43 48 49
100 100 100 100 99 90 83 74 66 59 62 55 45 47 51 49 53 53 58 56 60 62 66 75 73 67 59 71 81 86 81 90 81 78 68 62 64 62 55 54 58 60 62
100 100 99 100 92 80 70 61 60 62 64 67 68 67 63 65 63 61 65 70 80 64 65 93 88 82 83 97 100 98 100 100 100 98 84 75 76 78 66 68 73 78 86
91 92 82 73 66 60 72 87 78 68 69 68 70 70 70 64 68 58 66 76 82 98 100 78 66 86 98 89 90 100 100 100 100 100 83 78 80 78 87 80 98 100 99
59 65 71 61 54 66 93 82 80 73 64 63 59 56 58 63 69 84 76 68 75 75 100 99 95 86 88 83 94 90 83 92 98 89 82 98 96 98 94 94 98 100 95
88 99 88 90 99 100 89 89 70 86 77 64 54 54 52 59 64 65 92 95 99 100 100 100 100 89 100 92 96 100 93 88 90 98 100 100 100 100 100 98 98 99 100
96 95 100 100 90 78 78 81 77 78 68 61 58 50 50 54 70 71 76 84 94 96 92 94 98 96 98 98 100 100 100 100 100 100 100 100 100 100 100 100 97 100 100
100 100 100 100 100 96 92 78 88 81 72 67 63 59 60 63 70 84 92 87 88 95 97 100 100 99 95 100 95 97 97 100 96 100 100 100 100 100 100 100 100 100 100
100 100 100 100 99 90 100 100 95 90 73 65 59 61 69 71 68 68 76 93 90 93 98 100 100 99 100 100 100 100 96 100 100 100 100 100 100 100 100 100 100 100 100
100 100 100 99 100 100 100 97 85 76 62 54 62 59 66 68 61 75 78 76 69 79 95 100 100 100 100 100 100 100 100 100 100 100 100 100 100 100 100 100 100 100 100

GFSSE_250_rhum_051.txt.gz
RH
35 38 32 34 43 40 37 29 22 24 31 32 33 39 42 40 36 32 28 26 25 26 23 22 22 22 19 17 15 15 16 17 18 25 26 26 26 26 26 27 32 33 30
23 23 23 28 32 27 21 22 27 34 33 33 36 38 38 39 33 29 29 27 24 24 24 21 20 20 20 19 18 17 18 19 30 35 31 33 30 29 29 32 34 36 35
26 20 19 19 18 20 21 25 30 33 33 35 38 37 41 41 39 38 33 28 25 22 21 19 19 21 20 19 22 26 32 34 37 42 40 37 32 29 29 32 38 41 43
35 25 21 20 19 22 26 33 37 37 36 33 32 32 28 28 25 24 23 21 19 19 19 19 19 20 23 32 40 43 41 41 41 42 38 36 30 25 27 26 30 37 38
43 35 28 28 29 33 35 39 41 40 40 38 34 30 28 25 24 21 20 21 21 22 22 31 39 39 39 40 40 38 36 35 41 38 36 31 25 23 22 21 22 23 22
44 41 39 39 39 39 41 46 46 47 46 38 32 29 27 26 26 26 24 24 26 35 47 43 40 37 33 30 33 34 33 35 38 38 35 26 22 21 20 21 21 21 24
47 44 43 44 44 39 35 35 37 40 36 33 30 28 28 28 26 25 28 34 42 52 53 51 39 35 33 28 31 34 41 44 40 40 30 23 21 20 22 23 22 22 26
50 48 48 46 43 38 33 33 35 35 34 32 28 26 25 25 27 32 40 45 54 64 60 50 42 35 33 33 38 53 57 50 47 33 27 24 22 21 20 22 24 25 28
46 52 49 48 44 40 37 34 32 30 28 26 28 30 29 28 28 41 49 56 66 57 43 40 38 34 36 42 50 51 48 42 36 32 29 26 25 28 24 26 28 31 33
42 51 51 47 43 41 39 34 31 30 28 28 26 27 30 31 33 60 70 67 59 42 38 39 36 35 41 52 54 51 45 41 36 31 24 27 29 29 31 32 34 31 37
41 51 53 45 40 40 37 36 36 37 34 31 30 30 30 32 65 55 43 39 38 37 41 41 42 50 56 60 58 50 42 35 31 24 26 32 34 33 33 33 32 36 42
45 44 52 46 40 39 38 35 38 39 36 34 33 36 36 39 45 41 40 39 41 40 44 54 62 67 67 62 51 40 25 23 24 24 30 39 38 37 35 37 38 45 55
57 44 51 49 48 48 40 38 38 37 36 36 38 37 41 42 43 44 47 47 42 44 56 64 69 73 61 48 34 30 30 33 37 39 41 41 45 48 54 50 46 45 57
57 58 51 55 52 54 50 42 40 38 40 41 47 59 67 60 57 58 52 46 52 62 66 72 69 60 45 34 34 39 45 48 47 46 46 52 61 73 80 64 65 55 73
51 51 52 54 54 54 59 54 47 44 54 77 93 95 85 73 57 50 51 64 72 75 78 73 58 45 41 42 40 44 49 45 45 43 46 64 59 77 81 91 71 79 85
56 51 51 55 53 54 61 74 96 100 100 100 97 89 76 58 57 71 86 88 84 83 80 66 56 52 48 40 40 43 40 42 44 53 59 61 74 87 86 94 77 98 100
57 57 63 64 63 65 71 75 82 89 82 71 65 61 51 60 73 88 98 100 98 85 69 58 56 52 49 42 40 42 46 45 48 54 74 95 91 91 100 100 84 83 99
74 67 62 64 70 69 72 73 71 69 64 58 64 71 85 96 93 93 97 92 83 69 64 72 62 52 52 51 48 45 53 51 49 63 95 90 94 100 90 97 85 88 100
70 72 71 66 62 70 67 67 66 62 73 72 85 100 100 100 100 84 65 64 66 72 78 68 72 64 62 52 47 52 57 49 48 63 86 100 97 90 96 98 97 100 100
74 73 70 69 67 62 71 89 85 90 100 100 100 100 100 89 75 68 58 62 68 82 85 81 68 62 55 57 62 52 54 51 49 50 70 80 80 98 99 94 99 100 94
87 81 86 100 100 100 97 91 100 100 100 100 100 83 80 79 77 75 82 91 95 90 89 68 58 64 74 64 55 54 56 50 46 47 50 54 71 87 100 99 90 93 97
100 100 100 100 100 100 100 100 100 100 100 91 82 75 67 78 77 86 98 100 99 78 64 64 67 58 56 54 51 51 49 50 54 58 69 77 85 100 100 100 100 96 98
100 100 100 100 100 100 100 100 99 94 97 100 88 84 68 62 59 74 76 83 77 62 63 66 60 61 61 53 49 50 44 49 59 71 95 100 100 100 100 100 100 100 100
100 100 100 100 100 100 98 98 96 88 90 82 93 100 99 89 72 69 64 63 68 64 62 64 61 62 56 50 50 54 62 68 86 84 89 91 88 99 100 100 100 100 100
100 100 100 100 98 92 86 93 99 94 92 84 80 81 87 86 81 71 58 63 60 64 68 66 56 48 50 55 62 81 86 90 83 94 86 79 86 88 100 100 100 100 100
100 100 100 100 100 97 86 85 83 82 83 85 81 76 76 85 78 77 74 70 67 70 69 62 50 49 50 53 72 86 88 82 59 54 55 57 58 72 78 89 100 100 100

GFSSE_250_rhum_054.txt.gz
RH
29 38 43 42 42 40 38 40 43 56 37 24 24 25 30 31 38 41 35 32 31 29 26 24 24 23 19 17 16 16 17 22 25 25 26 23 23 23 25 28 27 23 20
22 30 40 46 44 43 44 50 52 34 26 23 22 26 30 32 36 38 37 36 30 27 23 20 19 18 17 18 24 28 29 27 24 28 30 28 26 27 30 31 27 22 20
24 22 34 40 35 32 42 42 30 25 24 24 29 32 32 36 38 38 34 28 23 21 19 19 18 18 24 32 34 33 28 24 23 26 26 28 30 31 35 33 25 22 20
30 26 25 27 23 26 29 28 24 22 27 31 35 34 32 32 30 33 29 27 22 20 22 25 27 34 39 36 35 32 28 28 24 24 25 29 33 37 36 28 26 23 21
31 37 32 24 22 21 22 25 25 31 34 39 37 32 31 33 34 32 25 21 22 23 27 34 43 47 43 42 42 38 31 25 22 24 27 33 37 37 31 30 28 24 26
28 38 45 35 29 28 28 28 34 42 45 46 46 42 40 38 33 28 25 24 24 26 33 40 48 54 56 49 41 36 30 27 26 28 33 39 38 35 34 30 23 20 27
29 36 49 46 36 35 36 37 40 45 54 55 53 48 41 36 32 28 25 26 28 32 40 46 52 59 54 39 34 31 29 26 30 38 45 42 39 31 28 21 23 25 29
30 36 50 53 46 44 46 48 49 48 48 41 37 40 38 32 28 28 28 27 25 27 37 52 57 55 41 34 30 30 27 32 40 48 48 41 23 21 22 21 27 33 33
35 41 48 54 53 50 50 49 44 42 41 41 45 40 34 29 28 28 28 27 27 36 73 56 38 37 36 35 34 32 37 45 54 48 36 27 25 27 29 33 34 35 36
40 46 53 57 58 55 49 47 44 40 38 37 35 33 30 28 28 28 28 29 28 49 48 40 40 43 37 37 38 47 53 58 57 39 30 26 31 33 35 36 38 36 39
47 48 52 54 54 56 51 46 45 42 43 40 38 34 33 33 34 33 33 32 36 38 42 45 52 42 44 45 48 61 65 59 43 36 32 30 32 35 35 37 39 46 56
50 56 54 52 51 55 54 51 50 47 45 39 38 40 38 34 30 31 31 36 42 55 59 59 45 46 53 58 62 74 62 51 41 38 37 36 36 41 40 41 45 62 69
57 59 55 58 56 54 58 63 66 64 54 45 42 44 38 36 34 32 36 49 70 68 63 48 42 57 62 73 73 67 57 47 45 42 41 36 41 46 48 46 54 67 73
68 70 62 58 58 54 58 65 69 64 61 60 57 46 43 42 43 62 100 99 86 72 55 42 59 73 87 79 69 60 51 50 48 44 43 46 45 48 49 46 50 65 76
69 66 78 71 66 62 62 66 66 66 65 66 62 63 59 59 98 100 95 74 66 54 52 69 92 91 84 71 60 52 50 50 49 49 53 52 54 51 51 51 56 56 63
87 66 73 76 75 78 74 67 70 72 67 63 66 70 83 100 99 89 76 62 52 58 76 98 100 84 62 56 52 54 53 57 62 61 53 54 53 52 54 52 56 51 85
72 82 82 72 67 68 67 69 70 67 64 66 70 81 84 85 83 78 62 64 70 95 100 100 90 72 59 60 70 69 75 80 62 56 56 57 52 50 51 48 53 69 83
68 68 73 78 77 72 70 65 65 63 68 72 71 77 71 69 63 63 68 73 91 100 97 80 68 63 64 75 68 72 76 60 61 64 62 58 55 52 51 50 50 69 62
66 72 80 82 78 68 70 70 64 70 81 76 74 69 62 61 63 77 96 100 100 97 92 79 74 82 86 73 82 79 66 66 69 68 62 55 52 56 55 53 53 59 70
81 82 81 82 83 81 72 73 79 80 77 78 75 69 68 74 88 100 100 100 91 90 86 82 74 72 77 84 88 80 79 74 66 64 58 52 51 52 51 56 59 60 76
78 81 80 75 70 74 81 84 80 77 75 70 67 74 81 98 100 100 94 86 83 79 81 78 72 86 82 84 73 71 66 66 64 56 50 52 54 55 59 63 74 87 93
98 82 78 79 79 73 70 73 75 75 81 91 91 100 100 100 100 100 100 100 100 86 78 82 78 70 80 75 76 66 71 68 60 50 49 50 62 68 76 87 92 100 100
100 100 96 90 82 87 86 75 74 81 88 96 98 99 100 100 97 96 99 96 93 85 79 68 67 69 65 70 72 68 71 63 51 51 51 51 53 76 97 100 100 100 100
100 100 100 100 100 100 100 100 100 100 100 100 100 100 100 96 88 79 72 72 64 63 67 69 73 72 76 74 73 68 64 48 51 50 56 67 65 56 49 69 86 100 100
100 100 100 100 100 100 100 100 100 100 100 100 100 100 100 98 89 89 75 67 65 64 72 76 79 81 78 67 67 55 49 50 45 40 65 49 45 37 38 45 52 60 89
100 100 99 100 100 100 100 100 100 100 100 100 99 88 79 79 78 84 76 78 76 70 76 80 79 74 65 60 52 45 47 43 57 59 35 28 32 30 36 44 52 57 63

GFSSE_250_rhum_057.txt.gz
RH
36 31 34 39 38 35 34 35 51 58 57 50 51 42 24 27 29 32 31 37 34 32 30 27 24 20 19 17 18 25 28 29 25 23 22 19 18 21 22 24 25 24 25
29 25 26 35 38 37 36 38 47 45 44 45 46 29 28 27 28 31 32 37 36 31 24 23 21 22 24 26 26 30 32 29 26 29 24 21 20 20 24 28 26 26 23
25 24 23 32 39 40 42 43 42 50 52 46 34 31 27 25 27 33 35 32 27 25 23 20 23 26 30 36 43 42 35 32 34 30 26 22 24 26 32 33 30 23 21
26 25 22 25 37 46 48 42 41 51 48 36 33 27 28 27 33 32 28 27 27 23 21 22 24 27 35 45 47 43 42 41 29 24 24 23 27 34 37 37 27 19 20
27 28 25 24 26 39 36 31 40 41 37 31 27 28 30 33 34 33 32 29 25 23 22 22 27 34 42 44 45 44 46 38 27 28 26 27 39 40 41 32 25 25 24
29 29 31 29 28 30 32 32 35 36 32 27 29 34 36 48 45 37 31 28 25 22 24 28 28 32 38 47 52 42 36 31 31 26 27 36 47 48 36 28 28 30 29
35 31 32 36 39 35 35 35 33 31 29 32 39 46 55 58 52 38 29 25 22 24 27 26 26 27 55 58 41 37 39 38 32 30 33 44 51 45 35 30 28 30 34
38 35 36 35 41 48 41 38 36 35 41 44 52 63 64 56 40 31 26 23 24 26 26 26 26 29 45 41 41 46 41 34 32 35 46 54 49 42 35 31 33 35 38
43 40 40 37 38 51 51 44 43 45 49 49 61 61 51 40 34 29 26 26 26 27 28 28 27 34 35 42 51 45 38 33 35 44 51 52 44 37 31 38 40 40 41
56 46 40 40 39 50 58 52 54 55 52 50 52 46 42 43 37 31 32 31 31 30 28 28 30 33 44 61 57 43 37 40 54 64 61 51 39 35 39 45 43 41 43
64 52 42 40 40 50 55 54 52 53 51 52 49 42 42 41 39 38 37 36 31 30 29 32 50 64 69 62 47 41 45 56 73 65 53 44 40 44 53 46 44 47 49
72 62 56 44 42 45 51 57 59 60 58 51 47 46 42 39 37 39 37 36 37 34 35 60 81 75 61 48 44 51 69 85 69 56 46 44 49 55 53 51 51 54 57
73 67 62 58 52 49 48 57 62 62 58 58 60 58 49 44 41 42 43 40 35 32 49 83 76 60 53 48 56 75 90 86 66 50 42 44 60 72 66 58 62 64 58
73 70 70 72 66 60 58 60 62 59 58 59 61 60 59 56 50 52 51 47 40 62 93 78 66 54 45 53 89 97 88 72 53 50 55 63 84 84 70 61 67 62 56
76 73 69 72 72 66 66 68 67 66 63 61 61 63 68 64 60 57 56 59 67 75 65 66 58 51 52 86 96 91 76 60 54 58 62 87 84 65 64 69 62 60 53
88 79 75 73 76 76 70 72 71 70 69 65 65 68 67 64 64 63 63 65 59 58 63 60 58 59 75 96 87 76 62 54 55 60 64 71 66 67 66 65 63 57 55
94 92 80 77 78 79 75 77 80 74 73 74 76 70 67 68 71 73 69 60 60 66 63 64 63 81 100 94 81 67 56 56 61 68 78 74 70 67 67 66 62 54 54
75 90 86 81 86 84 79 76 80 90 84 82 81 75 74 72 68 68 64 65 69 67 66 70 93 100 93 81 67 54 58 65 74 80 83 77 74 72 67 60 54 50 56
88 86 93 91 85 84 80 79 86 88 87 82 80 74 74 71 75 76 77 73 71 72 76 87 100 89 79 65 57 65 68 77 82 83 79 77 77 64 56 52 49 60 59
90 98 98 96 90 84 80 80 85 84 84 85 85 85 79 81 83 87 79 77 73 83 93 96 94 91 83 68 73 76 80 80 92 93 80 72 67 53 48 50 56 68 70
91 89 97 100 98 91 89 89 84 85 85 87 88 84 79 79 81 82 81 79 94 99 93 97 97 90 76 78 75 78 75 94 91 76 70 67 56 50 44 62 78 82 90
100 93 88 88 88 90 92 92 90 92 92 92 91 90 90 90 88 85 93 100 100 100 100 100 90 85 83 79 77 76 88 80 80 79 67 60 55 49 64 64 68 68 67
100 100 100 94 92 91 88 90 94 96 98 98 94 92 89 90 96 100 100 100 100 100 100 100 100 88 76 77 84 85 75 77 80 70 65 56 49 49 51 46 44 41 41
100 100 100 100 100 100 96 90 88 89 91 95 93 95 99 100 100 100 100 100 100 100 100 97 83 74 78 89 93 87 74 72 67 72 58 50 46 48 40 36 36 34 35
98 100 100 100 100 100 100 100 100 100 98 99 98 100 100 93 80 77 83 86 78 86 88 78 75 75 90 88 90 83 80 74 72 62 45 37 32 28 28 29 29 28 37
85 86 98 100 100 100 100 100 100 100 100 100 100 100 100 100 100 100 100 100 100 91 81 80 83 98 97 97 85 84 80 76 65 44 31 26 24 26 24 27 33 36 38

GFSSE_250_rhum_060.txt.gz
RH
42 38 36 33 32 35 38 42 42 35 43 81 85 97 82 52 42 24 29 27 26 28 30 30 25 21 20 24 30 31 32 33 34 26 32 28 23 22 20 25 33 37 32
41 40 37 35 34 30 33 40 39 35 37 50 62 55 48 43 30 31 30 26 26 28 27 22 21 20 23 26 32 36 35 38 33 33 37 28 28 23 25 34 37 36 32
41 42 39 34 31 29 34 40 39 40 44 50 52 43 48 38 32 33 27 27 30 26 26 23 20 21 23 28 35 41 40 38 40 38 32 31 28 24 29 37 40 37 32
44 43 40 27 24 24 33 41 41 42 45 47 50 55 45 39 36 33 30 31 28 27 26 23 22 21 22 23 26 31 39 48 41 37 36 32 28 26 32 42 41 38 31
64 50 40 27 24 22 31 42 48 49 47 54 60 52 43 40 38 34 31 31 31 30 27 25 21 22 22 24 24 32 54 43 39 43 38 31 29 32 38 44 39 34 32
88 62 39 29 28 24 24 33 52 48 38 50 54 44 42 40 37 35 32 35 34 30 28 23 22 23 24 23 22 28 38 38 45 48 37 33 32 41 46 42 36 29 25
92 73 42 32 32 31 27 29 38 35 39 46 44 39 41 41 40 41 41 42 36 30 25 24 24 24 23 23 25 30 32 43 51 43 36 34 35 46 46 38 31 29 30
97 79 48 36 32 32 34 30 32 38 44 46 44 43 46 47 52 48 48 44 35 31 27 25 26 27 26 25 28 36 52 53 45 40 35 34 47 55 48 38 32 33 36
100 88 62 40 34 32 35 40 37 38 42 46 42 47 46 53 54 49 48 41 36 32 29 29 31 28 27 30 44 59 56 47 41 36 35 50 62 58 48 38 32 38 51
98 88 78 51 37 34 36 39 48 47 45 46 45 50 55 51 44 38 35 36 37 34 33 33 29 27 28 34 47 59 56 41 36 38 44 60 65 56 44 37 39 50 62
89 84 78 73 46 37 36 39 54 58 52 53 56 54 51 47 44 46 48 45 39 35 32 31 30 29 29 52 70 62 47 40 41 51 68 72 70 51 46 48 60 66 66
86 82 77 77 66 46 41 37 44 56 59 55 56 53 47 48 53 53 51 48 43 39 37 39 38 36 46 62 56 44 45 44 55 64 67 78 62 51 49 59 64 70 68
94 86 74 76 77 61 53 43 40 49 56 55 54 54 55 55 58 58 54 51 43 41 45 44 42 43 50 47 44 47 48 58 65 66 77 73 58 55 53 58 65 69 71
95 90 75 72 76 71 65 58 49 45 48 55 59 59 58 61 63 63 60 53 53 54 54 51 46 45 43 48 47 49 52 69 71 71 80 65 58 51 53 61 72 74 69
100 100 89 71 73 74 70 67 65 60 56 52 57 60 64 65 66 64 63 61 61 62 59 53 45 46 49 50 53 56 67 76 72 73 71 61 58 53 60 66 74 70 67
100 100 99 80 72 75 75 72 73 71 66 63 64 68 70 70 69 68 68 68 70 62 57 50 48 53 57 60 61 63 73 88 73 74 63 70 64 61 64 69 72 77 65
95 100 100 94 79 76 75 73 72 77 76 69 65 68 74 74 75 79 83 79 66 62 59 54 59 65 69 69 66 74 85 83 76 72 76 72 68 66 72 72 69 64 57
78 78 79 88 91 86 80 77 76 72 77 79 78 82 83 86 88 85 78 73 72 72 69 66 73 74 76 73 79 79 80 81 76 76 81 76 71 76 81 72 68 60 55
69 69 78 76 73 83 86 86 81 80 80 80 81 82 78 77 85 84 84 80 78 79 78 79 80 85 80 80 81 86 79 78 76 82 82 76 79 80 73 73 64 56 53
83 89 91 82 78 85 85 91 94 98 94 91 87 85 87 89 90 93 86 80 81 81 82 85 89 80 86 81 84 87 82 81 93 88 81 85 82 78 78 65 60 53 51
83 85 99 99 91 87 84 82 93 99 100 100 96 95 94 91 90 89 87 94 90 86 95 87 80 83 93 86 81 89 94 93 94 87 86 87 84 82 71 67 60 52 47
100 100 100 100 100 99 92 90 99 100 100 100 100 99 100 100 95 88 89 92 94 88 82 78 79 93 94 88 91 97 100 100 94 87 86 91 85 81 69 64 54 44 42
100 100 100 100 100 100 100 100 100 100 100 100 100 100 99 97 87 86 84 77 76 77 88 92 86 95 92 100 100 100 100 95 90 100 96 87 80 69 67 58 44 39 34
100 100 100 100 100 100 100 100 100 100 99 97 96 95 87 81 85 88 91 97 95 97 94 97 100 100 100 100 100 100 95 82 89 90 91 83 76 72 63 48 38 31 30
79 99 100 100 100 100 100 100 100 100 100 100 100 100 100 100 100 100 100 100 100 100 100 100 100 100 100 100 100 94 91 95 88 86 72 78 67 62 51 41 37 35 26
77 85 99 100 100 100 100 100 100 100 100 100 100 100 100 100 100 100 100 100 100 100 100 100 100 100 98 87 94 100 100 91 89 75 71 61 59 48 48 48 43 31 28

GFSSE_250_rhum_063.txt.gz
RH
51 40 31 38 39 38 39 44 45 39 39 37 42 65 72 100 100 87 64 34 32 34 26 27 28 24 21 20 24 26 32 34 32 34 31 37 35 34 31 28 25 28 31
42 40 37 38 37 39 38 35 36 40 43 43 35 41 68 73 80 61 44 31 36 34 29 30 22 23 20 20 22 26 24 25 30 34 44 39 37 38 33 28 26 28 35
44 45 47 43 39 36 35 35 34 32 36 40 38 37 57 66 53 46 39 34 33 32 30 25 24 23 22 22 23 22 21 21 29 41 38 34 39 36 32 28 28 36 40
49 43 47 44 41 37 34 31 30 34 40 43 43 47 58 58 54 48 39 37 34 34 27 26 26 24 21 21 22 21 22 21 26 31 30 40 41 36 30 25 34 43 42
54 48 46 43 41 38 29 26 25 30 44 46 45 48 61 66 57 46 42 41 42 34 28 29 26 25 20 22 22 20 22 21 25 34 45 44 37 32 26 30 41 46 45
64 65 61 49 45 39 29 24 23 32 46 50 51 53 65 65 53 48 44 46 49 38 33 31 28 22 22 23 23 24 22 24 35 47 47 40 35 29 29 40 42 54 44
90 86 75 71 55 42 30 26 23 30 43 56 52 47 56 58 51 48 45 57 56 48 40 36 29 25 24 24 25 21 24 28 33 46 45 38 32 30 31 38 56 60 43
99 90 84 76 77 51 33 28 26 25 29 47 47 39 52 54 52 48 52 59 57 51 46 36 30 26 27 26 24 21 22 27 44 51 42 33 30 33 36 50 68 54 45
100 89 97 84 82 67 39 32 34 31 31 36 41 43 49 52 48 49 59 65 60 52 43 36 31 29 28 26 23 22 22 28 42 39 37 32 35 37 42 70 69 56 50
95 100 100 91 77 81 49 36 34 40 38 32 36 38 46 46 46 56 70 72 65 47 39 36 38 35 29 30 28 27 26 38 39 36 39 38 40 42 57 65 62 57 55
76 91 99 90 89 85 73 44 38 32 44 48 44 43 47 50 51 54 48 46 43 40 39 40 41 38 36 33 31 30 30 33 39 39 43 45 44 50 64 68 59 63 62
79 82 95 99 96 89 79 67 45 37 36 45 52 50 47 54 60 58 55 57 54 51 55 55 54 49 45 42 37 35 36 41 47 50 50 52 49 60 71 69 63 71 68
98 100 100 100 95 90 83 76 65 44 40 40 46 54 57 54 54 55 57 59 60 59 58 56 52 50 46 45 45 46 41 49 55 52 57 53 61 72 71 67 72 73 71
100 100 100 100 93 86 83 78 75 64 48 45 42 48 58 59 57 56 57 57 58 59 59 58 57 55 57 52 52 47 52 60 58 56 59 59 62 70 74 71 71 76 68
100 100 100 100 100 99 88 78 74 78 65 54 52 49 48 52 57 59 60 59 63 65 64 64 68 71 61 56 52 55 66 65 60 62 62 65 69 79 78 73 70 73 66
100 100 98 92 93 100 95 85 76 74 76 69 62 62 58 59 61 63 60 62 65 68 72 73 78 68 65 63 66 68 73 67 65 62 66 75 79 82 76 78 80 73 64
98 100 100 99 100 100 100 90 79 71 69 72 64 62 63 68 71 67 64 64 73 86 84 83 75 76 74 76 74 75 70 69 63 68 83 84 87 87 80 85 83 68 68
100 95 100 100 100 100 100 98 87 78 71 70 72 67 66 71 71 72 73 74 78 78 74 73 74 79 77 79 81 78 74 74 73 84 84 96 95 88 94 89 74 71 74
100 100 100 98 100 100 100 100 100 93 78 72 73 75 74 75 72 70 73 74 75 81 79 79 81 83 83 85 78 78 79 82 79 85 93 95 94 100 96 83 73 73 73
100 100 100 85 62 73 94 100 100 100 95 84 83 81 85 81 80 81 83 85 86 90 87 97 97 89 86 79 82 90 79 87 93 96 94 96 100 99 88 80 77 74 67
100 100 100 100 88 78 72 85 98 99 98 96 98 93 89 87 97 100 99 99 99 98 97 94 92 90 84 85 83 82 100 100 98 91 96 100 100 94 83 83 77 70 65
99 100 100 99 75 69 78 89 95 97 100 97 96 99 98 99 100 100 100 100 100 100 100 97 94 89 92 79 83 100 100 100 94 100 100 100 97 89 91 84 77 69 58
100 100 100 100 82 71 81 97 100 100 100 100 100 100 100 100 100 100 100 100 100 100 100 100 89 79 89 100 100 99 93 100 100 100 100 100 99 96 88 82 77 62 50
100 100 100 100 100 94 85 92 100 100 100 100 100 100 100 100 100 100 100 100 100 98 82 80 92 99 100 100 100 99 100 100 100 100 100 100 100 100 89 84 66 55 39
100 94 100 100 100 100 100 100 100 100 100 100 100 100 100 100 100 100 100 100 100 100 100 100 100 100 100 100 100 100 100 100 93 95 97 100 100 93 87 74 63 44 32
100 100 100 100 100 100 99 100 100 100 100 100 100 100 100 100 100 100 100 100 100 100 100 100 100 100 100 100 100 100 100 94 99 96 95 90 94 84 81 63 57 36 42

GFSSE_250_rhum_066.txt.gz
RH
48 40 38 40 37 36 37 37 44 50 47 40 35 31 27 37 67 96 100 96 73 48 30 34 30 29 24 20 20 20 22 23 21 20 23 31 31 29 35 33 29 24 23
42 48 43 46 40 33 33 31 30 34 37 36 40 41 37 38 53 85 92 87 61 41 34 36 32 29 21 22 20 20 22 21 20 20 21 23 27 38 38 34 28 24 25
54 68 54 48 44 38 36 36 37 34 32 32 34 37 42 38 40 60 69 58 48 41 38 38 35 26 23 24 21 21 21 21 20 21 19 28 37 42 38 33 28 27 27
66 63 54 47 48 44 40 38 34 32 30 29 30 33 38 38 44 54 65 55 46 42 42 40 38 28 27 26 25 21 22 20 21 20 23 30 33 38 37 30 27 26 25
72 58 53 48 50 49 45 39 36 33 29 28 29 37 40 44 48 56 61 54 49 46 46 46 42 34 32 30 24 21 22 22 21 22 23 31 35 40 29 26 30 27 32
71 67 61 51 46 48 45 40 37 30 26 24 29 44 47 48 55 62 64 55 49 48 49 52 46 41 35 30 24 22 23 25 20 21 25 27 38 34 28 30 31 32 41
71 71 66 57 49 48 47 43 39 31 26 23 30 45 53 55 60 67 64 54 52 49 53 59 53 46 39 32 26 26 27 24 21 22 28 32 35 28 32 36 34 34 41
70 67 69 67 68 68 65 52 42 33 27 23 27 43 57 56 52 56 60 56 55 52 60 70 64 51 40 33 28 29 28 26 26 25 29 28 34 30 35 39 39 38 46
80 68 85 86 89 84 66 61 56 37 30 24 24 32 47 53 49 51 61 59 56 54 58 66 65 48 35 33 31 31 31 30 31 31 32 34 36 35 39 43 44 48 54
86 85 81 97 89 64 76 65 65 50 34 30 27 30 39 47 49 53 58 56 53 53 58 64 56 43 39 38 40 36 32 33 39 39 38 38 38 44 47 50 48 57 64
83 78 76 85 94 72 79 83 68 68 42 35 36 34 38 44 46 46 49 51 52 55 65 57 48 43 44 44 44 40 40 45 48 47 43 42 40 44 47 48 48 57 64
84 83 70 75 98 100 99 95 80 73 62 40 39 39 48 45 42 42 43 49 55 55 51 46 50 52 51 54 57 53 50 52 51 49 51 53 49 48 49 48 55 64 76
84 91 85 75 85 100 98 95 84 81 78 60 42 38 40 49 50 50 53 58 61 60 58 62 61 64 63 60 59 53 55 58 56 55 60 58 53 52 51 53 68 79 82
94 92 87 82 77 78 84 84 100 88 87 77 65 45 39 40 50 55 60 61 64 64 63 63 62 63 63 60 62 64 66 61 58 64 68 57 58 57 59 66 74 84 93
100 81 79 82 83 84 97 88 95 94 86 82 78 74 56 47 47 50 57 60 62 60 59 59 62 64 68 73 77 70 67 61 59 64 64 61 63 62 69 80 88 99 100
100 100 91 86 93 100 98 100 100 94 90 85 79 75 74 66 58 61 57 57 58 61 64 65 67 68 74 73 71 71 72 69 68 69 66 69 67 70 74 85 99 100 100
100 100 100 100 100 100 100 100 100 99 92 84 80 74 72 73 74 70 61 62 68 72 72 73 75 77 77 72 78 80 79 83 78 76 73 70 77 70 87 95 100 100 100
100 100 100 100 94 100 100 100 100 100 98 87 82 77 76 72 72 72 72 70 65 68 72 74 74 76 75 82 86 86 88 87 84 85 80 81 76 84 97 96 100 100 90
100 100 100 100 98 84 85 100 100 100 100 93 84 82 79 78 74 72 71 73 76 76 78 81 84 85 83 86 96 95 94 93 90 88 88 84 87 99 100 100 100 90 69
100 100 100 100 100 99 82 75 84 88 89 95 96 99 97 94 89 80 74 76 77 84 86 83 91 90 94 92 98 100 98 91 91 86 81 92 100 100 100 97 90 72 69
100 100 100 100 100 100 96 89 72 56 48 69 87 97 99 100 100 100 95 92 92 93 90 90 98 98 100 100 100 100 97 96 86 86 100 100 100 100 95 89 75 73 72
100 100 100 100 100 100 100 100 84 79 65 68 73 77 93 99 100 100 100 98 98 94 92 96 93 99 100 100 98 99 100 89 97 100 100 100 97 100 94 79 77 71 73
100 100 100 100 100 100 100 100 100 100 91 78 77 82 92 100 100 100 100 100 100 100 100 100 100 100 100 100 100 96 92 100 100 100 100 100 100 99 86 88 76 79 72
98 90 100 100 100 100 100 100 100 99 82 74 79 86 97 100 100 100 100 100 100 100 100 100 100 100 98 96 96 100 100 100 100 100 100 100 100 100 96 85 79 77 78
100 100 98 90 100 100 100 100 100 100 100 100 97 100 100 100 100 100 100 100 100 100 100 100 100 100 100 100 100 100 100 100 100 100 100 100 100 97 100 86 75 77 73
100 100 100 100 91 85 98 100 100 100 100 100 100 100 100 100 100 100 100 100 100 100 100 100 100 100 100 100 100 100 100 100 100 100 100 100 100 98 89 86 84 77 58

GFSSE_250_rhum_069.txt.gz
RH
57 52 41 40 44 48 46 45 42 43 45 51 52 47 42 35 32 29 35 76 100 91 75 55 38 32 31 29 27 21 21 20 20 21 20 20 19 21 32 32 39 29 24
52 55 45 41 46 43 36 35 35 35 37 34 40 42 37 37 35 38 41 65 88 90 84 57 39 35 37 34 28 24 22 21 22 21 21 21 20 21 28 34 36 28 24
51 56 58 46 44 39 34 34 33 30 30 27 31 30 32 36 39 43 43 47 64 71 56 45 41 39 39 36 31 27 25 23 23 22 22 22 22 21 24 31 32 25 27
57 56 56 50 45 46 39 36 33 31 29 29 29 30 28 28 35 42 46 49 60 70 56 48 44 43 44 42 36 30 27 25 23 23 25 21 21 24 23 30 29 24 28
70 62 48 50 56 54 46 41 36 35 36 32 30 28 28 28 34 44 47 56 66 64 54 50 48 46 49 47 42 34 29 24 23 26 28 21 23 24 24 25 31 28 31
76 60 53 57 62 51 45 43 44 43 41 36 33 29 26 26 35 44 50 62 66 65 55 53 51 49 53 51 45 37 32 30 27 29 27 25 27 28 30 29 31 37 37
78 70 67 67 60 50 48 46 45 44 39 37 33 28 24 26 37 46 54 65 72 66 58 54 52 50 54 57 53 46 38 30 30 31 30 29 33 35 35 31 38 40 39
79 75 78 79 65 59 54 46 45 45 43 40 36 30 24 25 39 50 57 61 61 62 59 56 53 55 56 60 60 53 37 33 35 36 31 30 33 36 35 36 43 40 42
81 77 77 79 67 61 56 53 52 58 57 46 40 31 25 24 34 48 58 55 53 55 62 58 56 55 61 66 67 48 42 41 42 41 39 37 35 37 40 39 46 40 45
82 78 87 90 71 68 60 64 76 80 56 53 47 34 28 24 28 37 48 52 51 56 60 58 55 59 66 69 58 55 51 50 53 48 47 46 48 48 46 47 48 47 50
85 85 84 81 76 80 96 89 94 85 66 55 55 48 33 30 27 31 40 46 50 55 57 52 52 60 63 59 58 49 55 59 56 52 53 56 52 51 48 50 52 52 51
94 79 83 81 81 85 95 100 100 85 67 67 66 60 42 36 34 33 37 43 48 46 46 48 55 62 59 52 56 61 61 63 60 60 58 59 51 51 50 54 56 55 60
100 99 86 82 80 75 84 88 96 93 94 95 76 68 65 43 40 44 44 47 47 46 43 48 58 62 63 64 66 64 66 65 60 57 55 56 56 55 52 56 57 55 61
99 95 94 92 79 67 64 65 66 94 100 100 94 78 78 74 52 44 46 52 60 62 59 61 62 66 69 66 64 62 66 60 59 58 55 56 58 60 59 58 61 63 65
100 97 96 94 91 78 77 74 65 66 78 90 100 97 88 81 76 71 51 47 46 56 61 66 69 66 66 66 66 68 68 64 66 64 64 62 64 65 63 62 65 67 65
98 98 93 97 96 90 79 77 77 75 71 79 94 88 85 80 78 77 78 74 60 55 55 60 60 63 64 65 72 75 72 71 71 72 72 72 72 72 66 72 70 70 79
100 100 92 91 96 94 88 88 80 83 82 83 99 94 81 75 80 81 75 74 76 76 74 72 71 71 71 70 74 75 78 77 76 78 81 85 84 75 77 77 70 75 91
100 100 100 100 100 100 91 92 100 100 100 100 95 93 88 88 84 74 75 76 75 72 72 73 74 75 76 76 76 80 83 84 85 88 88 91 85 83 79 76 71 84 95
100 100 100 100 100 98 100 100 100 100 100 100 100 100 100 100 100 82 79 74 75 73 73 76 75 73 74 74 76 82 83 89 96 99 99 94 88 76 72 73 87 92 96
100 100 100 100 100 97 97 100 100 94 85 81 90 94 77 67 73 79 83 99 100 98 99 99 94 87 86 88 91 93 92 98 100 100 98 92 82 75 84 94 92 100 93
100 100 100 100 100 100 100 100 100 100 92 79 61 54 54 60 66 77 91 100 100 100 100 100 99 100 98 99 100 100 100 100 100 100 100 99 91 88 98 100 100 95 88
76 92 100 100 100 100 100 100 100 100 100 95 82 76 71 58 61 70 81 81 75 92 100 100 100 100 100 100 100 100 100 100 100 100 100 100 99 100 100 99 90 84 83
63 62 90 100 100 100 100 100 100 100 100 99 100 96 89 85 93 89 92 91 92 88 100 100 100 100 100 100 100 96 98 100 100 100 100 100 100 98 97 87 81 79 83
84 71 66 88 100 100 100 100 100 100 100 100 100 100 100 100 91 91 89 92 91 92 100 100 100 100 100 100 100 100 100 100 100 100 100 100 100 100 96 93 88 86 84
100 98 90 87 89 100 100 100 100 100 100 100 100 100 100 100 100 100 100 100 100 100 100 100 100 100 100 100 100 100 100 100 100 100 100 100 100 100 100 96 87 86 80
92 100 100 100 100 100 99 100 100 100 100 100 100 100 100 100 100 100 100 100 100 100 100 100 100 100 100 100 100 100 100 100 100 100 100 100 100 100 95 92 88 80 80

GFSSE_250_rhum_072.txt.gz
RH
72 60 43 45 46 52 60 49 56 50 50 47 45 47 51 50 44 42 36 33 28 36 61 93 87 72 57 37 36 33 28 23 23 20 21 23 23 22 20 19 22 23 26
76 65 51 44 44 42 42 40 45 49 45 43 38 37 39 40 45 39 38 36 35 46 49 75 76 58 46 41 39 37 32 26 24 24 23 23 24 25 21 21 22 23 22
85 81 71 57 48 42 39 38 39 41 35 30 32 33 32 30 32 34 38 40 41 48 48 61 66 55 48 46 43 41 36 32 27 28 26 25 25 25 22 22 22 27 25
71 65 63 57 55 45 41 42 38 37 34 30 30 28 27 30 31 29 30 34 44 48 53 64 68 59 51 48 45 44 41 37 33 32 28 24 25 26 25 25 24 25 28
70 56 48 50 56 52 44 44 38 37 34 29 31 30 31 30 31 29 30 32 44 51 53 62 63 56 53 51 48 47 45 42 40 41 35 27 24 27 25 26 26 26 29
74 69 55 53 59 62 51 47 42 38 35 34 32 36 35 33 30 28 27 37 49 58 58 60 64 58 57 56 50 49 49 49 51 49 41 30 27 27 27 31 31 30 34
75 70 66 73 69 63 49 49 50 45 39 41 40 40 37 34 30 25 27 38 49 58 65 72 68 60 60 58 51 50 49 55 60 55 41 32 29 31 34 36 36 39 40
77 83 74 83 80 63 52 54 54 46 42 42 43 42 39 37 34 26 25 35 50 60 64 67 61 61 62 57 52 51 55 55 60 56 42 37 39 40 39 42 42 45 42
77 82 80 81 90 75 61 57 56 53 48 46 45 46 50 42 37 28 24 30 47 62 60 57 54 48 56 56 55 52 59 55 56 52 44 45 43 44 43 48 44 45 40
75 70 85 73 89 85 77 64 61 54 53 52 58 61 49 46 41 31 26 25 31 43 51 50 50 51 55 56 53 53 56 57 54 47 55 53 49 50 49 48 45 46 44
75 67 75 71 82 89 86 78 66 58 58 61 80 79 63 50 47 40 31 28 27 31 39 43 45 52 52 50 51 60 62 59 52 56 57 56 55 53 53 49 49 51 49
66 65 67 72 74 88 94 93 85 69 67 73 88 91 68 61 57 52 39 33 32 31 32 38 44 48 48 50 55 58 59 59 60 61 59 56 55 50 49 45 54 56 50
66 63 64 73 86 85 92 88 74 73 75 97 100 96 83 82 80 58 57 42 38 39 36 40 46 50 52 53 56 58 63 65 64 62 58 57 53 53 50 55 64 62 56
65 77 74 69 90 82 84 89 77 70 72 74 78 95 92 95 90 78 68 69 58 46 42 43 46 47 53 60 61 63 62 61 59 60 59 56 55 59 62 62 64 67 61
100 96 74 70 70 88 94 93 90 85 73 68 62 59 80 93 91 90 96 87 80 72 66 59 53 49 50 53 54 59 60 62 60 61 63 66 64 70 68 70 82 75 60
100 100 92 98 83 94 100 100 95 89 82 74 74 66 63 63 62 74 88 89 82 77 75 73 72 73 74 69 68 70 70 70 69 69 70 65 68 73 78 81 87 73 70
100 100 100 98 92 100 100 100 100 99 97 90 78 80 78 71 71 70 79 79 76 76 74 68 69 69 69 72 72 70 70 69 68 68 68 75 80 87 82 82 76 73 70
100 97 100 100 91 86 98 100 99 100 100 98 95 84 82 86 83 88 97 98 93 79 80 80 80 82 81 78 74 81 84 82 79 84 90 100 100 99 87 74 66 70 75
100 100 100 100 94 90 95 97 100 96 97 99 100 100 100 100 100 100 100 100 100 100 99 100 89 86 94 98 100 99 93 98 100 100 100 100 84 84 80 72 80 83 86
100 100 100 100 100 99 99 100 100 100 100 100 100 100 100 92 86 82 79 80 96 100 96 99 99 100 100 100 91 100 100 100 100 100 98 89 91 82 82 86 92 94 96
100 100 100 100 99 90 89 100 100 92 98 100 100 100 100 100 100 80 70 64 61 66 84 100 100 100 100 100 100 100 100 100 100 91 94 97 85 86 93 97 100 100 100
100 100 100 100 100 100 94 93 95 99 100 100 100 100 100 100 100 99 100 99 90 81 72 78 93 100 100 100 100 100 97 99 100 100 95 100 90 99 100 100 100 100 97
100 100 100 100 100 100 100 100 100 91 92 99 100 100 100 100 100 100 100 100 97 90 84 82 84 93 100 100 100 100 100 100 100 99 99 100 100 100 100 100 100 100 98
93 97 100 100 100 100 100 100 100 100 100 100 100 100 100 100 94 99 100 100 100 100 99 99 100 100 100 100 100 100 100 94 99 100 100 100 100 100 100 100 100 100 93
88 92 92 94 100 100 100 100 100 100 100 100 100 100 100 100 100 100 86 76 81 96 100 100 100 100 100 100 100 100 100 100 100 100 100 100 100 100 100 100 100 97 86
75 80 83 82 79 84 91 99 100 100 96 97 96 100 100 100 100 100 100 100 100 100 100 100 100 99 100 96 92 99 100 100 100 100 100 100 100 100 100 100 100 94 91

GFSSE_250_rhum_078.txt.gz
RH
56 45 43 35 31 31 30 33 44 52 54 60 67 56 54 53 50 46 40 34 35 33 35 37 40 42 53 58 53 60 62 59 53 48 44 42 38 34 30 29 30 31 29
86 63 54 48 40 40 34 36 37 42 53 52 62 59 47 43 46 39 31 30 30 30 31 32 36 44 47 58 54 58 61 60 56 52 48 46 41 38 35 35 32 32 29
89 90 72 62 52 55 63 56 57 43 41 46 42 46 47 38 39 38 29 29 28 30 31 31 33 47 50 62 59 61 61 57 58 56 52 49 43 36 38 36 34 32 29
61 71 87 90 85 74 71 73 64 53 45 43 43 40 37 35 38 38 33 28 28 30 31 31 31 50 52 64 64 62 63 59 58 59 57 51 44 40 37 34 34 29 28
69 73 85 76 63 67 87 95 79 62 48 40 41 38 37 35 36 38 35 30 32 33 31 29 27 42 48 58 64 63 67 65 62 60 59 54 49 43 40 38 36 33 35
76 85 85 82 75 68 66 71 89 79 60 51 44 44 38 35 35 38 36 34 36 34 34 28 26 35 47 55 60 62 59 56 51 50 51 52 50 47 42 42 42 40 42
78 89 96 88 71 67 69 78 80 64 49 45 48 46 42 39 38 38 40 38 39 38 38 33 26 29 38 52 60 66 61 58 53 50 46 41 40 40 44 47 46 45 44
81 91 100 97 68 68 71 73 74 73 61 56 58 56 49 40 42 42 40 39 42 48 44 39 29 25 29 40 50 54 50 46 48 43 38 40 39 42 50 51 48 46 42
81 86 85 82 74 76 73 76 73 68 67 61 63 62 49 47 46 43 43 43 47 48 43 40 34 29 26 29 32 37 37 46 40 36 40 40 44 49 51 53 54 48 49
87 88 78 80 74 76 82 77 74 78 70 66 69 68 54 54 48 48 46 45 52 59 47 46 43 37 29 28 28 30 32 34 37 38 40 42 51 56 51 51 50 58 63
84 100 94 82 94 100 88 75 68 70 72 69 70 75 68 58 53 50 49 48 60 56 55 56 53 47 39 32 31 31 33 33 36 39 42 44 45 44 49 59 69 67 77
78 91 86 100 100 100 100 94 92 88 78 75 70 74 76 67 63 57 51 53 66 70 61 53 63 48 47 43 40 38 39 39 41 44 48 55 62 65 69 69 66 76 80
78 100 100 100 100 100 100 100 100 94 88 81 78 81 87 80 68 69 68 67 77 86 75 64 78 75 55 43 42 42 49 52 54 60 65 70 74 73 72 70 77 93 91
100 100 100 100 100 100 100 100 100 93 84 83 83 89 96 95 87 86 84 74 88 93 83 61 76 75 64 60 57 59 60 63 68 70 74 82 83 83 82 82 94 94 82
99 100 100 100 100 87 100 100 100 100 96 92 83 92 95 99 96 94 92 80 80 79 80 73 59 61 70 71 72 75 79 80 83 81 88 88 84 84 84 96 100 84 81
97 100 100 100 100 100 87 100 100 100 100 100 97 92 100 100 100 100 99 95 88 80 76 70 73 74 76 75 80 87 96 100 99 99 100 99 88 86 92 100 91 79 91
99 100 100 100 100 78 94 88 99 100 100 100 100 98 100 99 100 100 100 98 97 97 94 87 85 87 88 95 93 99 100 100 100 100 98 92 97 85 97 89 91 100 91
100 100 100 100 100 100 100 78 86 100 88 100 100 100 100 100 100 100 100 100 100 100 100 100 100 100 100 100 100 100 100 100 100 100 100 96 100 100 98 99 98 87 92
100 100 91 100 100 100 100 100 68 58 68 95 100 100 100 100 100 100 100 100 100 100 100 100 100 100 100 100 100 100 100 100 100 100 100 98 95 100 99 98 94 100 100
100 100 85 100 97 100 98 91 80 78 94 99 100 100 100 93 100 100 100 100 100 100 100 100 100 100 100 100 100 100 100 100 94 100 100 99 95 100 100 79 96 100 99
100 98 100 100 90 100 100 100 64 84 100 100 100 100 100 100 100 100 100 100 100 100 100 100 100 100 100 100 100 100 100 100 100 93 99 100 100 87 78 80 94 96 86
100 100 92 100 100 91 100 100 89 79 90 94 96 100 100 100 100 100 98 94 97 100 100 100 100 100 100 100 99 100 100 100 89 81 92 88 78 61 64 81 84 66 72
100 100 100 100 100 73 83 92 84 99 100 100 100 98 98 91 88 81 92 95 99 100 100 99 97 98 96 94 80 64 82 79 91 90 84 80 71 66 60 63 67 71 87
100 100 100 100 90 96 96 82 92 100 100 100 100 100 100 100 100 100 100 100 100 100 100 100 100 99 98 100 99 99 100 88 72 75 82 93 82 84 99 100 100 100 100
57 99 100 100 100 100 91 94 92 100 100 100 100 100 100 100 100 100 100 100 100 100 100 100 100 100 100 100 91 81 83 89 98 100 100 100 100 100 100 100 100 100 100
67 26 58 99 100 100 100 100 100 100 100 100 100 100 100 100 100 100 98 97 72 69 84 77 70 71 79 92 100 100 100 100 100 100 100 100 100 100 100 100 100 100 100

GFSSE_250_rhum_081.txt.gz
RH
38 40 40 47 44 39 32 31 30 31 31 36 43 53 56 52 57 49 47 45 38 30 29 29 28 30 31 38 46 53 55 54 61 59 57 57 56 51 48 38 32 28 27
46 48 58 55 48 44 38 32 33 33 36 36 37 42 47 49 55 49 38 40 38 30 27 27 27 26 30 32 47 51 58 60 63 60 59 59 60 56 49 41 35 30 30
74 72 82 76 67 51 50 47 42 52 51 46 52 40 42 43 38 46 38 36 37 35 28 26 28 29 30 29 48 54 66 64 61 66 63 60 56 51 48 43 32 31 31
81 86 91 91 94 80 64 56 54 60 60 58 58 49 41 40 36 34 34 32 35 34 30 31 32 30 29 29 46 53 60 64 62 61 57 56 51 48 47 36 30 32 34
68 87 96 84 84 82 90 87 87 77 71 78 72 58 42 39 39 35 32 32 33 33 33 34 34 34 31 27 33 44 50 64 68 62 59 57 51 41 36 35 35 36 39
61 75 91 92 89 76 78 85 79 71 70 66 81 69 50 43 39 39 38 36 36 34 36 36 37 40 35 28 28 33 45 55 61 59 51 46 40 36 35 35 37 40 40
53 62 82 92 91 79 94 92 80 74 70 64 75 69 50 43 43 40 41 36 37 37 38 40 42 41 40 33 26 26 32 37 39 43 40 38 35 36 37 38 40 41 39
53 61 68 79 88 94 99 99 95 81 68 68 72 70 62 54 47 46 39 40 40 40 40 43 43 38 40 36 31 27 26 28 29 30 33 34 36 36 38 41 44 44 48
64 62 55 73 79 92 100 96 83 71 70 72 74 70 65 60 52 54 44 44 43 43 44 49 51 45 40 44 40 33 29 29 31 31 33 34 36 39 43 50 58 64 68
84 72 88 67 66 74 80 99 90 67 75 72 71 70 75 64 58 61 53 51 48 48 48 52 56 51 49 51 46 40 37 35 33 32 35 39 46 50 57 64 70 72 70
100 100 100 100 81 72 82 98 98 76 75 77 75 72 71 74 74 70 66 59 53 51 49 52 61 72 58 52 60 42 33 35 39 41 46 52 57 63 68 72 74 68 69
100 97 89 99 100 89 95 98 97 97 97 87 77 71 74 77 75 77 78 69 65 62 63 62 74 84 79 64 67 74 65 57 56 56 56 62 72 78 78 81 83 82 86
87 81 100 100 100 100 100 100 100 100 100 100 93 85 78 87 88 81 81 83 70 69 74 72 74 85 90 79 67 71 68 68 74 74 84 87 87 86 86 90 98 100 94
81 87 100 100 100 98 98 96 100 98 100 100 100 100 87 86 87 98 91 88 81 76 79 80 75 80 78 73 66 65 68 76 81 91 93 97 100 99 100 98 100 100 100
93 99 83 82 99 87 98 100 100 89 83 100 100 100 100 98 92 90 99 99 93 90 89 89 82 80 82 84 81 76 75 81 99 100 100 100 100 100 100 100 100 100 100
100 84 69 78 96 100 100 100 100 81 100 100 100 100 100 100 100 100 100 100 100 100 100 99 94 87 88 90 92 98 99 100 100 100 100 97 100 100 100 100 100 100 99
100 100 92 100 100 100 100 100 74 57 83 100 100 100 100 100 100 100 100 100 100 100 100 100 100 100 97 99 100 100 100 100 100 100 95 100 99 95 90 86 86 100 95
100 100 100 100 100 100 100 93 84 57 64 100 100 100 95 94 80 84 85 96 100 100 100 100 100 100 100 100 100 100 100 100 100 100 93 95 90 86 83 95 77 75 78
100 100 100 100 100 100 100 100 100 68 66 84 89 100 100 92 83 93 95 100 98 97 100 100 100 100 100 100 100 100 100 100 100 99 99 96 96 91 71 80 95 90 92
100 100 100 100 100 100 100 100 99 93 92 73 76 95 96 66 78 80 99 97 100 92 82 98 100 100 100 100 100 100 100 100 99 100 96 87 99 96 95 98 95 98 94
100 100 100 100 100 100 100 100 100 100 100 79 77 72 64 43 84 100 100 100 100 100 100 100 100 100 100 100 100 100 100 100 92 88 97 99 73 82 97 84 81 92 78
100 100 100 100 100 100 100 100 100 100 100 89 100 100 88 65 80 77 92 93 99 100 100 100 100 100 100 97 83 87 100 100 100 100 99 96 95 74 71 79 75 78 85
100 100 100 100 100 100 100 78 96 100 100 100 100 69 94 72 76 100 99 100 100 100 100 100 100 100 98 91 69 70 73 98 99 93 100 100 81 83 90 77 91 91 100
100 97 92 100 98 100 100 100 86 100 100 100 100 100 100 100 100 100 100 100 100 100 100 90 59 58 58 66 76 84 80 98 100 100 100 100 100 86 100 100 100 100 100
100 100 100 86 98 91 100 100 100 100 90 100 100 100 100 100 100 100 100 100 100 100 100 100 100 88 65 53 55 59 81 94 98 100 91 100 100 100 100 100 100 100 100
100 100 100 100 100 95 100 100 100 100 100 100 100 100 100 100 100 100 100 100 99 95 100 100 98 94 84 55 63 77 85 74 65 73 91 100 100 100 100 100 100 100 100

GFSSE_250_rhum_084.txt.gz
RH
69 60 54 47 42 36 45 46 39 30 31 31 32 30 35 38 48 50 52 56 43 38 38 33 29 26 26 26 28 29 40 42 49 60 57 62 61 55 50 45 41 36 29
87 75 61 49 41 38 38 44 42 36 32 33 33 37 37 37 35 39 43 41 46 37 34 35 31 28 27 28 28 26 37 44 47 62 60 57 56 52 46 40 36 32 30
83 80 78 58 43 44 48 52 46 44 40 38 48 56 48 51 46 35 36 35 35 35 31 32 30 29 28 30 31 28 29 34 42 49 58 56 50 44 37 33 31 30 30
71 86 86 78 59 48 61 58 60 54 52 50 55 56 54 57 57 41 38 34 33 30 31 30 31 31 32 33 34 31 28 28 34 42 50 48 44 40 38 32 33 33 33
80 74 68 80 85 66 69 67 76 76 64 62 66 62 59 66 67 48 44 36 35 34 36 35 34 34 35 40 38 36 28 26 28 34 35 35 37 36 35 34 36 35 35
75 74 69 78 90 89 80 74 73 77 74 78 75 62 62 55 57 60 44 38 37 39 38 38 37 38 42 44 41 38 32 26 26 28 29 31 34 31 30 34 36 41 47
79 72 72 63 63 82 86 81 84 82 71 79 71 71 66 64 61 57 47 46 40 40 37 38 40 41 47 46 40 39 36 32 27 27 27 28 28 30 33 36 43 49 50
72 80 67 63 60 65 78 91 94 88 80 87 91 82 58 61 67 66 59 53 47 45 41 41 42 42 50 54 47 40 42 42 36 33 32 31 32 38 44 46 49 55 59
75 63 73 62 66 64 63 85 93 94 86 89 85 75 53 60 61 64 64 57 50 47 49 46 45 47 48 58 58 47 50 47 40 36 37 40 42 46 52 58 67 71 71
64 73 68 66 72 73 69 78 90 97 100 87 84 67 62 64 62 67 68 65 60 57 53 51 51 51 49 58 80 84 61 64 72 72 62 61 64 68 76 77 72 74 77
76 75 87 85 74 71 81 73 76 84 86 80 75 76 68 76 74 66 64 65 64 65 62 59 56 54 59 63 69 75 71 60 64 67 71 76 78 81 86 85 82 82 90
99 100 100 100 100 100 100 88 83 86 70 65 80 91 96 89 81 71 70 70 74 74 66 66 67 69 69 70 70 69 74 72 65 67 72 81 91 98 92 83 87 98 100
100 100 100 100 100 100 100 99 100 99 91 95 100 100 100 100 95 78 78 78 74 75 78 73 70 69 84 86 79 73 72 74 79 78 78 81 95 100 100 98 92 90 93
98 100 100 100 100 68 96 100 100 100 100 99 99 91 99 89 99 100 100 90 78 87 90 87 81 72 72 77 89 96 92 94 93 90 92 100 100 100 92 91 92 87 85
100 100 100 100 88 73 88 100 100 100 100 100 98 89 70 69 95 100 100 100 95 88 84 91 100 100 99 99 100 98 100 100 99 100 100 100 100 99 96 96 85 86 77
100 100 100 100 63 97 100 100 100 100 91 80 80 78 77 72 84 98 92 100 99 92 91 98 100 94 98 99 100 98 95 92 94 100 100 100 100 100 97 95 97 89 89
100 100 95 100 80 93 100 100 100 100 89 86 88 55 63 71 68 69 90 97 100 89 99 94 84 89 91 86 84 93 100 100 100 98 100 100 100 91 90 93 98 73 73
100 100 100 99 78 80 100 100 100 100 100 88 89 54 44 54 59 74 100 100 100 100 95 100 92 100 100 100 100 100 99 100 100 97 99 100 100 99 95 94 87 94 100
100 100 99 100 100 100 100 100 100 100 99 100 88 57 46 62 61 67 82 100 100 100 82 79 93 91 92 95 99 100 96 98 100 100 100 100 94 97 99 96 99 100 99
100 100 97 100 100 100 100 100 100 100 100 100 89 64 52 54 81 99 100 98 100 92 80 68 76 100 94 97 96 84 92 99 99 100 93 87 74 90 83 80 100 92 92
100 95 98 82 100 100 100 100 100 100 100 100 100 84 53 39 41 69 91 92 79 91 81 64 68 91 98 100 100 100 100 100 98 100 91 64 58 62 74 86 100 88 78
100 100 100 100 100 100 100 100 100 94 98 100 100 100 100 93 66 48 71 70 73 68 83 72 69 100 94 100 81 80 63 72 84 78 66 63 67 73 60 73 92 92 95
100 100 100 100 100 100 100 100 100 100 100 100 100 100 100 97 82 70 65 83 73 81 79 67 68 71 59 50 67 73 68 78 77 64 67 62 58 59 52 74 72 85 89
100 98 100 100 100 100 100 100 100 100 100 100 100 96 94 100 100 93 99 98 84 78 70 90 71 81 93 79 68 66 57 76 65 80 86 72 71 73 79 72 68 74 99
100 100 100 100 100 100 100 100 100 100 100 100 100 100 99 100 100 100 100 100 100 100 100 100 100 95 89 94 100 94 97 89 93 86 100 89 97 87 100 100 100 100 100
100 100 100 99 96 100 100 100 100 100 100 100 100 98 100 100 100 100 100 100 100 100 100 100 100 100 100 100 100 100 95 79 88 84 79 100 100 100 100 100 100 100 100

GFSSE_250_rhum_087.txt.gz
RH
67 67 54 53 52 50 53 40 38 43 42 30 28 30 26 30 30 34 34 39 38 42 46 42 34 33 29 27 25 26 28 28 32 38 44 51 51 50 45 39 32 28 28
92 85 75 62 62 56 53 41 37 35 40 40 32 32 34 36 36 38 38 33 36 38 33 35 32 32 30 28 29 31 32 30 29 32 38 46 47 41 35 31 30 30 31
97 91 85 80 72 65 58 50 41 38 41 42 38 36 42 51 54 47 51 44 37 37 32 31 28 30 31 33 33 34 36 33 28 26 32 37 36 34 30 28 28 31 33
94 97 80 90 88 73 68 56 43 42 49 50 48 47 47 53 57 57 56 55 41 36 36 33 31 32 32 35 35 41 41 38 31 25 26 28 27 28 26 26 30 32 36
94 91 79 71 89 79 76 69 52 44 55 58 68 59 58 59 59 57 60 59 53 41 38 35 34 33 34 37 39 45 35 37 35 29 26 26 26 26 26 30 35 39 41
98 97 93 74 77 80 76 70 76 60 60 61 76 73 73 71 55 56 59 57 56 48 43 41 38 36 38 38 43 43 41 37 38 38 31 29 29 29 32 41 46 49 54
93 100 100 90 74 75 80 67 65 70 69 64 58 71 63 68 68 66 59 63 61 59 53 46 45 41 42 43 43 43 47 44 44 45 42 39 38 40 44 47 52 61 63
99 98 100 95 92 83 80 71 57 61 64 70 75 82 70 76 73 66 52 59 67 63 56 52 47 44 46 47 47 46 54 60 53 70 76 79 68 65 67 69 71 68 63
98 93 96 87 84 86 81 74 68 71 76 70 83 86 86 81 78 64 53 56 62 63 59 57 51 46 49 50 50 51 63 65 62 56 62 68 66 66 67 66 72 78 73
85 92 87 78 82 84 78 79 74 80 89 81 78 84 90 100 80 70 63 64 64 64 59 62 62 55 52 52 52 55 60 63 66 65 56 53 54 53 64 67 88 94 91
87 93 81 83 95 96 78 75 82 77 82 90 92 89 90 92 76 74 71 70 75 62 61 59 63 62 60 60 63 64 64 62 63 68 69 68 70 72 72 94 100 92 80
100 100 100 85 98 98 79 84 89 81 89 90 94 91 77 70 70 73 83 88 85 72 72 60 58 60 67 67 65 65 72 75 79 77 75 78 78 79 98 100 100 94 83
100 100 100 100 100 99 95 100 100 96 100 100 100 88 79 76 94 100 99 92 95 82 79 75 66 66 64 76 79 79 78 89 92 96 91 83 81 99 97 96 97 91 83
100 100 100 100 100 100 100 100 100 100 100 100 98 92 100 100 100 87 66 76 84 96 94 90 76 86 81 74 87 93 98 95 99 88 80 77 84 82 87 100 97 83 66
100 100 99 100 100 97 100 100 100 100 86 85 99 100 100 100 100 95 73 62 57 45 70 96 98 88 85 88 100 93 91 84 72 70 65 62 74 76 87 82 75 73 76
100 100 100 100 88 99 100 100 100 79 70 84 92 96 100 100 100 92 72 63 52 47 52 76 77 95 98 93 97 94 84 76 76 65 78 90 91 93 96 91 85 93 67
100 100 100 100 76 100 100 100 71 58 72 77 100 100 100 100 99 78 53 36 38 48 56 75 100 100 100 98 80 87 78 85 69 65 70 78 83 98 87 100 100 84 64
83 100 100 80 89 100 100 100 72 68 82 100 100 100 100 93 76 60 42 30 36 45 55 78 100 100 100 100 95 77 75 50 54 66 64 71 76 88 98 90 91 79 75
100 100 100 94 100 100 98 100 98 60 83 100 100 100 100 100 88 86 74 41 55 64 93 98 100 100 100 100 100 100 88 79 54 59 75 76 93 91 80 91 99 82 66
100 100 100 100 98 100 100 100 100 100 90 99 97 100 99 100 85 72 73 68 43 54 92 100 100 100 100 99 87 87 75 56 60 59 65 54 57 64 68 87 84 69 78
100 100 100 93 100 100 100 100 85 93 94 98 100 100 100 100 94 96 100 90 62 50 47 68 94 98 84 74 72 64 49 35 53 53 53 42 42 56 54 69 68 69 67
100 100 100 89 100 100 100 100 100 98 76 68 99 100 100 100 100 87 96 100 91 68 52 49 39 35 37 43 44 36 30 33 48 42 39 36 42 48 45 42 50 44 52
100 100 100 100 100 100 100 100 100 98 77 91 98 100 100 100 100 100 99 96 96 95 70 49 40 38 38 32 29 30 34 30 32 36 50 49 60 66 65 60 71 72 87
100 100 100 100 100 100 100 100 100 100 100 99 100 99 90 74 89 100 100 97 87 92 85 83 92 86 82 69 43 42 35 48 55 52 54 80 83 68 94 81 89 100 100
100 100 100 95 100 100 100 100 100 100 100 100 100 100 100 100 100 98 100 98 91 86 100 100 100 100 96 100 88 88 72 84 87 80 98 87 100 100 98 100 100 100 80
100 100 91 100 100 100 100 100 100 100 100 100 100 100 100 100 100 100 100 100 100 100 100 100 100 100 100 100 100 100 96 98 88 100 100 94 100 99 100 88 100 96 98

GFSSE_250_rhum_090.txt.gz
RH
80 74 84 73 55 48 45 46 44 60 45 40 41 32 26 26 26 31 30 32 40 37 36 39 33 33 33 30 29 28 30 31 33 30 27 30 38 42 35 31 27 27 28
93 84 86 89 64 62 48 50 46 43 40 36 35 33 29 31 34 38 39 43 46 45 39 37 32 31 28 28 29 30 32 37 37 34 27 25 30 32 28 27 25 27 31
92 92 86 97 85 73 59 57 58 50 42 39 36 38 37 35 39 50 55 54 54 58 42 36 36 34 31 32 31 32 33 38 36 38 30 25 25 25 24 25 28 32 37
100 100 93 91 95 90 77 67 66 62 51 43 37 42 46 46 45 49 56 59 63 65 56 41 39 36 34 35 36 37 39 40 32 36 34 29 26 26 27 28 36 43 47
97 100 100 91 93 97 87 76 77 74 63 54 40 49 57 65 64 58 63 66 64 53 57 50 44 42 38 35 37 39 40 37 39 37 38 38 34 33 35 37 44 48 56
100 100 100 96 89 98 96 81 82 87 79 66 54 50 65 75 71 71 69 59 58 57 63 56 52 48 40 36 38 41 42 39 42 41 48 53 63 61 55 56 57 55 54
100 100 100 100 100 100 100 97 81 86 86 71 66 64 63 65 62 74 71 69 67 56 64 70 60 49 45 42 40 42 45 44 49 50 55 62 62 62 57 54 47 47 52
92 98 99 92 100 100 100 100 96 85 83 76 62 57 56 64 70 71 73 79 75 56 59 60 61 54 50 46 44 45 48 46 56 63 53 44 44 49 47 46 50 53 73
82 84 96 78 92 100 100 100 100 88 88 87 75 71 66 65 68 87 72 74 78 61 60 60 63 60 58 53 48 50 50 51 53 58 61 58 52 50 51 56 58 64 100
72 63 68 82 94 85 83 91 100 99 86 86 85 82 85 79 80 73 93 95 81 68 67 69 62 62 58 58 56 53 57 58 60 64 74 76 74 72 71 69 67 100 90
95 96 88 74 85 87 76 70 84 95 90 87 86 88 84 91 76 83 88 86 82 73 65 76 65 65 62 61 59 62 62 62 63 64 69 74 77 77 74 75 80 79 82
98 100 100 100 78 92 90 78 81 85 93 90 91 100 100 97 97 88 91 77 77 70 97 91 76 73 70 65 61 63 66 74 76 74 74 77 79 66 63 58 57 65 71
100 100 100 99 94 99 100 99 97 90 100 100 100 98 100 96 98 100 86 79 94 100 91 88 79 81 84 86 80 73 71 63 68 92 87 72 53 50 54 58 58 72 67
100 100 100 100 100 100 100 100 100 100 100 100 98 91 100 100 100 100 80 99 100 83 64 58 55 57 63 80 93 94 96 92 99 86 78 65 55 65 62 62 70 69 62
100 100 100 100 100 100 100 100 100 100 100 100 100 100 100 100 95 92 95 100 100 83 61 54 43 30 36 50 74 72 89 84 91 70 78 71 61 58 54 56 59 63 57
92 100 100 100 100 88 100 100 100 100 100 100 100 100 100 96 81 85 100 100 99 77 74 55 44 45 43 55 64 78 77 92 85 76 70 82 62 60 45 40 61 74 66
100 100 100 98 100 100 100 100 100 100 100 100 100 100 100 89 70 67 91 95 78 70 62 56 41 44 52 61 74 94 84 97 100 95 85 60 79 62 60 51 69 57 47
100 100 100 100 100 87 100 100 100 100 100 100 100 100 76 74 70 72 87 88 81 88 70 43 40 33 45 83 100 98 100 99 100 81 63 64 70 56 58 47 48 48 43
100 100 100 100 100 100 100 100 100 100 100 100 100 93 83 69 66 100 100 100 100 97 81 62 52 46 50 58 70 94 97 92 70 80 80 68 64 52 58 52 48 43 40
100 100 100 100 100 96 100 100 100 100 100 100 100 92 84 82 100 100 100 91 83 70 66 81 67 55 54 39 51 74 92 81 76 90 83 59 54 41 39 37 42 32 31
100 100 100 100 81 100 100 100 92 90 100 99 100 93 98 86 90 96 100 100 98 88 88 78 89 92 74 55 49 37 36 45 54 48 39 36 31 30 34 36 27 34 39
100 100 100 100 92 96 100 100 100 86 100 100 100 100 100 100 100 96 100 100 100 100 96 82 91 99 98 74 46 46 44 36 34 24 22 23 25 31 31 31 34 54 55
100 100 100 100 100 97 100 99 100 92 94 100 100 100 100 100 93 98 100 100 100 100 100 100 94 100 97 75 54 41 38 34 42 26 34 48 48 62 55 53 62 56 62
100 100 100 100 100 100 99 100 100 100 90 70 78 100 100 94 72 96 100 100 100 100 100 100 100 90 74 56 49 55 61 43 50 52 72 67 67 78 67 82 66 66 74
100 100 100 100 100 100 100 100 100 100 100 85 97 100 100 100 100 100 100 100 100 100 100 100 100 100 100 100 85 80 99 100 100 100 100 89 84 88 100 90 100 82 80
100 100 100 100 100 100 100 100 100 100 100 100 100 100 100 100 80 87 72 68 64 76 89 99 100 100 99 100 100 100 100 100 100 70 93 100 100 77 72 76 60 90 87

GFSSE_250_rhum_093.txt.gz
RH
80 78 74 76 72 69 59 45 43 43 42 43 62 50 44 32 27 27 31 32 35 40 44 39 36 35 31 30 28 28 28 29 30 34 32 28 24 22 23 24 24 24 29
85 88 88 75 72 82 82 59 48 46 47 43 43 35 36 35 32 34 39 46 52 53 56 59 45 35 33 34 31 32 31 32 33 35 29 32 27 24 25 24 25 29 36
82 98 92 82 81 78 84 76 59 53 49 49 44 37 33 37 40 39 40 48 58 62 66 68 58 41 39 35 34 34 34 35 37 36 28 31 31 26 27 28 29 37 43
82 100 100 99 91 88 86 91 73 69 57 57 56 43 39 37 44 51 48 49 55 63 66 62 56 55 47 43 38 36 36 39 40 39 32 33 37 37 35 34 33 42 45
90 93 100 100 100 99 90 95 94 85 75 62 65 61 53 41 51 66 72 73 69 70 59 59 56 55 55 54 44 40 38 41 44 40 41 44 52 48 48 42 54 52 44
70 99 100 100 100 96 98 93 96 90 91 78 72 75 72 52 48 64 79 80 75 62 61 62 61 64 66 57 48 44 40 43 46 47 58 48 58 54 54 56 49 49 49
57 82 100 100 100 96 99 96 94 90 94 94 90 82 86 72 65 55 66 66 71 67 61 62 56 58 52 57 52 48 44 44 46 47 56 62 57 51 44 49 48 47 52
52 67 79 100 100 100 100 100 86 86 98 96 86 81 87 75 70 65 72 73 73 74 66 63 57 58 59 56 56 56 49 47 50 50 52 57 59 53 54 55 59 58 55
30 44 56 86 100 97 97 100 100 99 88 92 85 82 80 82 77 70 83 82 82 82 77 63 63 58 65 55 57 60 62 52 52 54 57 62 62 59 60 66 70 68 66
17 35 40 74 93 100 100 100 100 100 84 74 93 92 83 83 88 83 83 89 83 84 86 89 67 64 61 64 54 59 62 64 62 63 64 63 64 65 64 67 61 57 53
19 56 75 66 75 98 100 100 90 86 100 99 91 92 97 88 81 86 87 90 90 82 77 78 65 62 64 77 63 60 63 61 61 66 68 68 62 64 65 62 56 49 43
83 48 62 72 89 81 85 94 90 85 90 94 98 80 81 90 89 82 96 97 89 97 81 74 66 81 100 81 67 67 69 73 68 71 71 65 68 77 71 60 55 55 43
92 98 62 72 100 100 87 71 74 77 70 90 100 82 81 86 76 90 100 100 94 83 81 78 85 99 70 62 76 95 90 64 67 69 61 65 94 88 68 69 67 53 48
100 100 52 77 87 100 94 99 100 100 85 77 93 98 96 91 99 100 93 97 100 100 82 83 100 77 62 58 45 43 42 50 75 74 64 62 72 72 62 74 65 63 57
100 100 94 76 100 100 89 100 100 100 100 91 89 91 94 96 100 100 96 100 100 88 81 97 100 79 67 60 46 39 37 40 46 55 60 61 69 82 78 76 79 67 63
30 40 93 92 100 98 100 100 100 100 100 100 100 100 100 100 100 100 100 100 97 91 81 81 76 72 72 65 58 47 49 48 49 69 88 90 88 75 79 78 62 61 55
27 100 100 100 100 95 96 100 100 100 100 100 100 100 100 100 100 100 100 96 97 95 87 78 71 65 78 75 72 38 30 28 37 58 87 96 82 88 71 82 86 79 60
41 99 100 100 91 94 100 100 100 100 100 100 100 100 100 100 100 100 100 98 89 66 76 78 68 68 85 88 62 48 43 42 46 71 64 58 47 43 44 75 79 71 42
99 100 100 100 98 100 98 100 100 100 100 100 98 100 100 100 100 99 98 97 91 69 66 71 87 100 100 77 72 73 67 58 50 38 37 45 54 47 54 78 69 39 28
100 100 100 100 100 100 94 100 100 100 100 100 100 100 100 100 100 100 97 98 88 76 91 100 100 100 96 94 88 80 87 77 65 60 52 40 33 26 30 26 25 22 22
100 100 100 100 100 96 100 100 100 100 100 100 100 100 100 100 100 100 100 100 98 97 100 100 100 100 100 94 100 84 81 86 85 64 58 47 43 40 30 24 22 24 25
100 100 100 100 100 100 100 100 100 100 99 100 100 96 100 100 100 100 100 100 100 100 94 100 90 100 95 99 100 99 83 86 78 70 64 52 46 34 26 25 30 40 54
100 100 100 100 100 100 100 100 100 100 100 100 100 100 100 100 100 100 100 100 100 100 100 100 100 96 100 98 99 88 78 65 77 58 68 49 35 32 29 32 62 51 72
100 100 100 100 100 100 100 100 100 100 100 100 100 100 100 100 100 100 100 100 100 100 100 100 100 90 84 100 95 83 86 60 90 55 45 53 38 29 82 78 97 88 86
100 100 100 100 100 100 100 100 100 100 100 100 100 100 100 100 100 100 100 100 100 100 100 100 100 78 66 98 100 90 98 69 56 51 86 83 67 100 96 97 91 100 94
100 100 100 100 100 100 100 100 100 100 100 100 87 86 100 100 100 100 100 100 100 100 98 100 100 100 100 100 94 78 66 65 62 79 100 87 92 98 100 74 100 96 92

GFSSE_250_rhum_096.txt.gz
RH
73 76 84 68 63 57 55 54 49 45 44 48 48 47 49 62 54 36 32 31 33 37 43 46 46 49 39 35 33 32 30 31 31 32 31 28 26 27 24 23 24 25 29
69 69 84 90 77 75 73 71 64 56 47 44 43 43 44 48 44 38 38 37 44 54 60 57 53 52 48 39 39 36 32 32 33 35 36 32 27 26 25 24 24 25 31
87 59 69 92 85 82 77 67 77 79 66 51 46 46 46 39 36 37 43 45 44 49 56 60 60 58 51 49 46 43 40 36 33 36 38 32 28 26 27 28 28 29 39
91 64 64 70 99 93 87 75 68 80 79 66 56 51 54 47 39 37 42 57 53 56 60 65 66 52 54 52 52 49 44 38 38 37 40 36 35 31 31 32 32 33 42
60 46 58 60 74 100 89 86 77 72 85 81 68 66 58 61 53 46 46 64 76 76 70 65 59 58 54 56 59 54 46 43 39 42 42 44 46 42 44 45 45 44 47
67 52 47 46 56 99 100 99 92 80 72 85 81 76 68 66 70 69 47 56 71 75 76 66 62 64 56 51 54 55 51 49 48 44 46 47 52 61 52 42 37 45 50
52 55 52 45 44 77 100 100 100 95 72 82 81 78 79 76 73 70 69 61 57 70 74 66 61 63 63 51 53 54 58 57 56 51 49 50 51 55 60 59 57 57 52
26 41 51 45 52 58 90 99 100 94 82 68 74 78 79 72 67 72 68 66 66 75 86 80 72 63 65 58 61 63 54 57 62 59 53 54 54 57 61 62 63 61 55
17 19 18 32 50 60 80 93 100 100 89 70 66 60 83 81 72 62 64 68 66 73 84 93 80 69 63 64 61 67 66 57 61 65 66 61 63 62 60 60 60 58 61
42 27 28 26 41 50 63 91 84 99 100 98 66 54 67 69 80 74 65 72 79 76 78 78 76 65 64 62 62 61 71 68 59 62 65 62 57 58 60 62 64 67 68
32 52 30 17 30 41 56 73 95 80 85 98 100 84 100 66 63 88 80 68 77 86 82 81 81 68 60 64 62 91 83 78 58 60 56 56 53 53 55 59 83 83 73
12 22 32 30 75 76 74 71 74 94 98 82 100 98 100 96 92 90 85 84 73 81 86 96 93 76 58 57 56 72 81 68 66 66 79 62 59 62 65 76 91 78 71
9 12 22 100 100 100 87 72 66 59 90 100 100 95 97 94 100 92 90 74 75 70 94 100 100 99 84 70 67 62 65 63 61 57 48 43 62 71 78 68 74 70 80
7 11 17 72 100 100 100 74 84 74 79 88 100 89 90 99 95 94 92 90 67 73 70 83 89 100 100 88 92 76 78 68 60 49 40 43 50 49 60 64 67 70 62
6 12 16 80 98 100 99 75 68 95 86 83 78 79 94 99 98 97 95 94 79 94 98 100 100 100 100 90 72 58 71 72 65 64 47 38 32 38 48 63 78 88 88
6 12 18 41 94 100 81 80 85 75 83 100 100 100 100 100 100 94 92 93 100 100 100 100 100 100 90 96 67 62 64 78 72 75 47 29 29 30 50 64 54 65 58
7 14 20 96 100 100 100 100 97 82 75 100 100 100 100 100 100 100 100 100 100 100 100 100 100 90 100 79 62 59 58 65 65 84 59 44 43 49 53 45 35 30 35
9 18 22 95 99 99 100 86 100 100 99 100 85 96 95 98 100 100 100 100 100 100 100 99 87 91 85 68 59 65 59 79 96 86 54 64 68 67 64 52 50 46 44
13 25 56 80 100 100 93 100 99 80 84 100 97 100 100 99 99 100 100 100 100 100 99 85 99 100 100 88 77 70 79 100 96 66 72 91 94 81 72 70 64 52 50
17 70 71 100 100 100 100 100 100 100 100 100 100 99 92 91 96 98 100 100 100 100 100 100 100 100 94 91 86 100 98 78 86 96 87 80 97 83 68 63 51 51 44
19 76 100 100 100 100 100 100 100 100 100 100 100 100 100 94 99 100 100 100 100 100 100 100 100 100 97 82 100 100 100 100 100 100 100 98 91 99 80 63 52 46 52
17 87 89 100 100 100 100 100 100 100 100 100 100 100 100 100 100 100 100 100 100 100 100 100 100 100 100 100 100 100 100 100 100 98 81 86 71 60 51 41 52 51 45
17 34 100 100 100 100 100 100 100 100 100 100 100 100 100 100 100 88 97 99 100 100 100 100 100 100 100 100 100 100 100 99 90 72 75 62 62 54 82 67 72 51 37
45 100 100 100 100 100 100 100 100 100 100 100 100 100 100 100 100 100 100 86 100 100 100 100 100 100 100 100 100 100 100 99 89 75 71 69 55 70 83 63 50 50 52
100 100 100 100 100 100 100 100 100 100 100 100 100 100 100 100 99 97 98 94 100 100 100 100 100 100 100 100 100 100 100 78 97 87 56 71 73 94 74 60 70 69 74
100 100 100 100 100 100 100 100 100 100 100 100 96 100 100 100 100 100 100 100 100 100 100 100 100 98 100 100 100 100 97 96 86 94 100 86 80 72 87 75 74 67 60

GFSSE_250_rhum_099.txt.gz
RH
54 76 88 69 54 58 52 47 47 48 41 44 47 50 56 58 54 56 50 37 33 33 37 38 37 38 45 46 38 39 38 37 34 34 33 35 34 27 23 24 24 22 22
45 70 73 82 69 68 59 55 53 53 50 45 44 43 43 40 40 48 45 46 39 41 47 53 52 54 46 47 47 46 45 42 39 39 37 38 36 30 27 25 27 28 28
67 39 62 65 79 72 67 62 65 64 61 56 50 45 43 42 37 38 36 41 45 43 42 48 52 56 57 48 50 48 49 48 43 41 42 40 40 40 36 33 34 38 39
77 44 41 50 60 74 73 69 71 74 75 74 73 63 51 45 44 41 35 38 43 53 50 54 58 61 53 49 48 48 50 50 46 44 45 43 45 43 44 40 41 42 47
70 62 36 44 47 57 78 69 71 73 72 70 74 74 62 55 50 51 46 44 43 58 66 64 57 56 56 53 49 44 46 45 48 45 47 45 44 45 48 49 51 46 46
51 75 37 48 51 50 61 75 75 74 74 70 73 78 80 59 59 53 58 58 53 53 64 61 56 50 50 56 53 46 49 49 47 49 49 48 47 48 48 53 53 56 52
22 46 46 37 49 48 53 58 76 83 80 64 73 73 81 70 66 63 60 63 64 61 58 59 65 60 56 60 60 59 51 55 53 51 53 52 51 53 54 55 58 59 58
19 20 24 32 44 49 53 57 63 86 85 77 79 70 79 92 79 78 71 66 66 68 72 77 80 64 63 66 61 61 63 58 63 61 56 53 54 57 60 59 59 56 58
20 19 16 21 35 44 47 51 62 61 97 100 100 75 64 93 77 78 84 74 70 72 69 71 85 77 66 60 58 56 60 63 64 67 65 56 56 55 57 57 54 54 58
28 32 22 22 29 42 46 44 48 52 65 97 100 100 66 78 70 63 80 85 85 77 73 78 83 82 72 67 59 59 55 56 69 85 75 53 55 57 50 50 56 57 62
43 50 42 25 21 46 55 48 47 48 53 73 100 100 100 80 72 62 69 72 62 83 88 74 83 83 76 82 72 66 57 50 54 74 80 67 63 69 80 62 57 70 65
17 30 63 52 33 26 51 71 39 43 51 66 86 100 100 100 100 96 84 98 72 72 80 80 73 70 87 100 94 94 92 81 62 71 70 72 67 59 49 41 47 49 58
36 26 26 66 72 64 39 45 41 37 44 56 65 85 98 100 100 100 100 100 94 85 98 95 83 70 68 76 100 100 91 91 69 56 60 69 71 58 47 41 40 36 49
56 28 24 22 24 48 53 31 32 30 40 46 52 81 99 100 100 100 100 100 100 87 88 69 85 93 73 72 92 100 100 97 71 74 60 71 64 61 63 40 25 34 39
40 30 15 12 12 16 33 45 42 32 62 81 75 82 89 90 100 100 100 100 98 98 94 92 86 100 100 100 100 100 100 76 66 61 62 61 68 61 63 46 31 33 38
35 31 10 8 10 17 29 93 88 82 87 96 100 95 95 97 88 100 100 100 100 100 96 100 100 100 100 99 100 100 100 87 73 57 52 47 42 62 70 65 42 46 52
29 18 14 8 12 15 22 100 98 79 88 100 100 100 71 84 93 88 96 100 100 100 100 100 100 100 100 100 100 99 83 74 77 68 59 57 54 86 100 73 61 79 73
23 23 16 7 10 16 23 93 100 100 100 100 88 88 84 77 93 100 100 100 100 100 100 100 100 100 100 100 100 82 77 62 90 94 75 68 67 66 92 67 82 86 95
16 12 10 7 11 16 24 96 100 100 100 100 100 100 100 96 100 100 100 100 99 99 99 100 100 100 100 100 99 86 66 87 100 86 84 96 96 75 86 78 85 100 87
13 12 10 8 9 16 26 90 100 100 93 100 100 100 100 100 100 100 100 91 95 86 80 85 99 100 100 100 100 81 94 100 100 95 91 100 100 99 97 100 100 92 72
12 7 6 7 11 22 26 100 100 100 96 100 100 94 100 100 100 100 100 98 100 100 97 100 100 100 100 100 100 72 85 82 84 83 91 98 100 100 100 98 90 73 59
9 6 6 9 16 27 28 66 91 100 100 100 100 100 81 100 97 100 100 98 100 100 92 92 100 100 100 100 100 96 94 100 99 86 99 100 100 100 95 69 69 62 49
7 5 8 9 16 22 88 100 100 100 100 100 100 100 93 100 88 100 98 100 95 100 98 100 100 100 100 100 100 100 100 100 100 100 100 100 100 78 94 98 67 53 66
6 6 9 12 20 19 100 100 100 100 100 100 100 100 99 100 100 100 100 100 100 89 99 100 100 100 100 99 99 76 87 96 93 82 93 83 70 58 58 67 49 72 68
9 9 12 17 25 23 40 100 100 100 100 100 100 100 100 99 99 100 100 100 100 98 100 98 90 88 70 97 100 90 92 87 80 89 92 75 74 98 95 93 76 84 100
12 16 17 22 38 85 100 100 100 100 100 100 100 100 100 87 98 100 96 86 99 100 100 100 100 100 88 100 100 100 95 100 100 100 83 73 84 72 70 67 95 100 87

GFSSE_250_rhum_102.txt.gz
RH
59 62 72 69 63 58 52 49 37 36 35 36 37 37 46 57 50 50 51 47 36 30 28 32 37 41 41 40 38 39 38 39 41 41 38 38 37 35 33 30 29 31 31
47 49 67 64 66 65 54 56 46 43 41 44 40 40 42 40 38 41 41 44 45 37 33 40 46 48 47 46 42 40 39 39 42 45 40 39 39 38 39 37 38 37 37
60 37 49 55 54 62 56 51 54 47 49 50 50 44 41 41 41 39 39 39 42 42 38 40 42 47 52 52 49 45 42 37 40 44 42 41 40 40 43 42 45 44 43
66 50 34 45 52 53 55 57 52 48 52 56 55 53 50 47 46 42 43 42 39 43 50 60 56 56 59 53 54 54 50 42 43 40 41 41 43 44 44 46 51 55 53
50 67 37 30 47 50 57 64 64 60 49 58 68 70 74 65 59 53 48 49 50 53 50 66 76 65 58 52 48 50 50 48 50 49 44 42 42 45 49 53 52 52 54
51 46 47 34 35 46 59 59 57 65 66 55 69 72 66 77 71 55 56 54 58 59 59 52 65 64 62 58 54 56 56 52 50 52 53 51 48 48 50 52 52 53 55
23 50 48 40 37 37 48 62 67 64 73 68 62 74 66 66 76 69 60 59 58 66 68 62 60 65 68 65 53 59 68 66 61 57 57 56 55 52 51 54 53 51 52
23 20 31 35 46 42 42 48 61 70 69 83 73 69 78 72 69 69 68 68 66 66 68 71 72 81 80 81 58 52 55 55 62 61 60 55 63 66 51 49 47 48 50
50 27 19 16 16 31 41 50 53 67 64 69 80 80 88 80 79 64 75 76 75 68 67 71 74 70 69 76 66 60 56 62 55 53 57 62 72 74 61 54 55 60 65
64 46 22 18 16 17 18 30 50 55 66 61 68 80 87 100 98 87 66 71 70 74 79 75 74 76 76 75 74 72 71 76 69 53 58 57 54 62 64 62 67 77 56
77 84 61 23 21 20 17 19 27 40 52 61 68 69 77 100 100 100 86 74 63 64 70 63 78 94 97 85 83 78 94 100 100 93 80 67 59 66 73 66 66 54 48
29 46 74 68 51 31 24 21 18 17 35 56 61 70 61 86 100 100 100 96 82 62 62 80 70 67 88 94 94 73 77 84 100 100 91 84 70 68 61 55 55 60 54
67 48 35 76 90 97 61 30 22 18 28 47 58 56 67 62 97 100 100 100 100 98 97 97 100 97 95 98 88 81 74 72 79 100 100 84 64 59 56 66 60 52 63
64 47 41 28 58 66 78 68 40 21 27 51 52 52 54 68 68 100 100 100 100 100 100 99 100 100 99 92 99 89 80 81 100 97 100 100 80 55 55 50 48 43 56
59 74 57 34 22 40 59 52 59 26 24 34 49 63 64 57 69 87 100 99 100 100 100 87 98 100 100 94 96 93 87 99 100 100 99 100 98 75 70 53 55 54 55
54 56 70 50 20 24 23 43 57 39 44 30 35 42 64 59 62 75 86 92 100 100 100 100 100 100 100 100 100 100 100 100 100 94 86 66 65 66 71 80 67 58 75
46 52 59 40 35 31 34 50 57 57 33 32 43 42 40 51 67 73 86 97 96 100 100 100 100 100 100 100 100 100 100 100 100 99 77 91 68 51 59 68 64 71 76
30 31 37 50 33 37 29 20 32 19 23 21 52 34 31 43 64 86 88 100 98 100 94 100 100 100 100 100 100 100 100 100 100 91 72 96 68 48 74 76 72 68 84
22 26 33 48 48 30 36 29 14 15 18 31 30 28 42 50 100 100 100 100 93 100 100 100 100 100 100 100 96 100 99 100 99 100 87 91 81 84 81 94 76 81 85
18 19 22 31 52 54 43 26 12 14 16 42 74 57 99 92 100 100 100 100 100 100 100 100 100 100 100 100 100 100 99 81 80 92 82 86 68 63 75 66 74 65 89
14 18 21 22 35 44 39 26 14 11 13 35 99 65 87 100 90 100 100 100 100 100 100 100 100 100 100 100 100 100 100 100 100 100 74 71 70 66 93 100 78 73 100
11 14 18 13 21 28 32 28 15 9 21 30 66 66 82 71 69 72 98 100 100 100 100 100 100 100 100 100 94 100 100 100 98 94 74 58 61 69 71 55 59 80 98
10 10 14 17 14 17 26 24 18 13 22 48 90 100 100 100 98 95 100 100 100 100 100 100 97 100 82 100 100 100 100 100 90 68 78 45 48 55 62 62 66 84 99
16 21 19 18 16 16 18 20 18 19 25 32 82 100 100 100 100 77 90 100 100 100 100 100 100 97 77 100 100 100 90 88 84 70 75 62 77 76 74 67 78 99 100
12 14 14 13 12 13 14 16 17 23 22 28 94 100 100 100 100 100 100 100 100 100 100 100 100 100 100 100 99 86 94 86 88 47 53 57 77 97 100 100 100 99 62
8 9 10 9 9 10 10 15 20 22 25 64 100 100 100 100 100 100 100 100 100 100 100 100 100 100 100 96 94 78 81 99 74 84 100 94 100 100 99 100 91 90 79

GFSSE_250_rhum_108.txt.gz
RH
54 57 56 70 59 44 36 33 36 37 35 31 34 35 49 46 44 49 54 53 54 49 40 30 26 27 32 38 41 42 43 44 44 39 41 40 41 42 43 43 44 46 46
53 46 50 61 66 53 43 40 39 40 36 34 32 35 38 36 35 32 44 52 53 47 45 38 34 31 32 37 44 48 48 42 44 45 44 44 45 46 48 50 48 48 49
58 51 49 48 67 65 70 55 50 43 38 35 36 34 37 38 38 41 37 49 46 44 48 47 38 34 36 40 46 52 51 46 43 50 50 48 49 47 50 52 52 53 55
57 55 59 56 54 65 68 74 69 60 49 44 41 40 37 38 40 43 42 38 42 44 45 48 45 39 38 43 50 56 54 48 43 46 51 48 48 49 47 50 58 55 56
42 45 59 62 57 56 56 70 77 74 66 54 47 45 48 42 42 47 48 44 44 45 44 46 47 45 44 44 50 55 56 47 43 44 45 45 46 47 47 50 56 58 48
35 47 56 54 58 62 62 63 65 64 69 75 60 53 49 53 46 48 54 54 53 54 48 51 53 58 53 51 49 52 57 51 46 47 48 49 44 47 52 50 50 56 62
23 26 31 41 47 56 58 64 63 61 63 60 65 63 57 51 53 51 50 56 72 72 65 56 56 57 66 66 60 58 64 65 55 50 55 59 61 55 52 52 49 48 58
28 27 25 26 30 38 47 49 68 70 70 69 59 57 58 60 56 57 54 52 61 78 79 74 61 60 64 76 76 72 70 72 61 61 62 73 80 82 62 63 63 52 57
55 57 28 30 25 22 25 24 48 71 73 75 73 68 66 64 66 64 64 61 58 61 71 84 84 75 74 72 78 76 69 65 68 74 76 71 86 98 97 100 100 86 69
66 89 100 100 100 36 22 22 27 49 66 73 74 77 76 70 68 67 70 64 67 67 60 64 80 84 86 79 74 73 73 72 70 74 79 81 81 77 68 98 100 100 100
35 74 82 100 100 93 88 65 35 25 35 52 63 70 73 74 74 76 75 73 65 70 71 66 68 82 85 89 85 81 85 93 100 99 98 83 70 65 62 78 100 100 81
16 62 84 89 93 95 96 96 84 52 41 28 34 41 64 75 77 77 77 76 75 76 70 69 70 82 88 93 83 79 91 91 80 75 91 70 66 80 83 69 98 100 92
17 32 48 91 90 98 100 100 100 100 92 56 36 26 29 54 82 90 81 80 76 75 77 75 74 84 100 95 84 75 71 74 97 100 100 100 80 82 95 100 100 100 97
25 17 15 42 75 91 100 100 100 100 83 100 84 40 26 25 36 59 75 81 73 74 76 75 73 75 94 100 100 97 94 95 100 100 100 100 94 84 100 100 100 100 100
39 20 20 16 49 52 74 97 100 100 100 99 99 76 27 25 24 25 26 54 85 84 83 79 75 70 74 88 100 100 100 100 93 92 100 92 91 100 100 86 96 89 77
45 44 29 24 21 22 38 65 67 87 68 66 70 93 59 54 33 31 34 24 26 30 58 84 88 76 77 76 80 100 100 97 94 98 100 100 100 100 100 69 68 61 54
45 46 44 30 26 29 22 22 24 59 62 46 45 69 74 58 68 63 67 44 42 29 28 32 75 91 84 92 92 100 100 100 100 100 100 100 100 100 100 100 100 83 76
28 44 50 40 31 32 30 23 20 35 47 25 28 42 66 49 54 87 78 48 41 50 36 26 28 70 75 91 91 100 98 99 100 100 100 100 100 100 100 100 100 64 48
14 23 23 29 26 29 36 26 21 20 24 27 40 40 43 41 32 28 36 55 69 84 51 41 43 40 55 74 69 82 92 100 100 100 100 100 100 100 100 91 62 94 78
10 13 17 17 24 23 28 25 23 22 30 37 47 53 49 37 25 26 51 53 81 82 100 99 72 66 80 74 70 80 98 100 100 100 100 100 100 100 99 90 100 88 63
8 9 12 13 16 20 24 24 24 28 30 32 32 44 37 41 35 42 43 46 63 55 54 52 62 76 65 77 97 88 100 100 100 100 100 100 100 100 95 84 84 69 57
6 9 9 11 12 14 19 24 22 22 25 30 33 39 49 48 53 47 42 36 37 42 54 42 31 31 50 58 90 98 100 100 100 100 100 100 100 100 95 80 80 77 57
4 7 9 8 11 13 16 20 20 24 27 33 40 41 45 38 46 48 53 47 32 43 64 44 33 33 46 88 100 100 100 100 100 100 100 100 100 90 100 78 61 63 61
4 4 6 8 9 11 12 16 21 28 37 46 40 46 43 41 57 50 48 36 38 50 60 56 44 46 58 100 100 100 100 96 100 100 100 100 100 76 91 75 75 81 68
2 4 6 8 8 13 17 20 28 38 42 52 41 47 51 42 41 58 39 52 60 49 58 58 46 67 100 100 100 100 100 100 100 100 100 92 100 100 92 99 100 100 100
2 2 3 5 7 10 23 33 37 37 42 33 42 38 40 44 48 56 54 45 47 50 61 64 39 76 100 100 100 100 100 100 100 100 100 100 100 100 100 100 100 97 97

GFSSE_250_rhum_111.txt.gz
RH
55 58 70 69 65 63 60 59 42 32 30 30 34 30 33 35 55 69 68 60 54 55 54 46 37 29 29 30 36 41 43 46 42 40 43 46 45 45 45 44 46 48 49
59 56 60 64 63 68 68 67 58 40 34 33 34 34 32 36 40 59 57 53 53 56 57 45 42 37 35 31 32 40 44 47 48 42 44 47 46 44 48 46 51 47 47
67 56 49 56 62 63 65 66 66 51 44 44 39 36 35 34 37 39 37 51 49 52 54 45 45 43 38 37 38 39 43 46 49 41 42 48 44 43 46 44 48 54 48
57 67 63 56 60 65 67 65 67 60 67 56 54 44 39 36 35 36 38 41 44 46 47 48 47 47 41 37 37 42 47 45 44 40 37 41 43 46 46 45 47 48 48
38 47 57 60 53 54 66 68 71 71 72 71 66 58 50 43 40 39 38 42 44 44 45 49 50 51 51 45 42 46 50 47 48 48 42 44 49 49 48 57 56 48 46
38 41 49 54 55 56 51 56 73 70 81 81 76 70 67 54 46 44 45 43 46 48 45 47 51 53 59 60 52 53 52 52 52 50 48 48 52 59 66 53 53 58 58
30 31 34 42 50 54 43 60 72 70 71 81 82 82 77 67 65 53 49 47 46 47 47 49 57 59 59 64 67 63 63 65 70 65 57 54 58 67 88 77 78 100 98
30 32 26 25 31 36 46 48 58 64 77 86 80 73 81 81 74 74 65 56 50 51 52 51 54 65 61 61 70 72 70 67 70 76 66 62 63 64 80 94 89 100 100
32 33 35 45 30 32 30 52 60 50 59 64 88 91 79 79 82 74 75 77 63 58 54 59 64 62 67 72 69 77 80 79 74 70 71 74 74 73 64 61 62 74 100
32 40 32 79 100 57 33 41 41 47 59 60 67 85 99 97 90 80 88 93 91 78 67 62 62 72 67 65 79 75 73 76 76 70 68 70 82 98 83 68 86 81 73
25 26 34 47 96 100 87 64 63 47 45 55 45 36 57 91 97 93 84 82 82 80 82 78 71 65 72 72 78 84 78 73 66 70 73 88 97 82 80 75 90 90 100
25 20 25 38 87 98 100 100 98 80 74 76 51 36 38 56 83 99 100 98 99 93 84 76 76 71 70 70 72 83 92 84 82 73 74 72 66 80 94 96 88 81 100
42 28 21 29 72 89 100 100 100 100 100 87 85 89 45 46 46 56 72 81 92 100 96 88 83 80 76 74 72 72 80 100 94 85 80 78 86 100 100 100 85 90 100
55 52 30 25 58 72 97 100 100 100 100 100 100 90 56 43 40 32 32 43 54 69 98 100 100 98 94 86 84 81 75 74 99 100 100 99 100 85 78 97 97 99 100
60 55 32 25 22 54 79 91 100 100 100 100 100 100 100 79 74 75 53 28 27 32 50 85 96 98 98 97 92 89 92 79 75 89 100 100 100 96 96 89 92 100 100
47 58 47 30 21 40 35 71 81 100 100 100 100 100 100 98 91 67 63 34 29 27 26 27 31 32 53 90 92 86 89 92 85 84 91 100 100 99 98 100 100 100 100
29 34 43 34 22 23 29 29 40 80 78 94 99 95 88 94 96 68 78 79 71 61 61 61 61 55 36 32 37 59 100 100 100 99 99 100 100 100 100 100 100 100 100
17 25 29 38 23 20 25 27 24 49 39 55 68 72 70 63 66 46 53 68 73 67 80 89 80 59 50 50 42 32 39 74 88 100 99 99 99 99 100 100 100 100 94
11 16 23 23 32 17 20 18 19 26 32 30 38 48 45 59 59 41 31 37 61 54 64 48 68 77 88 94 74 50 36 32 46 90 100 100 100 100 100 100 100 100 87
9 11 13 20 18 20 12 16 18 16 21 22 28 30 29 42 45 35 30 45 50 49 45 42 67 91 100 100 100 89 82 65 72 67 82 97 98 100 100 100 100 79 69
7 7 8 8 17 14 18 14 16 21 22 20 28 34 27 35 32 26 35 48 50 50 42 46 53 50 82 78 72 60 56 87 96 93 100 100 100 100 100 100 100 100 75
4 5 5 6 8 12 14 17 15 18 18 18 19 25 29 34 37 44 43 43 38 48 43 42 40 42 51 66 65 53 43 52 70 66 100 100 100 100 100 100 100 88 61
4 4 5 5 7 10 12 13 15 13 12 14 20 39 50 46 44 49 41 44 45 39 44 38 38 41 44 46 60 65 44 40 46 72 100 100 100 100 100 100 100 100 93
2 3 4 5 5 7 11 9 11 13 14 16 18 23 29 40 49 59 50 43 43 39 35 42 44 48 49 47 50 73 57 45 48 87 100 100 100 100 100 100 100 96 92
2 2 2 3 4 4 7 9 10 11 14 18 22 31 37 49 50 53 50 35 43 55 55 51 43 56 62 60 67 72 68 52 66 96 100 100 100 100 100 96 94 92 97
1 2 2 2 3 4 5 8 9 10 15 21 27 34 45 51 51 41 38 42 49 47 70 71 82 76 66 76 65 62 61 58 76 100 100 100 100 100 100 92 100 100 100

GFSSE_250_rhum_114.txt.gz
RH
63 58 64 66 72 80 65 62 52 58 55 38 38 37 34 31 33 36 49 61 67 74 70 65 58 42 38 35 30 31 36 39 41 44 40 42 47 48 48 43 50 50 48
52 54 56 61 54 63 68 67 64 65 64 57 38 38 37 34 31 35 44 51 62 71 66 66 64 48 41 40 36 33 36 38 42 45 40 44 45 45 49 48 50 50 44
51 56 54 59 65 59 57 62 64 68 62 61 49 39 40 41 34 32 36 40 38 44 57 62 69 50 48 42 39 37 37 39 45 46 42 39 45 48 47 44 49 49 50
45 55 66 77 82 76 62 61 68 70 67 66 64 50 47 49 43 38 35 35 36 39 43 46 52 51 53 50 45 40 38 42 43 41 45 40 41 46 53 50 56 52 47
39 45 48 59 76 77 72 66 65 66 72 73 69 66 63 57 55 47 44 41 36 36 40 43 41 46 49 55 56 53 47 45 47 49 46 49 46 50 63 72 58 56 69
24 27 33 34 52 69 74 64 62 60 70 68 66 69 75 73 70 63 57 48 45 41 42 43 46 45 46 50 58 66 65 62 55 56 61 56 54 53 63 88 96 91 98
21 21 20 24 38 69 67 73 70 64 56 56 58 69 75 88 82 76 69 66 55 49 46 45 48 47 47 52 56 59 71 75 74 72 65 61 58 52 56 65 85 87 82
27 22 23 25 27 50 84 74 77 73 62 58 64 74 79 80 86 85 84 79 70 64 56 53 49 51 56 54 55 63 63 66 70 71 72 72 66 58 58 62 56 56 67
37 30 26 38 43 26 51 80 92 75 72 70 61 84 77 82 95 89 90 91 92 86 81 75 60 57 54 62 68 65 63 68 66 66 66 65 61 60 59 60 57 61 60
41 37 33 32 48 65 45 30 60 94 80 86 82 68 74 68 80 88 92 100 98 98 91 85 86 80 66 58 63 71 77 77 71 74 68 63 56 52 55 79 88 63 64
40 39 37 35 32 35 100 100 78 58 77 90 91 93 93 81 80 88 79 84 97 100 100 100 100 95 87 79 76 72 71 76 85 89 84 76 66 63 55 72 74 78 90
44 40 35 34 35 36 52 91 100 83 73 92 100 88 73 84 83 86 91 71 80 90 97 94 96 97 97 96 90 82 73 76 77 82 93 100 98 87 80 76 88 100 100
48 44 42 31 31 34 35 57 100 100 100 100 100 100 100 96 83 59 57 58 74 73 75 97 100 100 100 98 95 95 92 83 79 79 76 82 100 100 98 99 100 100 93
57 53 50 43 36 28 31 38 79 98 100 100 100 100 100 98 90 66 43 38 39 46 66 82 91 92 98 99 100 100 100 96 95 94 99 87 80 78 98 100 100 97 92
71 54 46 49 38 31 31 28 52 82 100 100 100 100 100 100 100 95 88 67 48 50 45 40 41 47 66 90 98 100 100 100 100 97 95 93 86 86 83 88 100 100 99
79 58 44 47 47 29 30 30 42 64 87 97 100 100 100 100 100 100 92 91 80 73 76 59 42 35 34 37 51 61 83 90 79 94 100 100 100 94 87 83 89 85 82
69 61 41 46 44 37 28 28 31 59 67 83 89 100 100 100 100 100 100 99 93 82 64 74 59 61 61 58 59 59 57 49 39 37 43 86 100 100 100 100 94 94 96
30 50 45 41 48 43 30 29 31 46 40 73 80 83 100 100 100 100 100 91 90 98 63 81 98 80 77 100 98 78 76 68 61 63 60 44 41 50 94 100 100 97 98
17 16 21 36 42 43 34 25 34 28 31 57 60 78 80 70 69 78 85 78 75 77 67 51 52 58 72 70 70 71 86 100 94 82 82 75 52 39 37 36 56 91 97
16 15 14 12 19 25 31 18 22 25 26 42 36 38 41 68 54 51 63 68 66 58 65 58 46 64 66 60 60 74 95 100 96 86 72 65 65 87 70 77 98 98 100
12 11 12 11 11 13 18 20 14 16 26 27 36 29 25 39 57 39 44 49 52 43 51 56 39 52 60 55 57 61 61 66 87 83 76 70 54 57 77 100 100 100 100
4 7 7 7 8 9 10 13 13 11 14 20 23 24 25 26 29 39 38 46 40 40 37 38 37 40 54 54 46 54 52 50 58 62 57 66 58 45 65 100 100 100 100
3 3 4 5 5 6 8 11 12 11 11 12 18 20 28 22 23 32 34 47 43 48 40 48 51 42 46 51 48 46 44 45 44 60 60 60 67 56 52 77 100 100 100
2 2 2 3 3 3 5 7 10 9 11 11 13 14 16 24 22 27 31 30 52 49 54 51 49 47 46 41 44 41 51 51 73 77 73 72 62 63 63 67 100 100 100
2 2 2 2 2 3 4 4 6 8 10 12 11 13 13 14 16 27 37 38 41 61 54 51 48 48 44 47 42 58 76 82 87 92 79 76 69 65 73 77 85 100 93
2 2 1 1 2 2 3 4 5 6 9 12 13 10 12 15 19 25 37 34 35 50 63 46 41 55 62 55 54 80 90 68 84 82 74 80 67 68 64 77 79 100 100

GFSSE_250_rhum_120.txt.gz
RH
78 70 63 65 59 57 56 72 84 84 94 86 78 64 62 60 48 39 38 37 33 32 34 37 37 38 46 40 48 44 42 36 35 35 34 35 36 36 36 33 33 34 35
84 70 83 78 68 60 58 51 64 69 69 69 81 77 66 63 58 45 39 39 38 35 34 35 36 36 41 45 46 42 40 39 39 36 36 39 40 41 40 41 38 39 38
79 91 88 62 60 59 57 60 59 60 58 65 70 77 80 72 58 53 43 41 42 41 37 35 36 37 37 45 44 40 41 38 39 38 40 46 48 52 47 43 46 45 37
71 64 61 59 57 58 57 55 59 64 65 60 66 77 80 80 76 61 50 44 44 46 45 42 41 42 39 38 46 45 42 43 43 43 46 47 49 56 56 57 51 53 46
58 58 57 61 58 49 49 44 47 54 63 64 74 77 83 77 76 66 58 52 48 52 52 50 48 46 45 41 42 45 48 46 45 47 49 51 54 55 56 55 58 53 58
21 20 22 24 27 36 32 45 62 45 60 63 71 83 84 82 73 70 68 65 59 57 60 58 55 59 58 50 45 47 49 50 51 50 52 54 55 52 53 56 56 56 52
24 21 19 21 20 38 43 49 60 54 45 61 61 87 87 84 76 68 68 72 66 72 72 76 72 61 58 63 59 50 50 55 55 57 59 63 62 60 60 58 54 53 54
32 27 23 23 22 22 62 78 60 74 73 74 66 69 86 85 85 83 76 71 72 64 83 93 87 83 75 67 67 68 62 58 57 61 67 70 69 69 67 64 63 61 58
45 34 28 24 24 22 22 57 95 62 59 86 85 81 78 77 81 77 70 68 72 78 91 100 100 100 95 85 80 78 77 75 76 75 66 76 79 82 86 81 76 76 76
58 51 40 35 30 26 25 24 30 68 45 40 77 96 96 89 84 84 90 84 89 91 87 96 100 100 100 100 95 87 88 90 87 89 89 89 94 96 100 100 100 95 100
57 58 57 49 37 34 29 30 34 30 42 34 38 70 100 100 100 100 99 100 100 99 97 91 99 100 100 100 100 100 100 100 100 100 100 92 87 99 100 100 99 98 97
70 60 62 64 54 42 36 32 29 37 62 79 76 51 61 76 99 100 100 100 100 100 100 93 92 97 96 97 100 100 100 100 99 97 93 100 98 91 96 99 87 87 88
100 94 74 65 65 60 53 39 33 35 32 45 100 98 87 92 68 74 100 100 100 100 100 100 100 100 100 100 99 100 100 100 100 94 81 90 98 95 93 99 100 98 88
100 100 100 84 76 70 69 62 47 34 44 51 35 98 100 100 94 87 96 100 100 100 100 99 92 94 96 100 100 100 100 100 100 100 89 90 96 100 100 100 100 100 99
94 100 100 100 95 75 68 69 58 50 58 51 46 48 97 100 100 100 100 99 76 71 89 96 93 96 90 82 70 70 77 76 64 63 70 78 90 91 85 71 63 68 77
46 55 87 99 100 100 84 73 71 61 51 54 58 36 44 74 90 100 100 100 100 93 94 83 73 90 89 76 82 79 74 74 72 70 57 50 49 48 49 55 60 69 64
44 44 45 49 60 83 100 97 73 65 58 50 56 47 36 37 52 80 97 100 100 100 100 100 100 86 82 93 89 95 97 78 74 67 73 83 100 97 90 68 66 83 77
44 41 39 45 48 44 48 60 82 86 62 54 45 43 65 46 42 48 69 93 100 100 100 100 100 100 95 92 83 84 94 90 63 62 66 51 58 63 65 61 68 75 80
36 40 47 37 34 39 40 42 38 47 66 62 59 55 54 73 60 56 54 52 82 100 100 98 95 100 99 96 90 89 97 86 81 81 66 65 63 63 69 61 62 62 63
35 41 38 38 33 29 32 34 32 32 28 40 58 68 60 45 53 68 80 74 69 86 100 100 95 98 100 100 96 94 92 93 84 71 70 71 67 73 72 70 65 56 56
10 19 27 24 21 24 23 20 22 24 29 26 24 39 64 54 47 61 58 62 66 82 92 93 98 92 91 98 97 94 85 84 97 75 64 62 61 61 69 66 62 69 64
8 8 7 6 8 15 17 18 17 18 22 26 29 26 29 36 52 63 62 51 54 62 66 91 88 91 85 88 80 78 70 64 68 64 59 62 58 49 49 55 61 58 62
8 8 6 7 7 9 11 12 12 12 13 15 19 22 26 25 25 45 47 39 38 46 53 64 77 80 85 84 76 64 65 72 63 64 61 57 62 61 72 65 65 85 73
7 6 5 5 4 4 4 4 5 5 7 10 13 13 14 18 23 24 26 35 41 30 37 42 57 66 60 72 70 60 61 62 66 68 64 59 54 62 63 64 72 85 69
7 5 4 4 4 3 3 3 3 3 3 4 5 7 7 10 17 22 24 28 37 42 42 46 54 60 65 54 61 79 61 58 64 58 74 64 63 92 67 73 67 66 65
5 4 4 3 3 3 3 2 2 2 3 3 4 4 4 6 8 12 21 27 28 34 35 39 58 62 62 62 61 57 65 87 61 57 70 98 75 81 67 96 100 96 88

GFSSE_250_rhum_123.txt.gz
RH
97 89 73 65 58 62 66 80 93 83 84 75 84 78 69 60 62 60 48 40 38 37 36 34 34 33 36 38 36 40 46 41 39 39 37 36 42 43 44 40 37 34 34
82 90 86 70 66 70 71 69 61 55 56 67 62 57 59 68 62 61 52 43 38 40 40 38 36 36 36 39 44 39 42 40 38 38 38 37 44 47 53 53 50 44 42
82 88 100 99 76 70 81 82 74 66 61 56 55 57 58 61 67 64 56 47 42 40 42 43 42 41 42 42 40 44 42 42 41 42 42 46 48 51 50 53 52 52 48
69 66 73 88 99 94 100 75 68 60 61 69 65 61 56 69 72 69 71 66 54 48 43 46 48 47 45 45 45 42 47 46 45 45 46 46 48 53 54 54 58 56 54
25 37 52 66 62 76 82 77 62 62 62 66 79 73 66 66 70 85 86 81 67 58 56 52 53 56 53 50 56 54 46 50 53 51 50 51 54 56 56 57 58 57 54
21 27 46 54 61 68 73 75 77 74 60 56 65 72 82 71 75 82 88 74 72 69 70 69 70 76 72 64 56 56 61 52 52 58 61 60 60 62 64 61 63 58 57
24 22 22 23 22 21 29 36 58 67 67 69 54 72 72 82 82 81 90 88 71 73 82 85 78 77 86 89 78 69 67 67 64 58 58 60 64 70 73 71 72 74 65
29 24 21 23 24 29 26 25 30 45 62 94 91 79 63 75 71 85 84 82 77 76 82 86 82 79 86 96 92 93 84 79 75 79 78 78 80 72 75 84 83 82 78
45 38 30 25 22 24 22 23 26 28 51 90 95 85 92 88 75 65 74 80 79 82 79 83 83 74 81 100 100 99 98 92 87 81 86 84 90 98 99 95 98 100 100
48 49 46 39 36 29 24 23 23 23 28 62 100 100 87 85 89 96 80 74 74 75 74 72 73 81 79 74 93 100 100 100 100 100 97 100 100 100 100 100 100 100 100
53 53 52 50 46 41 36 30 29 26 26 26 31 81 79 55 48 80 100 100 100 98 96 91 94 91 90 81 82 89 97 100 100 100 100 100 95 99 100 100 100 95 84
65 62 58 50 52 51 49 43 40 34 32 28 32 47 46 54 38 58 100 100 100 100 100 100 100 100 97 92 88 84 83 84 83 83 93 94 98 95 85 81 85 89 85
65 80 87 76 71 74 70 61 56 54 48 37 29 30 47 71 95 62 59 81 100 100 100 100 100 100 100 100 100 100 99 99 100 96 95 95 92 89 87 82 69 74 98
72 68 73 91 100 100 87 96 87 73 60 63 53 33 31 31 90 95 95 75 71 76 100 100 100 100 100 94 90 95 98 95 94 88 92 100 100 100 98 92 85 87 92
100 94 87 84 89 100 100 99 85 85 88 73 64 54 44 44 42 58 100 100 98 96 100 100 93 93 96 91 95 96 79 77 67 61 60 64 60 61 65 68 60 52 46
84 82 85 73 72 66 74 100 100 99 88 65 74 62 56 62 56 55 53 96 100 100 98 95 95 90 80 84 78 77 81 81 74 75 81 80 78 76 71 56 70 73 84
71 60 57 67 65 65 57 48 56 86 100 97 77 67 80 74 64 56 59 53 76 98 100 100 100 96 87 85 89 87 72 80 83 100 96 85 84 82 74 68 54 70 62
67 59 51 52 43 42 47 54 45 42 48 72 92 95 91 87 67 60 55 50 46 50 65 81 98 100 100 100 100 100 100 100 93 88 97 97 92 81 75 54 67 61 64
60 55 50 46 41 36 31 40 40 37 41 40 43 49 57 80 88 74 55 56 58 63 54 63 70 90 95 94 99 100 100 100 100 95 94 97 89 74 72 64 64 68 62
40 44 44 41 37 31 29 28 31 35 39 38 34 32 35 36 48 58 65 72 58 68 66 72 60 66 76 89 100 99 100 100 100 94 85 86 88 88 86 73 68 61 59
10 12 16 23 31 30 26 26 26 28 30 34 35 31 32 32 35 44 45 50 72 82 69 67 69 76 93 96 100 100 100 100 100 99 88 96 100 90 90 75 68 65 64
10 10 10 10 11 14 17 23 24 23 22 23 24 28 23 25 25 26 39 45 52 58 77 85 73 73 79 76 83 93 100 100 100 100 95 95 95 98 93 95 88 84 80
10 10 10 9 8 8 7 6 7 8 11 12 13 14 16 14 20 16 19 27 34 44 46 53 67 76 77 66 77 72 91 96 96 96 100 98 100 95 95 98 94 90 77
11 9 8 8 8 7 7 6 6 6 6 5 5 9 11 7 9 14 15 17 23 32 51 50 44 38 58 67 59 65 67 62 71 79 82 90 89 93 83 85 82 90 84
16 12 8 6 6 5 5 5 5 5 5 4 4 4 5 4 5 8 11 13 14 22 33 46 50 41 36 58 77 70 54 58 69 100 58 55 67 85 93 84 90 85 79
8 8 7 6 5 4 4 4 4 4 4 4 4 3 3 4 4 5 8 9 11 15 21 32 40 58 54 50 45 47 76 66 72 75 55 72 48 63 54 87 100 94 65

GFSSE_250_rhum_126.txt.gz
RH
57 58 72 84 84 62 49 43 57 89 82 71 77 63 68 67 64 57 62 64 51 40 40 40 37 36 35 38 40 40 38 42 40 38 38 38 39 43 48 52 48 45 42
61 60 62 77 70 84 62 53 60 64 76 75 60 62 52 48 54 62 61 59 60 50 42 41 42 42 39 40 42 48 42 42 43 41 42 43 47 48 44 47 48 48 47
75 65 75 76 81 70 88 74 62 72 75 69 59 53 54 59 55 52 56 61 61 61 52 47 43 45 47 45 45 45 45 44 45 47 46 47 48 51 54 54 53 49 45
75 86 85 81 82 91 96 98 85 73 88 85 78 65 59 59 58 55 52 53 59 65 64 58 52 48 50 53 53 50 54 49 49 51 51 52 53 53 56 59 58 58 59
40 50 52 42 46 66 96 100 100 93 100 91 82 69 64 65 69 64 62 60 60 73 71 67 70 68 66 65 69 63 60 57 58 52 55 58 58 58 59 60 62 60 58
19 20 21 22 26 27 56 74 74 81 78 90 91 85 75 68 71 83 75 71 68 80 80 70 68 83 86 80 85 88 79 67 64 66 63 57 59 60 61 63 64 66 64
20 20 21 21 43 76 49 57 75 68 68 76 95 94 85 78 70 72 81 77 79 93 90 79 71 69 81 84 90 100 100 90 83 81 74 72 73 77 77 78 75 72 70
24 21 20 22 20 54 45 32 34 43 36 34 46 64 93 80 77 57 74 77 81 89 95 93 76 70 72 74 68 75 86 89 94 92 84 81 79 87 93 87 97 98 87
31 28 26 24 23 32 62 31 29 31 30 26 31 34 52 63 83 84 60 68 81 75 86 87 80 74 68 73 70 67 73 95 98 99 98 92 79 76 72 83 100 100 100
40 38 35 33 34 29 23 24 21 30 26 23 32 33 33 61 89 91 77 76 87 82 83 82 79 75 76 76 75 72 77 76 71 100 100 100 100 100 99 100 100 100 100
51 45 46 45 40 42 43 40 40 40 28 24 23 24 25 28 51 95 93 82 88 90 97 98 92 91 94 96 93 90 90 89 75 80 87 92 97 100 100 100 98 85 83
62 59 56 58 55 48 49 52 48 50 66 69 47 34 27 28 29 29 52 70 52 45 60 93 100 100 100 100 100 100 100 94 87 86 88 80 78 81 82 86 82 89 86
68 68 68 71 72 64 60 63 62 56 66 75 75 84 55 39 34 36 49 61 66 52 64 98 100 94 92 98 97 100 100 100 100 100 100 100 100 100 97 100 100 100 93
77 80 79 73 73 70 62 52 48 54 71 73 67 83 91 91 80 53 38 43 91 87 79 66 81 87 95 97 98 99 93 88 91 95 94 81 83 73 69 71 86 90 76
100 100 100 89 80 73 74 75 76 74 77 73 69 67 73 85 98 100 75 45 55 100 100 99 95 95 98 100 92 81 86 80 76 80 85 81 69 64 63 62 53 54 65
77 79 83 100 100 100 100 100 94 93 92 88 95 100 100 79 80 82 98 88 61 58 74 100 100 97 100 100 100 94 93 96 84 80 77 73 72 62 69 70 66 66 61
57 57 60 58 68 82 92 86 87 90 81 84 76 76 87 89 77 74 74 74 75 78 74 64 74 100 100 100 100 95 100 94 85 83 72 81 84 80 85 85 77 82 76
87 75 71 68 59 54 52 48 52 63 57 58 70 61 63 78 73 67 79 81 62 60 66 75 68 55 94 100 100 100 100 99 100 100 100 96 96 93 94 96 99 97 90
77 89 92 89 78 63 57 47 42 38 38 46 51 49 48 46 56 63 60 61 78 80 73 68 71 75 53 54 64 75 94 100 100 100 100 100 100 99 99 100 90 94 88
48 47 48 49 47 42 43 41 40 39 35 32 34 35 36 33 33 43 46 54 57 67 66 53 52 65 74 79 79 58 52 68 88 100 100 100 100 96 96 86 74 75 82
22 27 30 30 30 35 39 40 40 40 34 35 37 33 28 26 28 26 34 42 46 53 55 48 45 46 48 63 76 80 77 62 62 75 82 100 100 100 100 99 100 91 82
11 10 10 11 12 12 12 11 10 8 8 10 13 20 23 24 24 22 22 27 30 47 51 45 46 50 48 58 51 62 78 82 89 98 88 81 89 98 100 100 100 100 100
12 12 10 10 10 10 11 11 11 10 9 9 8 8 7 10 15 20 21 23 25 30 41 49 55 75 71 81 68 56 50 57 62 92 93 100 100 82 89 100 98 96 99
15 12 11 12 13 13 11 9 9 8 8 8 7 7 7 6 7 8 12 18 21 22 22 31 48 56 100 89 94 75 60 58 59 50 64 84 99 97 100 94 87 100 100
16 16 12 11 10 10 9 8 7 6 6 5 5 6 6 6 5 5 4 5 7 8 11 15 20 39 56 58 85 95 100 81 76 58 61 60 58 77 76 76 68 66 70
23 19 19 18 12 9 7 6 6 5 5 5 4 5 5 5 5 4 4 4 5 6 6 6 8 17 34 52 52 76 93 90 82 91 94 84 84 98 100 88 67 62 53

GFSSE_250_rhum_129.txt.gz
RH
57 47 51 51 52 54 72 79 58 46 66 82 74 53 60 54 54 52 56 60 64 60 45 40 41 40 38 38 38 38 38 40 44 44 42 42 45 47 49 46 44 43 44
58 45 50 53 52 55 91 98 81 58 50 67 83 89 78 62 49 45 49 52 54 57 58 55 47 43 43 44 46 43 42 39 42 47 47 45 46 49 51 54 54 54 53
60 63 59 62 60 57 59 59 86 100 84 69 66 74 68 58 54 57 57 52 49 54 60 58 59 53 49 47 50 51 49 50 47 44 46 49 50 52 53 54 58 62 61
76 78 70 63 64 73 67 81 75 71 98 75 76 68 80 72 65 60 56 54 54 49 54 63 64 60 64 56 53 55 58 57 59 56 50 46 48 51 54 56 56 60 60
64 74 62 58 61 68 80 94 89 82 95 100 90 85 99 99 86 72 67 61 61 61 57 60 65 69 66 67 66 63 66 72 65 60 63 60 54 52 53 54 56 56 58
30 26 21 20 20 40 55 45 52 74 77 99 100 90 88 84 89 86 74 73 72 73 75 72 68 79 73 74 81 80 68 78 76 81 70 67 73 73 66 65 63 64 64
21 20 20 19 17 24 44 66 37 42 46 54 70 71 73 67 65 73 81 85 75 78 79 89 87 90 86 80 82 80 68 80 79 82 85 85 82 74 75 77 86 89 76
27 25 25 21 19 20 23 60 100 85 57 57 65 65 56 52 47 61 66 76 83 81 68 76 89 98 98 80 75 73 78 80 74 68 75 84 87 85 83 81 70 72 72
34 30 30 32 27 22 22 34 85 62 61 55 44 42 34 27 27 35 39 55 74 85 76 62 81 89 95 95 80 73 64 66 69 66 68 83 99 100 100 100 98 95 100
49 48 44 39 36 34 30 26 31 53 44 36 40 51 37 22 30 37 39 44 63 89 94 83 69 78 87 91 86 84 76 74 77 77 75 83 79 76 98 100 100 100 100
58 59 58 56 50 45 42 40 37 36 46 44 42 45 42 32 28 30 30 31 47 75 88 84 91 85 91 95 92 91 95 93 93 93 91 90 92 86 79 80 88 91 90
60 61 62 63 62 58 53 49 47 46 44 46 67 75 75 71 69 63 53 39 32 31 36 72 69 62 58 63 96 99 100 100 93 98 94 88 86 86 89 96 96 97 94
62 58 60 59 61 62 62 60 56 56 54 54 49 59 71 88 93 89 85 76 68 46 36 44 53 53 50 43 67 94 93 95 92 81 74 67 70 75 86 91 97 92 76
66 68 65 61 62 64 67 72 72 69 65 58 56 47 41 68 80 93 100 100 100 100 87 44 37 63 74 72 71 81 85 77 74 68 49 52 66 68 76 77 73 67 58
82 87 89 83 71 70 72 74 76 83 83 77 75 70 67 49 40 46 60 78 90 96 100 100 63 70 86 81 94 99 100 96 86 77 72 68 69 69 69 67 67 58 52
56 60 72 71 74 79 81 88 100 100 100 100 97 95 96 96 90 82 62 47 57 74 88 94 100 85 68 93 100 100 100 100 100 90 88 87 85 89 78 74 61 57 52
42 42 42 44 52 58 62 83 86 80 77 98 100 100 100 100 100 98 86 77 64 50 57 71 87 94 100 96 82 78 100 100 100 100 98 100 95 89 84 73 73 66 65
57 48 45 43 39 51 50 50 49 52 56 60 65 63 71 79 88 78 82 80 78 72 54 55 54 82 86 85 97 99 77 88 100 100 100 99 97 91 89 90 87 86 83
66 62 60 57 62 50 58 75 80 74 62 56 55 56 55 48 43 48 56 64 66 67 73 62 53 50 70 81 84 74 71 69 72 94 100 100 99 100 100 100 100 100 99
34 34 32 32 41 54 46 46 45 46 46 43 42 46 47 45 42 38 36 42 44 54 61 58 53 62 55 53 45 52 71 66 73 71 60 78 76 68 71 74 96 100 100
18 23 24 25 26 29 31 32 32 31 31 32 36 38 38 38 37 36 33 28 28 32 36 46 46 42 43 53 51 57 57 44 40 48 62 73 75 84 74 57 58 80 89
17 14 15 16 15 15 14 14 13 12 12 13 14 14 13 12 14 15 17 19 19 16 17 27 34 43 40 35 50 47 40 51 44 48 51 44 43 58 73 82 84 82 93
17 18 18 17 16 14 13 12 12 14 13 14 12 10 10 10 9 8 8 8 8 7 6 8 16 32 43 41 39 39 38 48 82 80 92 100 88 71 61 64 89 84 90
16 15 15 15 14 13 11 10 11 11 10 10 10 9 9 8 7 7 7 6 6 7 7 6 6 9 26 44 41 41 54 53 88 100 100 96 98 85 70 70 82 70 73
21 19 17 16 14 13 12 12 12 11 11 10 9 8 7 6 6 6 6 6 5 6 6 7 7 6 7 19 41 43 59 91 99 100 100 100 100 93 100 75 85 95 96
36 33 30 27 26 21 17 17 16 14 13 11 10 8 7 6 5 5 5 5 4 5 5 6 6 6 6 7 15 34 44 78 100 100 90 100 100 100 100 100 98 86 92

GFSSE_250_rhum_132.txt.gz
RH
51 44 48 46 47 71 63 47 56 75 80 59 70 74 68 53 55 46 46 44 45 46 40 37 37 37 39 40 39 39 40 37 39 40 42 45 45 47 49 49 51 53 54
43 42 38 40 44 50 70 84 71 78 87 93 63 65 71 59 69 63 53 45 44 47 45 38 38 39 38 40 42 45 46 46 44 39 41 43 45 48 50 52 54 57 58
58 38 36 46 49 50 57 70 65 76 71 69 90 90 59 75 78 64 52 49 50 49 46 44 45 46 45 46 42 45 48 50 51 51 50 45 45 47 50 51 52 52 54
58 45 48 64 54 54 55 53 85 89 89 79 75 78 100 77 64 66 61 61 57 53 52 52 51 49 50 52 51 50 46 51 55 57 58 54 49 48 47 50 52 54 54
47 44 42 53 60 62 63 54 50 71 100 100 100 81 95 100 99 91 93 93 81 66 63 60 60 64 60 62 59 57 57 51 53 56 57 62 59 53 53 53 51 52 53
36 30 28 32 38 44 26 27 54 77 82 68 63 86 86 100 100 100 100 100 100 96 82 79 75 72 82 83 73 69 70 62 57 56 59 61 67 69 66 70 72 69 71
26 23 21 21 21 19 19 22 30 49 74 86 53 36 58 83 96 89 73 74 72 82 98 95 90 83 80 91 100 88 88 76 65 66 67 67 63 64 72 76 75 75 77
31 29 25 26 25 27 25 22 22 48 68 97 97 88 69 69 72 71 68 58 62 60 69 90 96 94 89 79 90 100 100 93 76 68 66 66 63 57 65 72 82 90 90
38 38 37 34 32 29 28 30 23 23 41 78 70 71 76 78 64 50 38 30 30 30 41 52 65 83 96 85 73 86 88 97 86 80 73 67 67 67 65 75 86 92 100
50 47 45 38 34 31 37 36 33 30 33 64 35 47 49 34 33 51 43 27 24 29 38 45 56 75 93 100 84 80 84 90 95 92 86 83 84 90 85 82 91 82 69
52 52 50 49 44 40 43 44 41 40 38 35 37 54 61 61 68 72 70 62 53 36 29 31 47 71 97 99 100 86 79 82 86 86 81 83 90 96 96 97 100 99 98
56 55 55 58 56 53 53 53 55 55 54 50 44 37 54 64 73 87 91 93 88 82 72 58 43 44 47 57 90 88 80 76 76 84 90 92 93 88 80 73 73 82 88
53 59 58 58 59 59 59 58 58 59 58 60 60 59 56 56 67 72 70 73 82 99 99 90 76 62 59 43 40 56 58 50 44 48 73 87 76 66 74 60 55 64 66
54 55 56 58 60 60 61 59 57 56 58 60 64 65 64 62 66 64 64 56 49 60 75 86 92 92 88 80 70 41 48 61 61 70 63 61 59 63 71 61 59 62 69
49 52 58 56 54 54 57 62 65 68 66 62 61 64 69 70 80 88 84 78 74 55 47 49 55 72 84 93 100 91 69 57 64 65 77 82 79 74 78 86 84 85 83
55 54 52 55 61 58 52 52 61 63 65 79 79 73 74 76 95 99 96 78 80 84 77 61 52 49 44 57 84 100 100 91 69 83 95 92 93 91 80 89 89 80 81
52 55 60 60 59 61 58 55 54 54 56 58 65 69 75 93 100 100 96 98 92 95 90 82 78 66 62 58 56 64 84 100 100 89 76 82 94 98 100 100 88 83 78
68 69 59 55 55 53 52 48 46 47 48 54 57 46 49 52 59 63 65 67 64 66 75 77 71 69 75 66 55 53 49 62 90 99 95 95 90 92 88 89 91 97 100
84 79 77 74 68 70 73 74 70 60 47 41 43 43 44 44 50 52 55 65 64 61 61 63 63 65 57 55 60 62 55 48 58 81 81 82 87 81 77 75 81 82 78
53 40 30 29 32 30 27 28 29 32 34 36 33 30 30 42 43 40 48 51 50 52 56 51 48 48 53 57 53 59 56 62 48 52 75 74 75 83 75 79 70 71 75
14 15 14 13 12 12 13 13 13 13 15 16 18 19 22 25 29 32 32 33 32 32 31 32 32 36 42 45 42 45 46 44 55 63 56 46 52 50 56 56 55 64 68
18 17 16 16 17 18 18 19 19 18 17 17 14 13 14 13 12 12 13 13 12 11 10 11 12 13 14 21 36 46 41 41 44 47 52 60 57 52 66 66 54 66 93
18 18 19 21 22 23 21 19 17 17 17 17 15 13 10 9 9 8 8 8 8 9 9 9 8 7 7 7 8 11 23 30 38 49 56 55 53 53 84 97 99 100 99
30 26 21 18 15 18 21 19 16 14 13 13 13 12 12 10 9 9 9 8 8 9 9 8 7 7 6 6 7 7 8 13 16 22 45 58 53 55 76 90 100 100 100
30 21 20 24 25 26 28 27 26 23 19 17 17 15 14 13 12 11 11 12 11 10 7 7 7 7 7 7 7 7 7 7 9 11 25 61 73 65 100 97 100 100 100
26 29 31 30 28 27 28 27 25 22 21 21 21 19 18 18 15 13 13 13 12 9 6 6 6 6 6 6 6 6 7 7 8 8 11 34 70 100 85 100 100 100 100